<?xml version="1.0" encoding="UTF-8" standalone="no" ?>
<gpx xmlns="http://www.topografix.com/GPX/1/1" xmlns:xsi="http://www.w3.org/2001/XMLSchema-instance" xsi:schemaLocation="http://www.topografix.com/GPX/1/1 http://www.topografix.com/GPX/1/1/gpx.xsd" version="1.1" creator="VisuGPX - https://www.visugpx.com">
  <metadata>
    <name>Bonnieux - Forêt de Cèdres</name>
    <desc><![CDATA[La Forêt de Cèdres depuis Bonnieux]]></desc>
  </metadata>
  <trk>
    <name><![CDATA[2016-05-07T09:07:33Z]]></name>
    <trkseg>
      <trkpt lat="43.81768" lon="5.31294">
        <ele>370.055</ele>
        <time>2016-05-07T09:07:33Z</time>
      </trkpt>
      <trkpt lat="43.81765" lon="5.31301">
        <ele>361.425</ele>
        <time>2016-05-07T09:07:57Z</time>
      </trkpt>
      <trkpt lat="43.81763" lon="5.31298">
        <ele>364.929</ele>
        <time>2016-05-07T09:08:20Z</time>
      </trkpt>
      <trkpt lat="43.81765" lon="5.31308">
        <ele>359.706</ele>
        <time>2016-05-07T09:08:33Z</time>
      </trkpt>
      <trkpt lat="43.8177" lon="5.31308">
        <ele>367.955</ele>
        <time>2016-05-07T09:08:48Z</time>
      </trkpt>
      <trkpt lat="43.81775" lon="5.3131">
        <ele>369.23</ele>
        <time>2016-05-07T09:08:53Z</time>
      </trkpt>
      <trkpt lat="43.81782" lon="5.31316">
        <ele>370.847</ele>
        <time>2016-05-07T09:09:01Z</time>
      </trkpt>
      <trkpt lat="43.81783" lon="5.31315">
        <ele>371.429</ele>
        <time>2016-05-07T09:09:04Z</time>
      </trkpt>
      <trkpt lat="43.81785" lon="5.31306">
        <ele>373.347</ele>
        <time>2016-05-07T09:09:11Z</time>
      </trkpt>
      <trkpt lat="43.81789" lon="5.31304">
        <ele>379.521</ele>
        <time>2016-05-07T09:09:18Z</time>
      </trkpt>
      <trkpt lat="43.8179" lon="5.31295">
        <ele>388.419</ele>
        <time>2016-05-07T09:09:23Z</time>
      </trkpt>
      <trkpt lat="43.81792" lon="5.3129">
        <ele>396.815</ele>
        <time>2016-05-07T09:09:26Z</time>
      </trkpt>
      <trkpt lat="43.81794" lon="5.31277">
        <ele>400.125</ele>
        <time>2016-05-07T09:09:33Z</time>
      </trkpt>
      <trkpt lat="43.81793" lon="5.31267">
        <ele>404.339</ele>
        <time>2016-05-07T09:09:39Z</time>
      </trkpt>
      <trkpt lat="43.81796" lon="5.31264">
        <ele>410.476</ele>
        <time>2016-05-07T09:09:43Z</time>
      </trkpt>
      <trkpt lat="43.81796" lon="5.31263">
        <ele>413.773</ele>
        <time>2016-05-07T09:09:46Z</time>
      </trkpt>
      <trkpt lat="43.818" lon="5.31254">
        <ele>418.55</ele>
        <time>2016-05-07T09:09:54Z</time>
      </trkpt>
      <trkpt lat="43.81805" lon="5.3125">
        <ele>418.853</ele>
        <time>2016-05-07T09:09:57Z</time>
      </trkpt>
      <trkpt lat="43.8181" lon="5.31246">
        <ele>413.881</ele>
        <time>2016-05-07T09:10:04Z</time>
      </trkpt>
      <trkpt lat="43.8181" lon="5.31241">
        <ele>411.283</ele>
        <time>2016-05-07T09:10:11Z</time>
      </trkpt>
      <trkpt lat="43.81815" lon="5.31235">
        <ele>411.459</ele>
        <time>2016-05-07T09:10:16Z</time>
      </trkpt>
      <trkpt lat="43.81819" lon="5.31229">
        <ele>413.51</ele>
        <time>2016-05-07T09:10:21Z</time>
      </trkpt>
      <trkpt lat="43.81826" lon="5.31222">
        <ele>409.829</ele>
        <time>2016-05-07T09:10:28Z</time>
      </trkpt>
      <trkpt lat="43.81834" lon="5.31207">
        <ele>411.635</ele>
        <time>2016-05-07T09:10:37Z</time>
      </trkpt>
      <trkpt lat="43.81836" lon="5.31202">
        <ele>404.073</ele>
        <time>2016-05-07T09:10:42Z</time>
      </trkpt>
      <trkpt lat="43.81842" lon="5.31199">
        <ele>405.934</ele>
        <time>2016-05-07T09:10:47Z</time>
      </trkpt>
      <trkpt lat="43.8185" lon="5.31194">
        <ele>404.25</ele>
        <time>2016-05-07T09:10:53Z</time>
      </trkpt>
      <trkpt lat="43.8186" lon="5.31189">
        <ele>396.888</ele>
        <time>2016-05-07T09:10:59Z</time>
      </trkpt>
      <trkpt lat="43.81871" lon="5.31181">
        <ele>382.898</ele>
        <time>2016-05-07T09:11:06Z</time>
      </trkpt>
      <trkpt lat="43.81877" lon="5.31173">
        <ele>374.166</ele>
        <time>2016-05-07T09:11:12Z</time>
      </trkpt>
      <trkpt lat="43.81883" lon="5.3117">
        <ele>363.101</ele>
        <time>2016-05-07T09:11:16Z</time>
      </trkpt>
      <trkpt lat="43.81886" lon="5.31167">
        <ele>358.508</ele>
        <time>2016-05-07T09:11:19Z</time>
      </trkpt>
      <trkpt lat="43.81891" lon="5.31158">
        <ele>349.211</ele>
        <time>2016-05-07T09:11:27Z</time>
      </trkpt>
      <trkpt lat="43.81896" lon="5.31152">
        <ele>349.55</ele>
        <time>2016-05-07T09:11:32Z</time>
      </trkpt>
      <trkpt lat="43.81902" lon="5.31142">
        <ele>349.587</ele>
        <time>2016-05-07T09:11:38Z</time>
      </trkpt>
      <trkpt lat="43.8191" lon="5.31127">
        <ele>351.546</ele>
        <time>2016-05-07T09:11:46Z</time>
      </trkpt>
      <trkpt lat="43.81915" lon="5.31117">
        <ele>349.311</ele>
        <time>2016-05-07T09:11:53Z</time>
      </trkpt>
      <trkpt lat="43.8192" lon="5.31106">
        <ele>348.209</ele>
        <time>2016-05-07T09:12:00Z</time>
      </trkpt>
      <trkpt lat="43.81926" lon="5.31094">
        <ele>348.247</ele>
        <time>2016-05-07T09:12:07Z</time>
      </trkpt>
      <trkpt lat="43.81928" lon="5.3109">
        <ele>347.592</ele>
        <time>2016-05-07T09:12:10Z</time>
      </trkpt>
      <trkpt lat="43.81936" lon="5.31074">
        <ele>348.485</ele>
        <time>2016-05-07T09:12:20Z</time>
      </trkpt>
      <trkpt lat="43.81942" lon="5.31063">
        <ele>348.244</ele>
        <time>2016-05-07T09:12:27Z</time>
      </trkpt>
      <trkpt lat="43.81946" lon="5.31054">
        <ele>350.018</ele>
        <time>2016-05-07T09:12:33Z</time>
      </trkpt>
      <trkpt lat="43.81953" lon="5.31043">
        <ele>351.651</ele>
        <time>2016-05-07T09:12:41Z</time>
      </trkpt>
      <trkpt lat="43.8196" lon="5.31032">
        <ele>352.838</ele>
        <time>2016-05-07T09:12:49Z</time>
      </trkpt>
      <trkpt lat="43.81965" lon="5.31021">
        <ele>350.733</ele>
        <time>2016-05-07T09:12:56Z</time>
      </trkpt>
      <trkpt lat="43.81973" lon="5.31013">
        <ele>349.743</ele>
        <time>2016-05-07T09:13:05Z</time>
      </trkpt>
      <trkpt lat="43.8198" lon="5.31003">
        <ele>349.492</ele>
        <time>2016-05-07T09:13:13Z</time>
      </trkpt>
      <trkpt lat="43.81988" lon="5.30992">
        <ele>350.607</ele>
        <time>2016-05-07T09:13:21Z</time>
      </trkpt>
      <trkpt lat="43.81993" lon="5.30985">
        <ele>349.896</ele>
        <time>2016-05-07T09:13:27Z</time>
      </trkpt>
      <trkpt lat="43.81994" lon="5.30983">
        <ele>349.375</ele>
        <time>2016-05-07T09:13:28Z</time>
      </trkpt>
      <trkpt lat="43.82" lon="5.30975">
        <ele>349.875</ele>
        <time>2016-05-07T09:13:35Z</time>
      </trkpt>
      <trkpt lat="43.82005" lon="5.30965">
        <ele>348.834</ele>
        <time>2016-05-07T09:13:42Z</time>
      </trkpt>
      <trkpt lat="43.82011" lon="5.30959">
        <ele>342.409</ele>
        <time>2016-05-07T09:13:48Z</time>
      </trkpt>
      <trkpt lat="43.8202" lon="5.30948">
        <ele>342.649</ele>
        <time>2016-05-07T09:13:56Z</time>
      </trkpt>
      <trkpt lat="43.82029" lon="5.30936">
        <ele>344.562</ele>
        <time>2016-05-07T09:14:05Z</time>
      </trkpt>
      <trkpt lat="43.82036" lon="5.3093">
        <ele>343.891</ele>
        <time>2016-05-07T09:14:12Z</time>
      </trkpt>
      <trkpt lat="43.82044" lon="5.30924">
        <ele>341.392</ele>
        <time>2016-05-07T09:14:20Z</time>
      </trkpt>
      <trkpt lat="43.82052" lon="5.30914">
        <ele>339.653</ele>
        <time>2016-05-07T09:14:27Z</time>
      </trkpt>
      <trkpt lat="43.8206" lon="5.30906">
        <ele>338.565</ele>
        <time>2016-05-07T09:14:34Z</time>
      </trkpt>
      <trkpt lat="43.82065" lon="5.30894">
        <ele>334.799</ele>
        <time>2016-05-07T09:14:42Z</time>
      </trkpt>
      <trkpt lat="43.82065" lon="5.30892">
        <ele>333.287</ele>
        <time>2016-05-07T09:14:44Z</time>
      </trkpt>
      <trkpt lat="43.82055" lon="5.30892">
        <ele>329.936</ele>
        <time>2016-05-07T09:14:52Z</time>
      </trkpt>
      <trkpt lat="43.82043" lon="5.30889">
        <ele>328.843</ele>
        <time>2016-05-07T09:15:00Z</time>
      </trkpt>
      <trkpt lat="43.82035" lon="5.30881">
        <ele>332.742</ele>
        <time>2016-05-07T09:15:07Z</time>
      </trkpt>
      <trkpt lat="43.8203" lon="5.30874">
        <ele>330.267</ele>
        <time>2016-05-07T09:15:13Z</time>
      </trkpt>
      <trkpt lat="43.82025" lon="5.30869">
        <ele>329.235</ele>
        <time>2016-05-07T09:15:17Z</time>
      </trkpt>
      <trkpt lat="43.82024" lon="5.30863">
        <ele>330.721</ele>
        <time>2016-05-07T09:15:23Z</time>
      </trkpt>
      <trkpt lat="43.82024" lon="5.30862">
        <ele>331.662</ele>
        <time>2016-05-07T09:15:25Z</time>
      </trkpt>
      <trkpt lat="43.82019" lon="5.3086">
        <ele>331.661</ele>
        <time>2016-05-07T09:15:32Z</time>
      </trkpt>
      <trkpt lat="43.82018" lon="5.30859">
        <ele>332.172</ele>
        <time>2016-05-07T09:15:33Z</time>
      </trkpt>
      <trkpt lat="43.82013" lon="5.30852">
        <ele>333.035</ele>
        <time>2016-05-07T09:15:40Z</time>
      </trkpt>
      <trkpt lat="43.82013" lon="5.30846">
        <ele>334.737</ele>
        <time>2016-05-07T09:15:45Z</time>
      </trkpt>
      <trkpt lat="43.82013" lon="5.30839">
        <ele>336.597</ele>
        <time>2016-05-07T09:15:49Z</time>
      </trkpt>
      <trkpt lat="43.82012" lon="5.30833">
        <ele>337.618</ele>
        <time>2016-05-07T09:15:53Z</time>
      </trkpt>
      <trkpt lat="43.82011" lon="5.30822">
        <ele>339.833</ele>
        <time>2016-05-07T09:16:01Z</time>
      </trkpt>
      <trkpt lat="43.82007" lon="5.30816">
        <ele>338.127</ele>
        <time>2016-05-07T09:16:07Z</time>
      </trkpt>
      <trkpt lat="43.82007" lon="5.30811">
        <ele>338.117</ele>
        <time>2016-05-07T09:16:14Z</time>
      </trkpt>
      <trkpt lat="43.82005" lon="5.30798">
        <ele>337.547</ele>
        <time>2016-05-07T09:16:22Z</time>
      </trkpt>
      <trkpt lat="43.82003" lon="5.30788">
        <ele>336.516</ele>
        <time>2016-05-07T09:16:29Z</time>
      </trkpt>
      <trkpt lat="43.82" lon="5.30778">
        <ele>336.928</ele>
        <time>2016-05-07T09:16:37Z</time>
      </trkpt>
      <trkpt lat="43.82001" lon="5.30775">
        <ele>336.816</ele>
        <time>2016-05-07T09:16:39Z</time>
      </trkpt>
      <trkpt lat="43.82" lon="5.30769">
        <ele>340.698</ele>
        <time>2016-05-07T09:16:46Z</time>
      </trkpt>
      <trkpt lat="43.82" lon="5.30768">
        <ele>341.068</ele>
        <time>2016-05-07T09:16:48Z</time>
      </trkpt>
      <trkpt lat="43.81999" lon="5.3077">
        <ele>340.845</ele>
        <time>2016-05-07T09:16:54Z</time>
      </trkpt>
      <trkpt lat="43.82003" lon="5.3077">
        <ele>339.557</ele>
        <time>2016-05-07T09:17:13Z</time>
      </trkpt>
      <trkpt lat="43.82001" lon="5.30757">
        <ele>341.306</ele>
        <time>2016-05-07T09:17:20Z</time>
      </trkpt>
      <trkpt lat="43.81997" lon="5.30748">
        <ele>344.466</ele>
        <time>2016-05-07T09:17:27Z</time>
      </trkpt>
      <trkpt lat="43.81996" lon="5.30746">
        <ele>345.393</ele>
        <time>2016-05-07T09:17:30Z</time>
      </trkpt>
      <trkpt lat="43.8199" lon="5.30741">
        <ele>344.881</ele>
        <time>2016-05-07T09:17:36Z</time>
      </trkpt>
      <trkpt lat="43.81986" lon="5.30734">
        <ele>346.417</ele>
        <time>2016-05-07T09:17:41Z</time>
      </trkpt>
      <trkpt lat="43.81982" lon="5.3073">
        <ele>348.122</ele>
        <time>2016-05-07T09:17:48Z</time>
      </trkpt>
      <trkpt lat="43.81975" lon="5.30726">
        <ele>350.247</ele>
        <time>2016-05-07T09:17:55Z</time>
      </trkpt>
      <trkpt lat="43.81974" lon="5.30726">
        <ele>351.299</ele>
        <time>2016-05-07T09:17:56Z</time>
      </trkpt>
      <trkpt lat="43.8197" lon="5.30724">
        <ele>352.458</ele>
        <time>2016-05-07T09:18:01Z</time>
      </trkpt>
      <trkpt lat="43.8197" lon="5.30723">
        <ele>349.649</ele>
        <time>2016-05-07T09:18:04Z</time>
      </trkpt>
      <trkpt lat="43.81963" lon="5.30722">
        <ele>349.358</ele>
        <time>2016-05-07T09:18:10Z</time>
      </trkpt>
      <trkpt lat="43.81962" lon="5.30721">
        <ele>349.619</ele>
        <time>2016-05-07T09:18:11Z</time>
      </trkpt>
      <trkpt lat="43.81958" lon="5.30716">
        <ele>347.816</ele>
        <time>2016-05-07T09:18:16Z</time>
      </trkpt>
      <trkpt lat="43.8196" lon="5.30709">
        <ele>350.192</ele>
        <time>2016-05-07T09:18:23Z</time>
      </trkpt>
      <trkpt lat="43.81961" lon="5.30706">
        <ele>351.093</ele>
        <time>2016-05-07T09:18:26Z</time>
      </trkpt>
      <trkpt lat="43.81958" lon="5.30701">
        <ele>352.191</ele>
        <time>2016-05-07T09:18:32Z</time>
      </trkpt>
      <trkpt lat="43.81959" lon="5.30691">
        <ele>350.389</ele>
        <time>2016-05-07T09:18:38Z</time>
      </trkpt>
      <trkpt lat="43.81961" lon="5.30688">
        <ele>352.278</ele>
        <time>2016-05-07T09:18:40Z</time>
      </trkpt>
      <trkpt lat="43.8196" lon="5.30678">
        <ele>352.894</ele>
        <time>2016-05-07T09:18:47Z</time>
      </trkpt>
      <trkpt lat="43.81958" lon="5.30675">
        <ele>353.114</ele>
        <time>2016-05-07T09:18:50Z</time>
      </trkpt>
      <trkpt lat="43.81954" lon="5.30667">
        <ele>352.263</ele>
        <time>2016-05-07T09:18:58Z</time>
      </trkpt>
      <trkpt lat="43.8195" lon="5.30659">
        <ele>356.651</ele>
        <time>2016-05-07T09:19:05Z</time>
      </trkpt>
      <trkpt lat="43.81946" lon="5.30652">
        <ele>357.874</ele>
        <time>2016-05-07T09:19:11Z</time>
      </trkpt>
      <trkpt lat="43.81942" lon="5.30647">
        <ele>359.926</ele>
        <time>2016-05-07T09:19:19Z</time>
      </trkpt>
      <trkpt lat="43.81938" lon="5.30644">
        <ele>361.613</ele>
        <time>2016-05-07T09:19:26Z</time>
      </trkpt>
      <trkpt lat="43.81935" lon="5.30642">
        <ele>359.897</ele>
        <time>2016-05-07T09:19:31Z</time>
      </trkpt>
      <trkpt lat="43.81929" lon="5.30638">
        <ele>360.995</ele>
        <time>2016-05-07T09:19:38Z</time>
      </trkpt>
      <trkpt lat="43.81928" lon="5.30637">
        <ele>361.065</ele>
        <time>2016-05-07T09:19:41Z</time>
      </trkpt>
      <trkpt lat="43.81922" lon="5.3063">
        <ele>361.88</ele>
        <time>2016-05-07T09:19:50Z</time>
      </trkpt>
      <trkpt lat="43.81915" lon="5.30624">
        <ele>364.328</ele>
        <time>2016-05-07T09:19:58Z</time>
      </trkpt>
      <trkpt lat="43.81908" lon="5.30621">
        <ele>366.215</ele>
        <time>2016-05-07T09:20:04Z</time>
      </trkpt>
      <trkpt lat="43.81898" lon="5.30615">
        <ele>366.03</ele>
        <time>2016-05-07T09:20:12Z</time>
      </trkpt>
      <trkpt lat="43.81893" lon="5.30611">
        <ele>366.253</ele>
        <time>2016-05-07T09:20:17Z</time>
      </trkpt>
      <trkpt lat="43.81885" lon="5.30604">
        <ele>367.324</ele>
        <time>2016-05-07T09:20:26Z</time>
      </trkpt>
      <trkpt lat="43.81883" lon="5.30601">
        <ele>367.541</ele>
        <time>2016-05-07T09:20:29Z</time>
      </trkpt>
      <trkpt lat="43.81883" lon="5.30599">
        <ele>367.352</ele>
        <time>2016-05-07T09:20:31Z</time>
      </trkpt>
      <trkpt lat="43.8188" lon="5.30594">
        <ele>367.622</ele>
        <time>2016-05-07T09:20:35Z</time>
      </trkpt>
      <trkpt lat="43.81878" lon="5.30587">
        <ele>367.791</ele>
        <time>2016-05-07T09:20:40Z</time>
      </trkpt>
      <trkpt lat="43.81873" lon="5.30581">
        <ele>368.745</ele>
        <time>2016-05-07T09:20:46Z</time>
      </trkpt>
      <trkpt lat="43.81869" lon="5.30573">
        <ele>370.304</ele>
        <time>2016-05-07T09:20:53Z</time>
      </trkpt>
      <trkpt lat="43.81864" lon="5.30563">
        <ele>369.71</ele>
        <time>2016-05-07T09:21:00Z</time>
      </trkpt>
      <trkpt lat="43.81863" lon="5.30561">
        <ele>368.886</ele>
        <time>2016-05-07T09:21:02Z</time>
      </trkpt>
      <trkpt lat="43.81858" lon="5.30551">
        <ele>369.066</ele>
        <time>2016-05-07T09:21:09Z</time>
      </trkpt>
      <trkpt lat="43.81856" lon="5.30547">
        <ele>368.207</ele>
        <time>2016-05-07T09:21:12Z</time>
      </trkpt>
      <trkpt lat="43.81852" lon="5.30542">
        <ele>366.306</ele>
        <time>2016-05-07T09:21:18Z</time>
      </trkpt>
      <trkpt lat="43.81846" lon="5.30535">
        <ele>364.176</ele>
        <time>2016-05-07T09:21:25Z</time>
      </trkpt>
      <trkpt lat="43.8184" lon="5.30528">
        <ele>363.966</ele>
        <time>2016-05-07T09:21:31Z</time>
      </trkpt>
      <trkpt lat="43.81834" lon="5.3052">
        <ele>364.849</ele>
        <time>2016-05-07T09:21:38Z</time>
      </trkpt>
      <trkpt lat="43.81826" lon="5.30514">
        <ele>367.516</ele>
        <time>2016-05-07T09:21:45Z</time>
      </trkpt>
      <trkpt lat="43.81822" lon="5.30508">
        <ele>367.492</ele>
        <time>2016-05-07T09:21:50Z</time>
      </trkpt>
      <trkpt lat="43.81817" lon="5.30504">
        <ele>365.727</ele>
        <time>2016-05-07T09:21:55Z</time>
      </trkpt>
      <trkpt lat="43.81808" lon="5.30494">
        <ele>366.464</ele>
        <time>2016-05-07T09:22:04Z</time>
      </trkpt>
      <trkpt lat="43.81805" lon="5.30491">
        <ele>366.564</ele>
        <time>2016-05-07T09:22:07Z</time>
      </trkpt>
      <trkpt lat="43.818" lon="5.30484">
        <ele>368.363</ele>
        <time>2016-05-07T09:22:14Z</time>
      </trkpt>
      <trkpt lat="43.81797" lon="5.30473">
        <ele>365.485</ele>
        <time>2016-05-07T09:22:20Z</time>
      </trkpt>
      <trkpt lat="43.81795" lon="5.3047">
        <ele>364.121</ele>
        <time>2016-05-07T09:22:23Z</time>
      </trkpt>
      <trkpt lat="43.81789" lon="5.30461">
        <ele>366.874</ele>
        <time>2016-05-07T09:22:30Z</time>
      </trkpt>
      <trkpt lat="43.81788" lon="5.30458">
        <ele>366.82</ele>
        <time>2016-05-07T09:22:32Z</time>
      </trkpt>
      <trkpt lat="43.81782" lon="5.30448">
        <ele>367.037</ele>
        <time>2016-05-07T09:22:39Z</time>
      </trkpt>
      <trkpt lat="43.81778" lon="5.30438">
        <ele>363.368</ele>
        <time>2016-05-07T09:22:46Z</time>
      </trkpt>
      <trkpt lat="43.81774" lon="5.3043">
        <ele>360.027</ele>
        <time>2016-05-07T09:22:53Z</time>
      </trkpt>
      <trkpt lat="43.81772" lon="5.30419">
        <ele>359.74</ele>
        <time>2016-05-07T09:22:59Z</time>
      </trkpt>
      <trkpt lat="43.8177" lon="5.30412">
        <ele>357.838</ele>
        <time>2016-05-07T09:23:04Z</time>
      </trkpt>
      <trkpt lat="43.81769" lon="5.30409">
        <ele>357.226</ele>
        <time>2016-05-07T09:23:06Z</time>
      </trkpt>
      <trkpt lat="43.81763" lon="5.30407">
        <ele>355.268</ele>
        <time>2016-05-07T09:23:12Z</time>
      </trkpt>
      <trkpt lat="43.81765" lon="5.30403">
        <ele>354.306</ele>
        <time>2016-05-07T09:23:16Z</time>
      </trkpt>
      <trkpt lat="43.81767" lon="5.304">
        <ele>359.57</ele>
        <time>2016-05-07T09:23:24Z</time>
      </trkpt>
      <trkpt lat="43.81767" lon="5.30401">
        <ele>361.993</ele>
        <time>2016-05-07T09:23:32Z</time>
      </trkpt>
      <trkpt lat="43.81762" lon="5.30402">
        <ele>360.618</ele>
        <time>2016-05-07T09:23:47Z</time>
      </trkpt>
      <trkpt lat="43.81756" lon="5.30407">
        <ele>361.882</ele>
        <time>2016-05-07T09:23:52Z</time>
      </trkpt>
      <trkpt lat="43.8175" lon="5.30411">
        <ele>361.36</ele>
        <time>2016-05-07T09:23:58Z</time>
      </trkpt>
      <trkpt lat="43.81747" lon="5.30413">
        <ele>361.982</ele>
        <time>2016-05-07T09:24:02Z</time>
      </trkpt>
      <trkpt lat="43.81741" lon="5.30417">
        <ele>358.271</ele>
        <time>2016-05-07T09:24:10Z</time>
      </trkpt>
      <trkpt lat="43.81738" lon="5.30419">
        <ele>357.37</ele>
        <time>2016-05-07T09:24:14Z</time>
      </trkpt>
      <trkpt lat="43.81735" lon="5.3042">
        <ele>357.47</ele>
        <time>2016-05-07T09:24:16Z</time>
      </trkpt>
      <trkpt lat="43.81728" lon="5.30426">
        <ele>361.529</ele>
        <time>2016-05-07T09:24:24Z</time>
      </trkpt>
      <trkpt lat="43.81725" lon="5.30428">
        <ele>359.237</ele>
        <time>2016-05-07T09:24:29Z</time>
      </trkpt>
      <trkpt lat="43.81722" lon="5.30427">
        <ele>361.62</ele>
        <time>2016-05-07T09:24:34Z</time>
      </trkpt>
      <trkpt lat="43.81718" lon="5.30424">
        <ele>364.896</ele>
        <time>2016-05-07T09:24:41Z</time>
      </trkpt>
      <trkpt lat="43.81713" lon="5.30421">
        <ele>368.322</ele>
        <time>2016-05-07T09:24:49Z</time>
      </trkpt>
      <trkpt lat="43.81705" lon="5.30418">
        <ele>370.824</ele>
        <time>2016-05-07T09:24:57Z</time>
      </trkpt>
      <trkpt lat="43.81703" lon="5.30418">
        <ele>370.317</ele>
        <time>2016-05-07T09:24:59Z</time>
      </trkpt>
      <trkpt lat="43.8169" lon="5.30419">
        <ele>367.961</ele>
        <time>2016-05-07T09:25:09Z</time>
      </trkpt>
      <trkpt lat="43.81688" lon="5.30422">
        <ele>367.8</ele>
        <time>2016-05-07T09:25:11Z</time>
      </trkpt>
      <trkpt lat="43.81683" lon="5.30425">
        <ele>366.438</ele>
        <time>2016-05-07T09:25:18Z</time>
      </trkpt>
      <trkpt lat="43.81675" lon="5.30429">
        <ele>367.162</ele>
        <time>2016-05-07T09:25:24Z</time>
      </trkpt>
      <trkpt lat="43.81669" lon="5.30431">
        <ele>371.632</ele>
        <time>2016-05-07T09:25:28Z</time>
      </trkpt>
      <trkpt lat="43.8166" lon="5.30438">
        <ele>370.077</ele>
        <time>2016-05-07T09:25:36Z</time>
      </trkpt>
      <trkpt lat="43.81657" lon="5.30443">
        <ele>369.863</ele>
        <time>2016-05-07T09:25:39Z</time>
      </trkpt>
      <trkpt lat="43.81648" lon="5.30452">
        <ele>371.496</ele>
        <time>2016-05-07T09:25:47Z</time>
      </trkpt>
      <trkpt lat="43.81646" lon="5.30456">
        <ele>366.337</ele>
        <time>2016-05-07T09:25:55Z</time>
      </trkpt>
      <trkpt lat="43.81641" lon="5.30459">
        <ele>368.825</ele>
        <time>2016-05-07T09:26:04Z</time>
      </trkpt>
      <trkpt lat="43.81639" lon="5.30462">
        <ele>370.969</ele>
        <time>2016-05-07T09:26:11Z</time>
      </trkpt>
      <trkpt lat="43.81635" lon="5.30467">
        <ele>372.917</ele>
        <time>2016-05-07T09:26:19Z</time>
      </trkpt>
      <trkpt lat="43.81625" lon="5.30473">
        <ele>373.367</ele>
        <time>2016-05-07T09:26:27Z</time>
      </trkpt>
      <trkpt lat="43.81613" lon="5.30481">
        <ele>373.693</ele>
        <time>2016-05-07T09:26:37Z</time>
      </trkpt>
      <trkpt lat="43.81607" lon="5.30485">
        <ele>373.854</ele>
        <time>2016-05-07T09:26:42Z</time>
      </trkpt>
      <trkpt lat="43.816" lon="5.30491">
        <ele>368.314</ele>
        <time>2016-05-07T09:26:49Z</time>
      </trkpt>
      <trkpt lat="43.81592" lon="5.30497">
        <ele>365.974</ele>
        <time>2016-05-07T09:26:57Z</time>
      </trkpt>
      <trkpt lat="43.81582" lon="5.30503">
        <ele>367.52</ele>
        <time>2016-05-07T09:27:04Z</time>
      </trkpt>
      <trkpt lat="43.8158" lon="5.30502">
        <ele>368.772</ele>
        <time>2016-05-07T09:27:05Z</time>
      </trkpt>
      <trkpt lat="43.81573" lon="5.30507">
        <ele>366.102</ele>
        <time>2016-05-07T09:27:13Z</time>
      </trkpt>
      <trkpt lat="43.81567" lon="5.30507">
        <ele>369.673</ele>
        <time>2016-05-07T09:27:20Z</time>
      </trkpt>
      <trkpt lat="43.81562" lon="5.30507">
        <ele>369.003</ele>
        <time>2016-05-07T09:27:24Z</time>
      </trkpt>
      <trkpt lat="43.81561" lon="5.30505">
        <ele>370.678</ele>
        <time>2016-05-07T09:27:26Z</time>
      </trkpt>
      <trkpt lat="43.81553" lon="5.30497">
        <ele>376.414</ele>
        <time>2016-05-07T09:27:32Z</time>
      </trkpt>
      <trkpt lat="43.81548" lon="5.30494">
        <ele>378.035</ele>
        <time>2016-05-07T09:27:36Z</time>
      </trkpt>
      <trkpt lat="43.81543" lon="5.30493">
        <ele>377.672</ele>
        <time>2016-05-07T09:27:40Z</time>
      </trkpt>
      <trkpt lat="43.81533" lon="5.30491">
        <ele>376.987</ele>
        <time>2016-05-07T09:27:49Z</time>
      </trkpt>
      <trkpt lat="43.81523" lon="5.30486">
        <ele>381.631</ele>
        <time>2016-05-07T09:27:57Z</time>
      </trkpt>
      <trkpt lat="43.81516" lon="5.30483">
        <ele>384.752</ele>
        <time>2016-05-07T09:28:04Z</time>
      </trkpt>
      <trkpt lat="43.81513" lon="5.30483">
        <ele>384.772</ele>
        <time>2016-05-07T09:28:09Z</time>
      </trkpt>
      <trkpt lat="43.81507" lon="5.30482">
        <ele>385.051</ele>
        <time>2016-05-07T09:28:15Z</time>
      </trkpt>
      <trkpt lat="43.81502" lon="5.30481">
        <ele>387.361</ele>
        <time>2016-05-07T09:28:21Z</time>
      </trkpt>
      <trkpt lat="43.81495" lon="5.30481">
        <ele>391.726</ele>
        <time>2016-05-07T09:28:28Z</time>
      </trkpt>
      <trkpt lat="43.8149" lon="5.30483">
        <ele>392.37</ele>
        <time>2016-05-07T09:28:34Z</time>
      </trkpt>
      <trkpt lat="43.81486" lon="5.30483">
        <ele>387.829</ele>
        <time>2016-05-07T09:28:39Z</time>
      </trkpt>
      <trkpt lat="43.81483" lon="5.30485">
        <ele>387.459</ele>
        <time>2016-05-07T09:28:44Z</time>
      </trkpt>
      <trkpt lat="43.81475" lon="5.30487">
        <ele>387.178</ele>
        <time>2016-05-07T09:28:53Z</time>
      </trkpt>
      <trkpt lat="43.81466" lon="5.30487">
        <ele>395.215</ele>
        <time>2016-05-07T09:29:00Z</time>
      </trkpt>
      <trkpt lat="43.81463" lon="5.30491">
        <ele>394.358</ele>
        <time>2016-05-07T09:29:06Z</time>
      </trkpt>
      <trkpt lat="43.81458" lon="5.30491">
        <ele>397.212</ele>
        <time>2016-05-07T09:29:10Z</time>
      </trkpt>
      <trkpt lat="43.81445" lon="5.30491">
        <ele>401.137</ele>
        <time>2016-05-07T09:29:22Z</time>
      </trkpt>
      <trkpt lat="43.81443" lon="5.30484">
        <ele>402.727</ele>
        <time>2016-05-07T09:29:33Z</time>
      </trkpt>
      <trkpt lat="43.81445" lon="5.30483">
        <ele>401.715</ele>
        <time>2016-05-07T09:29:35Z</time>
      </trkpt>
      <trkpt lat="43.81446" lon="5.30478">
        <ele>403.36</ele>
        <time>2016-05-07T09:29:39Z</time>
      </trkpt>
      <trkpt lat="43.81443" lon="5.30471">
        <ele>401.774</ele>
        <time>2016-05-07T09:29:45Z</time>
      </trkpt>
      <trkpt lat="43.81441" lon="5.30463">
        <ele>399.072</ele>
        <time>2016-05-07T09:29:53Z</time>
      </trkpt>
      <trkpt lat="43.81439" lon="5.30454">
        <ele>394.395</ele>
        <time>2016-05-07T09:30:00Z</time>
      </trkpt>
      <trkpt lat="43.81436" lon="5.30451">
        <ele>399.19</ele>
        <time>2016-05-07T09:30:05Z</time>
      </trkpt>
      <trkpt lat="43.81437" lon="5.30453">
        <ele>412.396</ele>
        <time>2016-05-07T09:30:16Z</time>
      </trkpt>
      <trkpt lat="43.81435" lon="5.30458">
        <ele>415.542</ele>
        <time>2016-05-07T09:30:23Z</time>
      </trkpt>
      <trkpt lat="43.8143" lon="5.30462">
        <ele>415.547</ele>
        <time>2016-05-07T09:30:29Z</time>
      </trkpt>
      <trkpt lat="43.8142" lon="5.30466">
        <ele>411.879</ele>
        <time>2016-05-07T09:30:43Z</time>
      </trkpt>
      <trkpt lat="43.81414" lon="5.30473">
        <ele>414.075</ele>
        <time>2016-05-07T09:30:55Z</time>
      </trkpt>
      <trkpt lat="43.81408" lon="5.30474">
        <ele>416.338</ele>
        <time>2016-05-07T09:31:00Z</time>
      </trkpt>
      <trkpt lat="43.81399" lon="5.30475">
        <ele>418.547</ele>
        <time>2016-05-07T09:31:07Z</time>
      </trkpt>
      <trkpt lat="43.81394" lon="5.30473">
        <ele>417.179</ele>
        <time>2016-05-07T09:31:12Z</time>
      </trkpt>
      <trkpt lat="43.81391" lon="5.30473">
        <ele>416.501</ele>
        <time>2016-05-07T09:31:15Z</time>
      </trkpt>
      <trkpt lat="43.81383" lon="5.30474">
        <ele>418.911</ele>
        <time>2016-05-07T09:31:24Z</time>
      </trkpt>
      <trkpt lat="43.81381" lon="5.30477">
        <ele>417.583</ele>
        <time>2016-05-07T09:31:28Z</time>
      </trkpt>
      <trkpt lat="43.81377" lon="5.30487">
        <ele>419.216</ele>
        <time>2016-05-07T09:31:35Z</time>
      </trkpt>
      <trkpt lat="43.81372" lon="5.30498">
        <ele>417.019</ele>
        <time>2016-05-07T09:31:43Z</time>
      </trkpt>
      <trkpt lat="43.8137" lon="5.30503">
        <ele>416.611</ele>
        <time>2016-05-07T09:31:46Z</time>
      </trkpt>
      <trkpt lat="43.81365" lon="5.30514">
        <ele>420.275</ele>
        <time>2016-05-07T09:31:52Z</time>
      </trkpt>
      <trkpt lat="43.81361" lon="5.30518">
        <ele>419.039</ele>
        <time>2016-05-07T09:31:59Z</time>
      </trkpt>
      <trkpt lat="43.81359" lon="5.30521">
        <ele>422.335</ele>
        <time>2016-05-07T09:32:04Z</time>
      </trkpt>
      <trkpt lat="43.81358" lon="5.30522">
        <ele>422.472</ele>
        <time>2016-05-07T09:32:08Z</time>
      </trkpt>
      <trkpt lat="43.81358" lon="5.30527">
        <ele>422.905</ele>
        <time>2016-05-07T09:32:13Z</time>
      </trkpt>
      <trkpt lat="43.81357" lon="5.30526">
        <ele>422.416</ele>
        <time>2016-05-07T09:32:15Z</time>
      </trkpt>
      <trkpt lat="43.81356" lon="5.30519">
        <ele>423.129</ele>
        <time>2016-05-07T09:32:22Z</time>
      </trkpt>
      <trkpt lat="43.81358" lon="5.30519">
        <ele>422.366</ele>
        <time>2016-05-07T09:32:28Z</time>
      </trkpt>
      <trkpt lat="43.81359" lon="5.30517">
        <ele>423.206</ele>
        <time>2016-05-07T09:32:33Z</time>
      </trkpt>
      <trkpt lat="43.81361" lon="5.30519">
        <ele>425.872</ele>
        <time>2016-05-07T09:32:44Z</time>
      </trkpt>
      <trkpt lat="43.81361" lon="5.30523">
        <ele>424.746</ele>
        <time>2016-05-07T09:32:54Z</time>
      </trkpt>
      <trkpt lat="43.81361" lon="5.30522">
        <ele>424.287</ele>
        <time>2016-05-07T09:33:00Z</time>
      </trkpt>
      <trkpt lat="43.81364" lon="5.30518">
        <ele>425.399</ele>
        <time>2016-05-07T09:33:12Z</time>
      </trkpt>
      <trkpt lat="43.81363" lon="5.30518">
        <ele>426.488</ele>
        <time>2016-05-07T09:33:22Z</time>
      </trkpt>
      <trkpt lat="43.81364" lon="5.30519">
        <ele>422.559</ele>
        <time>2016-05-07T09:33:29Z</time>
      </trkpt>
      <trkpt lat="43.81362" lon="5.30519">
        <ele>422.623</ele>
        <time>2016-05-07T09:33:35Z</time>
      </trkpt>
      <trkpt lat="43.81358" lon="5.30521">
        <ele>425.621</ele>
        <time>2016-05-07T09:33:46Z</time>
      </trkpt>
      <trkpt lat="43.81358" lon="5.30525">
        <ele>427.387</ele>
        <time>2016-05-07T09:33:48Z</time>
      </trkpt>
      <trkpt lat="43.81359" lon="5.30531">
        <ele>423.635</ele>
        <time>2016-05-07T09:33:54Z</time>
      </trkpt>
      <trkpt lat="43.81358" lon="5.30539">
        <ele>422.506</ele>
        <time>2016-05-07T09:33:59Z</time>
      </trkpt>
      <trkpt lat="43.81355" lon="5.30548">
        <ele>422.074</ele>
        <time>2016-05-07T09:34:04Z</time>
      </trkpt>
      <trkpt lat="43.81355" lon="5.3056">
        <ele>422.915</ele>
        <time>2016-05-07T09:34:12Z</time>
      </trkpt>
      <trkpt lat="43.81356" lon="5.30571">
        <ele>426.14</ele>
        <time>2016-05-07T09:34:18Z</time>
      </trkpt>
      <trkpt lat="43.81355" lon="5.30578">
        <ele>427.722</ele>
        <time>2016-05-07T09:34:24Z</time>
      </trkpt>
      <trkpt lat="43.81355" lon="5.30581">
        <ele>426.878</ele>
        <time>2016-05-07T09:34:28Z</time>
      </trkpt>
      <trkpt lat="43.81355" lon="5.30593">
        <ele>424.995</ele>
        <time>2016-05-07T09:34:35Z</time>
      </trkpt>
      <trkpt lat="43.81355" lon="5.30593">
        <ele>424.63</ele>
        <time>2016-05-07T09:34:36Z</time>
      </trkpt>
      <trkpt lat="43.81352" lon="5.30587">
        <ele>425.59</ele>
        <time>2016-05-07T09:34:42Z</time>
      </trkpt>
      <trkpt lat="43.81351" lon="5.30587">
        <ele>424.826</ele>
        <time>2016-05-07T09:34:43Z</time>
      </trkpt>
      <trkpt lat="43.81347" lon="5.30583">
        <ele>425.714</ele>
        <time>2016-05-07T09:34:49Z</time>
      </trkpt>
      <trkpt lat="43.81346" lon="5.30579">
        <ele>426.723</ele>
        <time>2016-05-07T09:34:52Z</time>
      </trkpt>
      <trkpt lat="43.81343" lon="5.30575">
        <ele>425.741</ele>
        <time>2016-05-07T09:34:55Z</time>
      </trkpt>
      <trkpt lat="43.81342" lon="5.30565">
        <ele>424.521</ele>
        <time>2016-05-07T09:35:01Z</time>
      </trkpt>
      <trkpt lat="43.81342" lon="5.30558">
        <ele>426.252</ele>
        <time>2016-05-07T09:35:06Z</time>
      </trkpt>
      <trkpt lat="43.81333" lon="5.30554">
        <ele>426.158</ele>
        <time>2016-05-07T09:35:14Z</time>
      </trkpt>
      <trkpt lat="43.81328" lon="5.30551">
        <ele>424.301</ele>
        <time>2016-05-07T09:35:20Z</time>
      </trkpt>
      <trkpt lat="43.81321" lon="5.30547">
        <ele>429.131</ele>
        <time>2016-05-07T09:35:27Z</time>
      </trkpt>
      <trkpt lat="43.81317" lon="5.30544">
        <ele>431.035</ele>
        <time>2016-05-07T09:35:32Z</time>
      </trkpt>
      <trkpt lat="43.81317" lon="5.30543">
        <ele>431.773</ele>
        <time>2016-05-07T09:35:33Z</time>
      </trkpt>
      <trkpt lat="43.81312" lon="5.3054">
        <ele>429.762</ele>
        <time>2016-05-07T09:35:37Z</time>
      </trkpt>
      <trkpt lat="43.81313" lon="5.30531">
        <ele>430.031</ele>
        <time>2016-05-07T09:35:43Z</time>
      </trkpt>
      <trkpt lat="43.81314" lon="5.30527">
        <ele>430.88</ele>
        <time>2016-05-07T09:35:46Z</time>
      </trkpt>
      <trkpt lat="43.81311" lon="5.30517">
        <ele>431.271</ele>
        <time>2016-05-07T09:35:51Z</time>
      </trkpt>
      <trkpt lat="43.81309" lon="5.30511">
        <ele>429.507</ele>
        <time>2016-05-07T09:35:54Z</time>
      </trkpt>
      <trkpt lat="43.81305" lon="5.30501">
        <ele>425.819</ele>
        <time>2016-05-07T09:36:01Z</time>
      </trkpt>
      <trkpt lat="43.81302" lon="5.30498">
        <ele>430.139</ele>
        <time>2016-05-07T09:36:08Z</time>
      </trkpt>
      <trkpt lat="43.81296" lon="5.30497">
        <ele>434.011</ele>
        <time>2016-05-07T09:36:15Z</time>
      </trkpt>
      <trkpt lat="43.81291" lon="5.30498">
        <ele>435.334</ele>
        <time>2016-05-07T09:36:18Z</time>
      </trkpt>
      <trkpt lat="43.81289" lon="5.30497">
        <ele>437.112</ele>
        <time>2016-05-07T09:36:21Z</time>
      </trkpt>
      <trkpt lat="43.81285" lon="5.30487">
        <ele>437.924</ele>
        <time>2016-05-07T09:36:28Z</time>
      </trkpt>
      <trkpt lat="43.81282" lon="5.30479">
        <ele>442.333</ele>
        <time>2016-05-07T09:36:35Z</time>
      </trkpt>
      <trkpt lat="43.81276" lon="5.30475">
        <ele>441.495</ele>
        <time>2016-05-07T09:36:42Z</time>
      </trkpt>
      <trkpt lat="43.81273" lon="5.30472">
        <ele>439.543</ele>
        <time>2016-05-07T09:36:47Z</time>
      </trkpt>
      <trkpt lat="43.81268" lon="5.30465">
        <ele>441.138</ele>
        <time>2016-05-07T09:36:54Z</time>
      </trkpt>
      <trkpt lat="43.81269" lon="5.30466">
        <ele>440.853</ele>
        <time>2016-05-07T09:36:55Z</time>
      </trkpt>
      <trkpt lat="43.81268" lon="5.30466">
        <ele>438.883</ele>
        <time>2016-05-07T09:36:57Z</time>
      </trkpt>
      <trkpt lat="43.81265" lon="5.30463">
        <ele>440.003</ele>
        <time>2016-05-07T09:37:01Z</time>
      </trkpt>
      <trkpt lat="43.81263" lon="5.30453">
        <ele>441.479</ele>
        <time>2016-05-07T09:37:09Z</time>
      </trkpt>
      <trkpt lat="43.81263" lon="5.3045">
        <ele>440.729</ele>
        <time>2016-05-07T09:37:12Z</time>
      </trkpt>
      <trkpt lat="43.81261" lon="5.30446">
        <ele>443.552</ele>
        <time>2016-05-07T09:37:17Z</time>
      </trkpt>
      <trkpt lat="43.81259" lon="5.30442">
        <ele>444.169</ele>
        <time>2016-05-07T09:37:20Z</time>
      </trkpt>
      <trkpt lat="43.81258" lon="5.30436">
        <ele>442.105</ele>
        <time>2016-05-07T09:37:25Z</time>
      </trkpt>
      <trkpt lat="43.81249" lon="5.30429">
        <ele>444.388</ele>
        <time>2016-05-07T09:37:33Z</time>
      </trkpt>
      <trkpt lat="43.81246" lon="5.30424">
        <ele>446.695</ele>
        <time>2016-05-07T09:37:39Z</time>
      </trkpt>
      <trkpt lat="43.81244" lon="5.30417">
        <ele>444.894</ele>
        <time>2016-05-07T09:37:45Z</time>
      </trkpt>
      <trkpt lat="43.81245" lon="5.30413">
        <ele>441.511</ele>
        <time>2016-05-07T09:37:49Z</time>
      </trkpt>
      <trkpt lat="43.81242" lon="5.30407">
        <ele>439.316</ele>
        <time>2016-05-07T09:37:55Z</time>
      </trkpt>
      <trkpt lat="43.8124" lon="5.30397">
        <ele>437.724</ele>
        <time>2016-05-07T09:38:02Z</time>
      </trkpt>
      <trkpt lat="43.81238" lon="5.30392">
        <ele>436.873</ele>
        <time>2016-05-07T09:38:07Z</time>
      </trkpt>
      <trkpt lat="43.81235" lon="5.30384">
        <ele>433.671</ele>
        <time>2016-05-07T09:38:12Z</time>
      </trkpt>
      <trkpt lat="43.81232" lon="5.3038">
        <ele>432.963</ele>
        <time>2016-05-07T09:38:18Z</time>
      </trkpt>
      <trkpt lat="43.81227" lon="5.30373">
        <ele>429.611</ele>
        <time>2016-05-07T09:38:25Z</time>
      </trkpt>
      <trkpt lat="43.81218" lon="5.30366">
        <ele>438.799</ele>
        <time>2016-05-07T09:38:37Z</time>
      </trkpt>
      <trkpt lat="43.81211" lon="5.30366">
        <ele>445.125</ele>
        <time>2016-05-07T09:38:45Z</time>
      </trkpt>
      <trkpt lat="43.81204" lon="5.30364">
        <ele>448.843</ele>
        <time>2016-05-07T09:38:51Z</time>
      </trkpt>
      <trkpt lat="43.81197" lon="5.30365">
        <ele>451.973</ele>
        <time>2016-05-07T09:38:57Z</time>
      </trkpt>
      <trkpt lat="43.81189" lon="5.3036">
        <ele>453.517</ele>
        <time>2016-05-07T09:39:05Z</time>
      </trkpt>
      <trkpt lat="43.81182" lon="5.30353">
        <ele>452.861</ele>
        <time>2016-05-07T09:39:12Z</time>
      </trkpt>
      <trkpt lat="43.81175" lon="5.30351">
        <ele>455.008</ele>
        <time>2016-05-07T09:39:19Z</time>
      </trkpt>
      <trkpt lat="43.81169" lon="5.3035">
        <ele>456.479</ele>
        <time>2016-05-07T09:39:26Z</time>
      </trkpt>
      <trkpt lat="43.81164" lon="5.30348">
        <ele>459.105</ele>
        <time>2016-05-07T09:39:32Z</time>
      </trkpt>
      <trkpt lat="43.81153" lon="5.3034">
        <ele>461.469</ele>
        <time>2016-05-07T09:39:44Z</time>
      </trkpt>
      <trkpt lat="43.81143" lon="5.30336">
        <ele>460.138</ele>
        <time>2016-05-07T09:39:53Z</time>
      </trkpt>
      <trkpt lat="43.81138" lon="5.3033">
        <ele>461.232</ele>
        <time>2016-05-07T09:40:02Z</time>
      </trkpt>
      <trkpt lat="43.81133" lon="5.30325">
        <ele>461.85</ele>
        <time>2016-05-07T09:40:08Z</time>
      </trkpt>
      <trkpt lat="43.8113" lon="5.3032">
        <ele>465.287</ele>
        <time>2016-05-07T09:40:15Z</time>
      </trkpt>
      <trkpt lat="43.81122" lon="5.30312">
        <ele>467.425</ele>
        <time>2016-05-07T09:40:22Z</time>
      </trkpt>
      <trkpt lat="43.81118" lon="5.30303">
        <ele>472.499</ele>
        <time>2016-05-07T09:40:31Z</time>
      </trkpt>
      <trkpt lat="43.81112" lon="5.303">
        <ele>468.605</ele>
        <time>2016-05-07T09:40:37Z</time>
      </trkpt>
      <trkpt lat="43.81106" lon="5.30297">
        <ele>469.54</ele>
        <time>2016-05-07T09:40:42Z</time>
      </trkpt>
      <trkpt lat="43.81099" lon="5.30295">
        <ele>468.963</ele>
        <time>2016-05-07T09:40:49Z</time>
      </trkpt>
      <trkpt lat="43.81093" lon="5.30294">
        <ele>469.87</ele>
        <time>2016-05-07T09:40:55Z</time>
      </trkpt>
      <trkpt lat="43.81084" lon="5.30288">
        <ele>470.938</ele>
        <time>2016-05-07T09:41:03Z</time>
      </trkpt>
      <trkpt lat="43.8108" lon="5.30285">
        <ele>474.525</ele>
        <time>2016-05-07T09:41:11Z</time>
      </trkpt>
      <trkpt lat="43.81073" lon="5.30282">
        <ele>476.633</ele>
        <time>2016-05-07T09:41:18Z</time>
      </trkpt>
      <trkpt lat="43.81071" lon="5.3028">
        <ele>478.233</ele>
        <time>2016-05-07T09:41:23Z</time>
      </trkpt>
      <trkpt lat="43.81066" lon="5.3028">
        <ele>479.597</ele>
        <time>2016-05-07T09:41:30Z</time>
      </trkpt>
      <trkpt lat="43.81056" lon="5.3028">
        <ele>478.798</ele>
        <time>2016-05-07T09:41:47Z</time>
      </trkpt>
      <trkpt lat="43.81047" lon="5.3028">
        <ele>482.243</ele>
        <time>2016-05-07T09:41:54Z</time>
      </trkpt>
      <trkpt lat="43.81042" lon="5.30279">
        <ele>480.343</ele>
        <time>2016-05-07T09:42:01Z</time>
      </trkpt>
      <trkpt lat="43.81035" lon="5.30276">
        <ele>481.196</ele>
        <time>2016-05-07T09:42:09Z</time>
      </trkpt>
      <trkpt lat="43.81031" lon="5.30274">
        <ele>480.555</ele>
        <time>2016-05-07T09:42:14Z</time>
      </trkpt>
      <trkpt lat="43.81026" lon="5.30269">
        <ele>479.863</ele>
        <time>2016-05-07T09:42:20Z</time>
      </trkpt>
      <trkpt lat="43.81022" lon="5.30264">
        <ele>480.983</ele>
        <time>2016-05-07T09:42:26Z</time>
      </trkpt>
      <trkpt lat="43.81018" lon="5.30261">
        <ele>480.933</ele>
        <time>2016-05-07T09:42:32Z</time>
      </trkpt>
      <trkpt lat="43.81015" lon="5.30258">
        <ele>481.684</ele>
        <time>2016-05-07T09:42:38Z</time>
      </trkpt>
      <trkpt lat="43.81007" lon="5.30254">
        <ele>482.434</ele>
        <time>2016-05-07T09:42:46Z</time>
      </trkpt>
      <trkpt lat="43.80998" lon="5.30247">
        <ele>486.372</ele>
        <time>2016-05-07T09:42:58Z</time>
      </trkpt>
      <trkpt lat="43.80994" lon="5.30245">
        <ele>490.247</ele>
        <time>2016-05-07T09:43:03Z</time>
      </trkpt>
      <trkpt lat="43.80985" lon="5.30236">
        <ele>498.297</ele>
        <time>2016-05-07T09:43:17Z</time>
      </trkpt>
      <trkpt lat="43.8098" lon="5.30234">
        <ele>497.216</ele>
        <time>2016-05-07T09:43:22Z</time>
      </trkpt>
      <trkpt lat="43.80976" lon="5.3023">
        <ele>496.341</ele>
        <time>2016-05-07T09:43:30Z</time>
      </trkpt>
      <trkpt lat="43.80966" lon="5.30226">
        <ele>499.506</ele>
        <time>2016-05-07T09:43:37Z</time>
      </trkpt>
      <trkpt lat="43.8096" lon="5.30222">
        <ele>503.024</ele>
        <time>2016-05-07T09:43:44Z</time>
      </trkpt>
      <trkpt lat="43.80959" lon="5.30223">
        <ele>503.953</ele>
        <time>2016-05-07T09:43:47Z</time>
      </trkpt>
      <trkpt lat="43.80957" lon="5.30226">
        <ele>507.325</ele>
        <time>2016-05-07T09:43:54Z</time>
      </trkpt>
      <trkpt lat="43.80954" lon="5.3023">
        <ele>506.059</ele>
        <time>2016-05-07T09:44:01Z</time>
      </trkpt>
      <trkpt lat="43.80937" lon="5.30239">
        <ele>509.3</ele>
        <time>2016-05-07T09:44:23Z</time>
      </trkpt>
      <trkpt lat="43.80929" lon="5.30238">
        <ele>512.052</ele>
        <time>2016-05-07T09:44:32Z</time>
      </trkpt>
      <trkpt lat="43.80924" lon="5.30236">
        <ele>511.377</ele>
        <time>2016-05-07T09:44:39Z</time>
      </trkpt>
      <trkpt lat="43.80916" lon="5.30236">
        <ele>511.876</ele>
        <time>2016-05-07T09:44:48Z</time>
      </trkpt>
      <trkpt lat="43.8091" lon="5.30236">
        <ele>508.34</ele>
        <time>2016-05-07T09:44:57Z</time>
      </trkpt>
      <trkpt lat="43.80904" lon="5.30234">
        <ele>509.183</ele>
        <time>2016-05-07T09:45:04Z</time>
      </trkpt>
      <trkpt lat="43.80894" lon="5.30235">
        <ele>514.186</ele>
        <time>2016-05-07T09:45:14Z</time>
      </trkpt>
      <trkpt lat="43.80885" lon="5.30233">
        <ele>518.516</ele>
        <time>2016-05-07T09:45:23Z</time>
      </trkpt>
      <trkpt lat="43.80876" lon="5.30231">
        <ele>519.845</ele>
        <time>2016-05-07T09:45:37Z</time>
      </trkpt>
      <trkpt lat="43.80868" lon="5.3023">
        <ele>523.919</ele>
        <time>2016-05-07T09:45:45Z</time>
      </trkpt>
      <trkpt lat="43.80862" lon="5.30232">
        <ele>524.719</ele>
        <time>2016-05-07T09:45:53Z</time>
      </trkpt>
      <trkpt lat="43.80855" lon="5.30232">
        <ele>528.861</ele>
        <time>2016-05-07T09:46:00Z</time>
      </trkpt>
      <trkpt lat="43.80845" lon="5.30238">
        <ele>528.693</ele>
        <time>2016-05-07T09:46:10Z</time>
      </trkpt>
      <trkpt lat="43.8084" lon="5.30238">
        <ele>529.557</ele>
        <time>2016-05-07T09:46:15Z</time>
      </trkpt>
      <trkpt lat="43.80833" lon="5.30241">
        <ele>530.942</ele>
        <time>2016-05-07T09:46:21Z</time>
      </trkpt>
      <trkpt lat="43.80832" lon="5.30243">
        <ele>531.168</ele>
        <time>2016-05-07T09:46:25Z</time>
      </trkpt>
      <trkpt lat="43.80827" lon="5.30244">
        <ele>532.897</ele>
        <time>2016-05-07T09:46:32Z</time>
      </trkpt>
      <trkpt lat="43.80823" lon="5.30246">
        <ele>535.254</ele>
        <time>2016-05-07T09:46:40Z</time>
      </trkpt>
      <trkpt lat="43.80818" lon="5.30245">
        <ele>539.03</ele>
        <time>2016-05-07T09:46:46Z</time>
      </trkpt>
      <trkpt lat="43.80812" lon="5.30253">
        <ele>545.634</ele>
        <time>2016-05-07T09:46:59Z</time>
      </trkpt>
      <trkpt lat="43.80813" lon="5.30254">
        <ele>547.018</ele>
        <time>2016-05-07T09:47:00Z</time>
      </trkpt>
      <trkpt lat="43.80811" lon="5.30261">
        <ele>547.007</ele>
        <time>2016-05-07T09:47:06Z</time>
      </trkpt>
      <trkpt lat="43.80805" lon="5.30261">
        <ele>547.59</ele>
        <time>2016-05-07T09:47:12Z</time>
      </trkpt>
      <trkpt lat="43.808" lon="5.3026">
        <ele>549.084</ele>
        <time>2016-05-07T09:47:17Z</time>
      </trkpt>
      <trkpt lat="43.80795" lon="5.30258">
        <ele>548.819</ele>
        <time>2016-05-07T09:47:25Z</time>
      </trkpt>
      <trkpt lat="43.80792" lon="5.30257">
        <ele>548.477</ele>
        <time>2016-05-07T09:47:28Z</time>
      </trkpt>
      <trkpt lat="43.80784" lon="5.30257">
        <ele>549.745</ele>
        <time>2016-05-07T09:47:36Z</time>
      </trkpt>
      <trkpt lat="43.80782" lon="5.30258">
        <ele>552.847</ele>
        <time>2016-05-07T09:47:41Z</time>
      </trkpt>
      <trkpt lat="43.80775" lon="5.30258">
        <ele>555.83</ele>
        <time>2016-05-07T09:47:47Z</time>
      </trkpt>
      <trkpt lat="43.80771" lon="5.30257">
        <ele>554.98</ele>
        <time>2016-05-07T09:47:52Z</time>
      </trkpt>
      <trkpt lat="43.80768" lon="5.30257">
        <ele>554.83</ele>
        <time>2016-05-07T09:48:00Z</time>
      </trkpt>
      <trkpt lat="43.80764" lon="5.30258">
        <ele>557.228</ele>
        <time>2016-05-07T09:48:05Z</time>
      </trkpt>
      <trkpt lat="43.80745" lon="5.30263">
        <ele>559.631</ele>
        <time>2016-05-07T09:48:23Z</time>
      </trkpt>
      <trkpt lat="43.80738" lon="5.30266">
        <ele>562.09</ele>
        <time>2016-05-07T09:48:30Z</time>
      </trkpt>
      <trkpt lat="43.80732" lon="5.30266">
        <ele>566.772</ele>
        <time>2016-05-07T09:48:34Z</time>
      </trkpt>
      <trkpt lat="43.80726" lon="5.30265">
        <ele>570.277</ele>
        <time>2016-05-07T09:48:42Z</time>
      </trkpt>
      <trkpt lat="43.80722" lon="5.30264">
        <ele>570.711</ele>
        <time>2016-05-07T09:48:48Z</time>
      </trkpt>
      <trkpt lat="43.80719" lon="5.30264">
        <ele>567.582</ele>
        <time>2016-05-07T09:48:55Z</time>
      </trkpt>
      <trkpt lat="43.80711" lon="5.30263">
        <ele>566.717</ele>
        <time>2016-05-07T09:49:03Z</time>
      </trkpt>
      <trkpt lat="43.80708" lon="5.3026">
        <ele>568.363</ele>
        <time>2016-05-07T09:49:09Z</time>
      </trkpt>
      <trkpt lat="43.80708" lon="5.3026">
        <ele>568.387</ele>
        <time>2016-05-07T09:49:11Z</time>
      </trkpt>
      <trkpt lat="43.80701" lon="5.30263">
        <ele>575.375</ele>
        <time>2016-05-07T09:49:18Z</time>
      </trkpt>
      <trkpt lat="43.80701" lon="5.30264">
        <ele>575.402</ele>
        <time>2016-05-07T09:49:19Z</time>
      </trkpt>
      <trkpt lat="43.80696" lon="5.30267">
        <ele>576.215</ele>
        <time>2016-05-07T09:49:25Z</time>
      </trkpt>
      <trkpt lat="43.80696" lon="5.30267">
        <ele>580.591</ele>
        <time>2016-05-07T09:49:29Z</time>
      </trkpt>
      <trkpt lat="43.80695" lon="5.30273">
        <ele>587.712</ele>
        <time>2016-05-07T09:49:36Z</time>
      </trkpt>
      <trkpt lat="43.80694" lon="5.30277">
        <ele>590.572</ele>
        <time>2016-05-07T09:49:41Z</time>
      </trkpt>
      <trkpt lat="43.80692" lon="5.3028">
        <ele>587.515</ele>
        <time>2016-05-07T09:49:47Z</time>
      </trkpt>
      <trkpt lat="43.8069" lon="5.30279">
        <ele>584.817</ele>
        <time>2016-05-07T09:49:57Z</time>
      </trkpt>
      <trkpt lat="43.80688" lon="5.30283">
        <ele>586.312</ele>
        <time>2016-05-07T09:50:01Z</time>
      </trkpt>
      <trkpt lat="43.8068" lon="5.30288">
        <ele>585.382</ele>
        <time>2016-05-07T09:50:09Z</time>
      </trkpt>
      <trkpt lat="43.80679" lon="5.30286">
        <ele>585.201</ele>
        <time>2016-05-07T09:50:13Z</time>
      </trkpt>
      <trkpt lat="43.80671" lon="5.30282">
        <ele>581.463</ele>
        <time>2016-05-07T09:50:19Z</time>
      </trkpt>
      <trkpt lat="43.80666" lon="5.30279">
        <ele>577.882</ele>
        <time>2016-05-07T09:50:25Z</time>
      </trkpt>
      <trkpt lat="43.80663" lon="5.30278">
        <ele>578.995</ele>
        <time>2016-05-07T09:50:31Z</time>
      </trkpt>
      <trkpt lat="43.80662" lon="5.30274">
        <ele>582.234</ele>
        <time>2016-05-07T09:50:38Z</time>
      </trkpt>
      <trkpt lat="43.80661" lon="5.30275">
        <ele>586.313</ele>
        <time>2016-05-07T09:50:41Z</time>
      </trkpt>
      <trkpt lat="43.80659" lon="5.30275">
        <ele>590.248</ele>
        <time>2016-05-07T09:50:48Z</time>
      </trkpt>
      <trkpt lat="43.80659" lon="5.30275">
        <ele>588.708</ele>
        <time>2016-05-07T09:50:49Z</time>
      </trkpt>
      <trkpt lat="43.80664" lon="5.30271">
        <ele>585.649</ele>
        <time>2016-05-07T09:50:55Z</time>
      </trkpt>
      <trkpt lat="43.80668" lon="5.30269">
        <ele>584.832</ele>
        <time>2016-05-07T09:51:01Z</time>
      </trkpt>
      <trkpt lat="43.80669" lon="5.30269">
        <ele>585.063</ele>
        <time>2016-05-07T09:51:04Z</time>
      </trkpt>
      <trkpt lat="43.80669" lon="5.30274">
        <ele>584.381</ele>
        <time>2016-05-07T09:51:10Z</time>
      </trkpt>
      <trkpt lat="43.8067" lon="5.30277">
        <ele>584.496</ele>
        <time>2016-05-07T09:51:17Z</time>
      </trkpt>
      <trkpt lat="43.80672" lon="5.30279">
        <ele>583.407</ele>
        <time>2016-05-07T09:51:35Z</time>
      </trkpt>
      <trkpt lat="43.80665" lon="5.30277">
        <ele>581.47</ele>
        <time>2016-05-07T09:51:44Z</time>
      </trkpt>
      <trkpt lat="43.80663" lon="5.30276">
        <ele>580.342</ele>
        <time>2016-05-07T09:51:47Z</time>
      </trkpt>
      <trkpt lat="43.8066" lon="5.30268">
        <ele>581.61</ele>
        <time>2016-05-07T09:51:55Z</time>
      </trkpt>
      <trkpt lat="43.80658" lon="5.30258">
        <ele>583.184</ele>
        <time>2016-05-07T09:52:02Z</time>
      </trkpt>
      <trkpt lat="43.80657" lon="5.30255">
        <ele>581.294</ele>
        <time>2016-05-07T09:52:06Z</time>
      </trkpt>
      <trkpt lat="43.80658" lon="5.30256">
        <ele>580.095</ele>
        <time>2016-05-07T09:52:15Z</time>
      </trkpt>
      <trkpt lat="43.80657" lon="5.30253">
        <ele>579.503</ele>
        <time>2016-05-07T09:52:20Z</time>
      </trkpt>
      <trkpt lat="43.80656" lon="5.30251">
        <ele>579.323</ele>
        <time>2016-05-07T09:52:29Z</time>
      </trkpt>
      <trkpt lat="43.80658" lon="5.30249">
        <ele>583.378</ele>
        <time>2016-05-07T09:52:40Z</time>
      </trkpt>
      <trkpt lat="43.80658" lon="5.30246">
        <ele>585.355</ele>
        <time>2016-05-07T09:52:48Z</time>
      </trkpt>
      <trkpt lat="43.80658" lon="5.30246">
        <ele>580.631</ele>
        <time>2016-05-07T09:52:57Z</time>
      </trkpt>
      <trkpt lat="43.80658" lon="5.30248">
        <ele>579.539</ele>
        <time>2016-05-07T09:53:06Z</time>
      </trkpt>
      <trkpt lat="43.80657" lon="5.30249">
        <ele>579.748</ele>
        <time>2016-05-07T09:53:18Z</time>
      </trkpt>
      <trkpt lat="43.80657" lon="5.30249">
        <ele>581.048</ele>
        <time>2016-05-07T09:53:23Z</time>
      </trkpt>
      <trkpt lat="43.80656" lon="5.30249">
        <ele>582.221</ele>
        <time>2016-05-07T09:53:39Z</time>
      </trkpt>
      <trkpt lat="43.8066" lon="5.3025">
        <ele>582.098</ele>
        <time>2016-05-07T09:53:45Z</time>
      </trkpt>
      <trkpt lat="43.80658" lon="5.30241">
        <ele>581.619</ele>
        <time>2016-05-07T09:53:50Z</time>
      </trkpt>
      <trkpt lat="43.80659" lon="5.30232">
        <ele>582.318</ele>
        <time>2016-05-07T09:53:55Z</time>
      </trkpt>
      <trkpt lat="43.8066" lon="5.30226">
        <ele>581.974</ele>
        <time>2016-05-07T09:53:59Z</time>
      </trkpt>
      <trkpt lat="43.80659" lon="5.30219">
        <ele>581.172</ele>
        <time>2016-05-07T09:54:04Z</time>
      </trkpt>
      <trkpt lat="43.80657" lon="5.30213">
        <ele>580.112</ele>
        <time>2016-05-07T09:54:07Z</time>
      </trkpt>
      <trkpt lat="43.80656" lon="5.30201">
        <ele>578.798</ele>
        <time>2016-05-07T09:54:14Z</time>
      </trkpt>
      <trkpt lat="43.80654" lon="5.30195">
        <ele>577.768</ele>
        <time>2016-05-07T09:54:20Z</time>
      </trkpt>
      <trkpt lat="43.80653" lon="5.30192">
        <ele>578.494</ele>
        <time>2016-05-07T09:54:23Z</time>
      </trkpt>
      <trkpt lat="43.80649" lon="5.30183">
        <ele>581.208</ele>
        <time>2016-05-07T09:54:30Z</time>
      </trkpt>
      <trkpt lat="43.80644" lon="5.30178">
        <ele>581.364</ele>
        <time>2016-05-07T09:54:35Z</time>
      </trkpt>
      <trkpt lat="43.80642" lon="5.30174">
        <ele>580.777</ele>
        <time>2016-05-07T09:54:40Z</time>
      </trkpt>
      <trkpt lat="43.80637" lon="5.30171">
        <ele>582.18</ele>
        <time>2016-05-07T09:54:45Z</time>
      </trkpt>
      <trkpt lat="43.80629" lon="5.30167">
        <ele>580.822</ele>
        <time>2016-05-07T09:54:53Z</time>
      </trkpt>
      <trkpt lat="43.80624" lon="5.30167">
        <ele>583.783</ele>
        <time>2016-05-07T09:54:58Z</time>
      </trkpt>
      <trkpt lat="43.80618" lon="5.30166">
        <ele>589.96</ele>
        <time>2016-05-07T09:55:05Z</time>
      </trkpt>
      <trkpt lat="43.80612" lon="5.30167">
        <ele>590.384</ele>
        <time>2016-05-07T09:55:12Z</time>
      </trkpt>
      <trkpt lat="43.80607" lon="5.30168">
        <ele>590.612</ele>
        <time>2016-05-07T09:55:17Z</time>
      </trkpt>
      <trkpt lat="43.80605" lon="5.30167">
        <ele>593.926</ele>
        <time>2016-05-07T09:55:23Z</time>
      </trkpt>
      <trkpt lat="43.80601" lon="5.30171">
        <ele>598.498</ele>
        <time>2016-05-07T09:55:30Z</time>
      </trkpt>
      <trkpt lat="43.80593" lon="5.30173">
        <ele>593.515</ele>
        <time>2016-05-07T09:55:36Z</time>
      </trkpt>
      <trkpt lat="43.80586" lon="5.30173">
        <ele>590.42</ele>
        <time>2016-05-07T09:55:41Z</time>
      </trkpt>
      <trkpt lat="43.80576" lon="5.30171">
        <ele>595.047</ele>
        <time>2016-05-07T09:55:48Z</time>
      </trkpt>
      <trkpt lat="43.80573" lon="5.30171">
        <ele>599.556</ele>
        <time>2016-05-07T09:55:53Z</time>
      </trkpt>
      <trkpt lat="43.80573" lon="5.30169">
        <ele>598.855</ele>
        <time>2016-05-07T09:56:02Z</time>
      </trkpt>
      <trkpt lat="43.80571" lon="5.30168">
        <ele>600.76</ele>
        <time>2016-05-07T09:56:15Z</time>
      </trkpt>
      <trkpt lat="43.80562" lon="5.30163">
        <ele>602.519</ele>
        <time>2016-05-07T09:56:22Z</time>
      </trkpt>
      <trkpt lat="43.80559" lon="5.30162">
        <ele>602.92</ele>
        <time>2016-05-07T09:56:25Z</time>
      </trkpt>
      <trkpt lat="43.80556" lon="5.30159">
        <ele>604.588</ele>
        <time>2016-05-07T09:56:31Z</time>
      </trkpt>
      <trkpt lat="43.80556" lon="5.3016">
        <ele>603.613</ele>
        <time>2016-05-07T09:56:35Z</time>
      </trkpt>
      <trkpt lat="43.80555" lon="5.30163">
        <ele>604.239</ele>
        <time>2016-05-07T09:56:42Z</time>
      </trkpt>
      <trkpt lat="43.80549" lon="5.30166">
        <ele>597.906</ele>
        <time>2016-05-07T09:57:27Z</time>
      </trkpt>
      <trkpt lat="43.80546" lon="5.30171">
        <ele>595.16</ele>
        <time>2016-05-07T09:57:35Z</time>
      </trkpt>
      <trkpt lat="43.80543" lon="5.30178">
        <ele>593.712</ele>
        <time>2016-05-07T09:57:42Z</time>
      </trkpt>
      <trkpt lat="43.80537" lon="5.30185">
        <ele>594.164</ele>
        <time>2016-05-07T09:57:50Z</time>
      </trkpt>
      <trkpt lat="43.80535" lon="5.3019">
        <ele>592.29</ele>
        <time>2016-05-07T09:57:53Z</time>
      </trkpt>
      <trkpt lat="43.80527" lon="5.30197">
        <ele>593.343</ele>
        <time>2016-05-07T09:58:00Z</time>
      </trkpt>
      <trkpt lat="43.80521" lon="5.30206">
        <ele>591.873</ele>
        <time>2016-05-07T09:58:09Z</time>
      </trkpt>
      <trkpt lat="43.80517" lon="5.30211">
        <ele>590.541</ele>
        <time>2016-05-07T09:58:16Z</time>
      </trkpt>
      <trkpt lat="43.80513" lon="5.3022">
        <ele>583.779</ele>
        <time>2016-05-07T09:58:23Z</time>
      </trkpt>
      <trkpt lat="43.8051" lon="5.30228">
        <ele>582.293</ele>
        <time>2016-05-07T09:58:30Z</time>
      </trkpt>
      <trkpt lat="43.80509" lon="5.3023">
        <ele>582.266</ele>
        <time>2016-05-07T09:58:32Z</time>
      </trkpt>
      <trkpt lat="43.80498" lon="5.3024">
        <ele>582.111</ele>
        <time>2016-05-07T09:58:39Z</time>
      </trkpt>
      <trkpt lat="43.80498" lon="5.30241">
        <ele>580.469</ele>
        <time>2016-05-07T09:58:41Z</time>
      </trkpt>
      <trkpt lat="43.80488" lon="5.30254">
        <ele>582.987</ele>
        <time>2016-05-07T09:58:48Z</time>
      </trkpt>
      <trkpt lat="43.80481" lon="5.30258">
        <ele>582.594</ele>
        <time>2016-05-07T09:58:54Z</time>
      </trkpt>
      <trkpt lat="43.80474" lon="5.30266">
        <ele>583.445</ele>
        <time>2016-05-07T09:59:03Z</time>
      </trkpt>
      <trkpt lat="43.80473" lon="5.3027">
        <ele>576.171</ele>
        <time>2016-05-07T09:59:09Z</time>
      </trkpt>
      <trkpt lat="43.80468" lon="5.30274">
        <ele>572.166</ele>
        <time>2016-05-07T09:59:15Z</time>
      </trkpt>
      <trkpt lat="43.80462" lon="5.30278">
        <ele>573.491</ele>
        <time>2016-05-07T09:59:20Z</time>
      </trkpt>
      <trkpt lat="43.80455" lon="5.30283">
        <ele>575.714</ele>
        <time>2016-05-07T09:59:28Z</time>
      </trkpt>
      <trkpt lat="43.80453" lon="5.30286">
        <ele>576.256</ele>
        <time>2016-05-07T09:59:35Z</time>
      </trkpt>
      <trkpt lat="43.80451" lon="5.30287">
        <ele>577.278</ele>
        <time>2016-05-07T09:59:44Z</time>
      </trkpt>
      <trkpt lat="43.80449" lon="5.30286">
        <ele>578.437</ele>
        <time>2016-05-07T09:59:49Z</time>
      </trkpt>
      <trkpt lat="43.80454" lon="5.30289">
        <ele>586.425</ele>
        <time>2016-05-07T09:59:56Z</time>
      </trkpt>
      <trkpt lat="43.80446" lon="5.30294">
        <ele>582.266</ele>
        <time>2016-05-07T10:00:20Z</time>
      </trkpt>
      <trkpt lat="43.8044" lon="5.30295">
        <ele>582.227</ele>
        <time>2016-05-07T10:00:26Z</time>
      </trkpt>
      <trkpt lat="43.80436" lon="5.30296">
        <ele>584.32</ele>
        <time>2016-05-07T10:00:32Z</time>
      </trkpt>
      <trkpt lat="43.80432" lon="5.30296">
        <ele>588.272</ele>
        <time>2016-05-07T10:00:40Z</time>
      </trkpt>
      <trkpt lat="43.8043" lon="5.30298">
        <ele>588.143</ele>
        <time>2016-05-07T10:00:55Z</time>
      </trkpt>
      <trkpt lat="43.80432" lon="5.30298">
        <ele>586.283</ele>
        <time>2016-05-07T10:01:02Z</time>
      </trkpt>
      <trkpt lat="43.80429" lon="5.30299">
        <ele>584.099</ele>
        <time>2016-05-07T10:01:11Z</time>
      </trkpt>
      <trkpt lat="43.80421" lon="5.303">
        <ele>581.471</ele>
        <time>2016-05-07T10:01:17Z</time>
      </trkpt>
      <trkpt lat="43.80421" lon="5.30301">
        <ele>580.001</ele>
        <time>2016-05-07T10:01:21Z</time>
      </trkpt>
      <trkpt lat="43.80422" lon="5.30302">
        <ele>582.177</ele>
        <time>2016-05-07T10:01:28Z</time>
      </trkpt>
      <trkpt lat="43.80419" lon="5.30301">
        <ele>585.195</ele>
        <time>2016-05-07T10:01:32Z</time>
      </trkpt>
      <trkpt lat="43.80419" lon="5.303">
        <ele>584.217</ele>
        <time>2016-05-07T10:01:36Z</time>
      </trkpt>
      <trkpt lat="43.80418" lon="5.30301">
        <ele>581.232</ele>
        <time>2016-05-07T10:01:43Z</time>
      </trkpt>
      <trkpt lat="43.80413" lon="5.30302">
        <ele>582.493</ele>
        <time>2016-05-07T10:01:48Z</time>
      </trkpt>
      <trkpt lat="43.80417" lon="5.30299">
        <ele>583.135</ele>
        <time>2016-05-07T10:01:59Z</time>
      </trkpt>
      <trkpt lat="43.80423" lon="5.30295">
        <ele>579.198</ele>
        <time>2016-05-07T10:02:06Z</time>
      </trkpt>
      <trkpt lat="43.80423" lon="5.30298">
        <ele>584.961</ele>
        <time>2016-05-07T10:02:13Z</time>
      </trkpt>
      <trkpt lat="43.80427" lon="5.30299">
        <ele>592.653</ele>
        <time>2016-05-07T10:02:19Z</time>
      </trkpt>
      <trkpt lat="43.80424" lon="5.30298">
        <ele>592.803</ele>
        <time>2016-05-07T10:02:25Z</time>
      </trkpt>
      <trkpt lat="43.80424" lon="5.30298">
        <ele>594.286</ele>
        <time>2016-05-07T10:02:26Z</time>
      </trkpt>
      <trkpt lat="43.80414" lon="5.30305">
        <ele>591.523</ele>
        <time>2016-05-07T10:02:33Z</time>
      </trkpt>
      <trkpt lat="43.80403" lon="5.30307">
        <ele>587.916</ele>
        <time>2016-05-07T10:02:41Z</time>
      </trkpt>
      <trkpt lat="43.80403" lon="5.30309">
        <ele>588.328</ele>
        <time>2016-05-07T10:02:42Z</time>
      </trkpt>
      <trkpt lat="43.80392" lon="5.30316">
        <ele>585.383</ele>
        <time>2016-05-07T10:02:50Z</time>
      </trkpt>
      <trkpt lat="43.80391" lon="5.30316">
        <ele>584.391</ele>
        <time>2016-05-07T10:02:51Z</time>
      </trkpt>
      <trkpt lat="43.80386" lon="5.30319">
        <ele>579.736</ele>
        <time>2016-05-07T10:02:58Z</time>
      </trkpt>
      <trkpt lat="43.80379" lon="5.30326">
        <ele>575.641</ele>
        <time>2016-05-07T10:03:05Z</time>
      </trkpt>
      <trkpt lat="43.80374" lon="5.30327">
        <ele>574.103</ele>
        <time>2016-05-07T10:03:09Z</time>
      </trkpt>
      <trkpt lat="43.80369" lon="5.30331">
        <ele>572.823</ele>
        <time>2016-05-07T10:03:13Z</time>
      </trkpt>
      <trkpt lat="43.80358" lon="5.30344">
        <ele>572.689</ele>
        <time>2016-05-07T10:03:22Z</time>
      </trkpt>
      <trkpt lat="43.8035" lon="5.30349">
        <ele>574.095</ele>
        <time>2016-05-07T10:03:30Z</time>
      </trkpt>
      <trkpt lat="43.8035" lon="5.30348">
        <ele>575.208</ele>
        <time>2016-05-07T10:03:33Z</time>
      </trkpt>
      <trkpt lat="43.80349" lon="5.3035">
        <ele>577.292</ele>
        <time>2016-05-07T10:03:39Z</time>
      </trkpt>
      <trkpt lat="43.80349" lon="5.30352">
        <ele>579.179</ele>
        <time>2016-05-07T10:03:44Z</time>
      </trkpt>
      <trkpt lat="43.80349" lon="5.30352">
        <ele>578.405</ele>
        <time>2016-05-07T10:03:45Z</time>
      </trkpt>
      <trkpt lat="43.80344" lon="5.30356">
        <ele>576.389</ele>
        <time>2016-05-07T10:03:50Z</time>
      </trkpt>
      <trkpt lat="43.80339" lon="5.30359">
        <ele>574.118</ele>
        <time>2016-05-07T10:03:55Z</time>
      </trkpt>
      <trkpt lat="43.80335" lon="5.30365">
        <ele>572.539</ele>
        <time>2016-05-07T10:04:00Z</time>
      </trkpt>
      <trkpt lat="43.80333" lon="5.30368">
        <ele>571.899</ele>
        <time>2016-05-07T10:04:02Z</time>
      </trkpt>
      <trkpt lat="43.80332" lon="5.30369">
        <ele>571.358</ele>
        <time>2016-05-07T10:04:04Z</time>
      </trkpt>
      <trkpt lat="43.80325" lon="5.30375">
        <ele>574.609</ele>
        <time>2016-05-07T10:04:11Z</time>
      </trkpt>
      <trkpt lat="43.80316" lon="5.30381">
        <ele>572.996</ele>
        <time>2016-05-07T10:04:19Z</time>
      </trkpt>
      <trkpt lat="43.80308" lon="5.30388">
        <ele>571.934</ele>
        <time>2016-05-07T10:04:26Z</time>
      </trkpt>
      <trkpt lat="43.80305" lon="5.30391">
        <ele>572.404</ele>
        <time>2016-05-07T10:04:29Z</time>
      </trkpt>
      <trkpt lat="43.80299" lon="5.30396">
        <ele>570.469</ele>
        <time>2016-05-07T10:04:36Z</time>
      </trkpt>
      <trkpt lat="43.80295" lon="5.30399">
        <ele>567.049</ele>
        <time>2016-05-07T10:04:41Z</time>
      </trkpt>
      <trkpt lat="43.80287" lon="5.30402">
        <ele>571.259</ele>
        <time>2016-05-07T10:04:47Z</time>
      </trkpt>
      <trkpt lat="43.80281" lon="5.30406">
        <ele>572.346</ele>
        <time>2016-05-07T10:04:52Z</time>
      </trkpt>
      <trkpt lat="43.80277" lon="5.30411">
        <ele>571.152</ele>
        <time>2016-05-07T10:04:56Z</time>
      </trkpt>
      <trkpt lat="43.80271" lon="5.30417">
        <ele>567.184</ele>
        <time>2016-05-07T10:05:03Z</time>
      </trkpt>
      <trkpt lat="43.80266" lon="5.30422">
        <ele>564.42</ele>
        <time>2016-05-07T10:05:08Z</time>
      </trkpt>
      <trkpt lat="43.80262" lon="5.30426">
        <ele>565.878</ele>
        <time>2016-05-07T10:05:11Z</time>
      </trkpt>
      <trkpt lat="43.80255" lon="5.30431">
        <ele>565.381</ele>
        <time>2016-05-07T10:05:17Z</time>
      </trkpt>
      <trkpt lat="43.80252" lon="5.30433">
        <ele>566.566</ele>
        <time>2016-05-07T10:05:19Z</time>
      </trkpt>
      <trkpt lat="43.80244" lon="5.30439">
        <ele>566.513</ele>
        <time>2016-05-07T10:05:26Z</time>
      </trkpt>
      <trkpt lat="43.8024" lon="5.30442">
        <ele>568.229</ele>
        <time>2016-05-07T10:05:31Z</time>
      </trkpt>
      <trkpt lat="43.80233" lon="5.30443">
        <ele>569.005</ele>
        <time>2016-05-07T10:05:36Z</time>
      </trkpt>
      <trkpt lat="43.80231" lon="5.30442">
        <ele>567.404</ele>
        <time>2016-05-07T10:05:39Z</time>
      </trkpt>
      <trkpt lat="43.80217" lon="5.30435">
        <ele>570.648</ele>
        <time>2016-05-07T10:05:46Z</time>
      </trkpt>
      <trkpt lat="43.80212" lon="5.3043">
        <ele>569.393</ele>
        <time>2016-05-07T10:05:51Z</time>
      </trkpt>
      <trkpt lat="43.80204" lon="5.30423">
        <ele>569.355</ele>
        <time>2016-05-07T10:05:59Z</time>
      </trkpt>
      <trkpt lat="43.80203" lon="5.30421">
        <ele>569.715</ele>
        <time>2016-05-07T10:06:00Z</time>
      </trkpt>
      <trkpt lat="43.80197" lon="5.30414">
        <ele>569.044</ele>
        <time>2016-05-07T10:06:08Z</time>
      </trkpt>
      <trkpt lat="43.80192" lon="5.30407">
        <ele>572.988</ele>
        <time>2016-05-07T10:06:15Z</time>
      </trkpt>
      <trkpt lat="43.80187" lon="5.30401">
        <ele>572.111</ele>
        <time>2016-05-07T10:06:23Z</time>
      </trkpt>
      <trkpt lat="43.80183" lon="5.30399">
        <ele>571.348</ele>
        <time>2016-05-07T10:06:29Z</time>
      </trkpt>
      <trkpt lat="43.80175" lon="5.30398">
        <ele>566.014</ele>
        <time>2016-05-07T10:06:39Z</time>
      </trkpt>
      <trkpt lat="43.80166" lon="5.30396">
        <ele>566.06</ele>
        <time>2016-05-07T10:06:48Z</time>
      </trkpt>
      <trkpt lat="43.80159" lon="5.30391">
        <ele>568.464</ele>
        <time>2016-05-07T10:06:56Z</time>
      </trkpt>
      <trkpt lat="43.80154" lon="5.30386">
        <ele>568.11</ele>
        <time>2016-05-07T10:07:03Z</time>
      </trkpt>
      <trkpt lat="43.80153" lon="5.30386">
        <ele>568.381</ele>
        <time>2016-05-07T10:07:04Z</time>
      </trkpt>
      <trkpt lat="43.80144" lon="5.30378">
        <ele>570.267</ele>
        <time>2016-05-07T10:07:13Z</time>
      </trkpt>
      <trkpt lat="43.80137" lon="5.30368">
        <ele>570.363</ele>
        <time>2016-05-07T10:07:22Z</time>
      </trkpt>
      <trkpt lat="43.8013" lon="5.30352">
        <ele>576.028</ele>
        <time>2016-05-07T10:07:29Z</time>
      </trkpt>
      <trkpt lat="43.80129" lon="5.3035">
        <ele>576.598</ele>
        <time>2016-05-07T10:07:30Z</time>
      </trkpt>
      <trkpt lat="43.80123" lon="5.30342">
        <ele>576.827</ele>
        <time>2016-05-07T10:07:35Z</time>
      </trkpt>
      <trkpt lat="43.80117" lon="5.30333">
        <ele>578.267</ele>
        <time>2016-05-07T10:07:41Z</time>
      </trkpt>
      <trkpt lat="43.80115" lon="5.30331">
        <ele>578.968</ele>
        <time>2016-05-07T10:07:42Z</time>
      </trkpt>
      <trkpt lat="43.8011" lon="5.30325">
        <ele>575.599</ele>
        <time>2016-05-07T10:07:49Z</time>
      </trkpt>
      <trkpt lat="43.80105" lon="5.30322">
        <ele>577.716</ele>
        <time>2016-05-07T10:07:54Z</time>
      </trkpt>
      <trkpt lat="43.80097" lon="5.30318">
        <ele>576.9</ele>
        <time>2016-05-07T10:08:01Z</time>
      </trkpt>
      <trkpt lat="43.80094" lon="5.30318">
        <ele>576.734</ele>
        <time>2016-05-07T10:08:05Z</time>
      </trkpt>
      <trkpt lat="43.80086" lon="5.30312">
        <ele>577.25</ele>
        <time>2016-05-07T10:08:12Z</time>
      </trkpt>
      <trkpt lat="43.80079" lon="5.30308">
        <ele>576.118</ele>
        <time>2016-05-07T10:08:18Z</time>
      </trkpt>
      <trkpt lat="43.80072" lon="5.30305">
        <ele>575.464</ele>
        <time>2016-05-07T10:08:25Z</time>
      </trkpt>
      <trkpt lat="43.80068" lon="5.30303">
        <ele>575.505</ele>
        <time>2016-05-07T10:08:32Z</time>
      </trkpt>
      <trkpt lat="43.80067" lon="5.30303">
        <ele>574.783</ele>
        <time>2016-05-07T10:08:34Z</time>
      </trkpt>
      <trkpt lat="43.80064" lon="5.303">
        <ele>576.007</ele>
        <time>2016-05-07T10:08:41Z</time>
      </trkpt>
      <trkpt lat="43.80065" lon="5.30302">
        <ele>575.174</ele>
        <time>2016-05-07T10:08:47Z</time>
      </trkpt>
      <trkpt lat="43.80056" lon="5.30299">
        <ele>568.812</ele>
        <time>2016-05-07T10:08:53Z</time>
      </trkpt>
      <trkpt lat="43.80049" lon="5.30294">
        <ele>565.866</ele>
        <time>2016-05-07T10:09:00Z</time>
      </trkpt>
      <trkpt lat="43.80045" lon="5.30294">
        <ele>566.901</ele>
        <time>2016-05-07T10:09:05Z</time>
      </trkpt>
      <trkpt lat="43.80046" lon="5.30296">
        <ele>564.412</ele>
        <time>2016-05-07T10:09:11Z</time>
      </trkpt>
      <trkpt lat="43.80048" lon="5.30305">
        <ele>571.532</ele>
        <time>2016-05-07T10:09:19Z</time>
      </trkpt>
      <trkpt lat="43.8005" lon="5.30305">
        <ele>574.966</ele>
        <time>2016-05-07T10:09:28Z</time>
      </trkpt>
      <trkpt lat="43.80047" lon="5.30309">
        <ele>578.217</ele>
        <time>2016-05-07T10:09:40Z</time>
      </trkpt>
      <trkpt lat="43.80045" lon="5.30312">
        <ele>571.15</ele>
        <time>2016-05-07T10:09:47Z</time>
      </trkpt>
      <trkpt lat="43.80044" lon="5.30317">
        <ele>569.154</ele>
        <time>2016-05-07T10:09:54Z</time>
      </trkpt>
      <trkpt lat="43.80038" lon="5.30316">
        <ele>577.269</ele>
        <time>2016-05-07T10:10:04Z</time>
      </trkpt>
      <trkpt lat="43.80035" lon="5.30317">
        <ele>579.31</ele>
        <time>2016-05-07T10:10:07Z</time>
      </trkpt>
      <trkpt lat="43.80033" lon="5.30321">
        <ele>579.415</ele>
        <time>2016-05-07T10:10:13Z</time>
      </trkpt>
      <trkpt lat="43.80034" lon="5.30325">
        <ele>576.729</ele>
        <time>2016-05-07T10:10:23Z</time>
      </trkpt>
      <trkpt lat="43.80034" lon="5.30325">
        <ele>576.904</ele>
        <time>2016-05-07T10:10:29Z</time>
      </trkpt>
      <trkpt lat="43.80034" lon="5.30329">
        <ele>575.685</ele>
        <time>2016-05-07T10:10:37Z</time>
      </trkpt>
      <trkpt lat="43.80035" lon="5.30294">
        <ele>578.617</ele>
        <time>2016-05-07T10:11:32Z</time>
      </trkpt>
      <trkpt lat="43.80037" lon="5.3032">
        <ele>572.323</ele>
        <time>2016-05-07T10:11:34Z</time>
      </trkpt>
      <trkpt lat="43.80032" lon="5.30319">
        <ele>575.405</ele>
        <time>2016-05-07T10:11:40Z</time>
      </trkpt>
      <trkpt lat="43.80032" lon="5.30319">
        <ele>573.603</ele>
        <time>2016-05-07T10:11:47Z</time>
      </trkpt>
      <trkpt lat="43.80035" lon="5.30312">
        <ele>569.401</ele>
        <time>2016-05-07T10:12:10Z</time>
      </trkpt>
      <trkpt lat="43.80034" lon="5.3031">
        <ele>567.978</ele>
        <time>2016-05-07T10:12:13Z</time>
      </trkpt>
      <trkpt lat="43.80035" lon="5.30303">
        <ele>568.794</ele>
        <time>2016-05-07T10:12:19Z</time>
      </trkpt>
      <trkpt lat="43.80038" lon="5.30294">
        <ele>573.395</ele>
        <time>2016-05-07T10:12:27Z</time>
      </trkpt>
      <trkpt lat="43.80036" lon="5.30291">
        <ele>573.653</ele>
        <time>2016-05-07T10:12:32Z</time>
      </trkpt>
      <trkpt lat="43.80032" lon="5.3029">
        <ele>574.372</ele>
        <time>2016-05-07T10:12:49Z</time>
      </trkpt>
      <trkpt lat="43.80034" lon="5.30289">
        <ele>572.935</ele>
        <time>2016-05-07T10:12:56Z</time>
      </trkpt>
      <trkpt lat="43.80035" lon="5.3029">
        <ele>573.358</ele>
        <time>2016-05-07T10:13:04Z</time>
      </trkpt>
      <trkpt lat="43.80035" lon="5.3029">
        <ele>572.915</ele>
        <time>2016-05-07T10:13:17Z</time>
      </trkpt>
      <trkpt lat="43.80036" lon="5.3029">
        <ele>571.071</ele>
        <time>2016-05-07T10:13:32Z</time>
      </trkpt>
      <trkpt lat="43.80035" lon="5.30288">
        <ele>572.52</ele>
        <time>2016-05-07T10:13:57Z</time>
      </trkpt>
      <trkpt lat="43.80033" lon="5.30287">
        <ele>571.809</ele>
        <time>2016-05-07T10:13:59Z</time>
      </trkpt>
      <trkpt lat="43.80028" lon="5.30283">
        <ele>571.227</ele>
        <time>2016-05-07T10:14:06Z</time>
      </trkpt>
      <trkpt lat="43.80023" lon="5.30276">
        <ele>567.928</ele>
        <time>2016-05-07T10:14:13Z</time>
      </trkpt>
      <trkpt lat="43.80019" lon="5.3027">
        <ele>568.833</ele>
        <time>2016-05-07T10:14:19Z</time>
      </trkpt>
      <trkpt lat="43.80011" lon="5.3026">
        <ele>569.573</ele>
        <time>2016-05-07T10:14:26Z</time>
      </trkpt>
      <trkpt lat="43.80006" lon="5.30254">
        <ele>569.705</ele>
        <time>2016-05-07T10:14:32Z</time>
      </trkpt>
      <trkpt lat="43.80002" lon="5.30243">
        <ele>571.87</ele>
        <time>2016-05-07T10:14:38Z</time>
      </trkpt>
      <trkpt lat="43.80001" lon="5.30234">
        <ele>571.939</ele>
        <time>2016-05-07T10:14:43Z</time>
      </trkpt>
      <trkpt lat="43.80002" lon="5.30227">
        <ele>570.945</ele>
        <time>2016-05-07T10:14:48Z</time>
      </trkpt>
      <trkpt lat="43.8" lon="5.30218">
        <ele>569.625</ele>
        <time>2016-05-07T10:14:55Z</time>
      </trkpt>
      <trkpt lat="43.79995" lon="5.30216">
        <ele>568.375</ele>
        <time>2016-05-07T10:15:00Z</time>
      </trkpt>
      <trkpt lat="43.79992" lon="5.30218">
        <ele>568.588</ele>
        <time>2016-05-07T10:15:06Z</time>
      </trkpt>
      <trkpt lat="43.7999" lon="5.30215">
        <ele>568.776</ele>
        <time>2016-05-07T10:15:10Z</time>
      </trkpt>
      <trkpt lat="43.79986" lon="5.3021">
        <ele>562.483</ele>
        <time>2016-05-07T10:15:17Z</time>
      </trkpt>
      <trkpt lat="43.79985" lon="5.30208">
        <ele>556.779</ele>
        <time>2016-05-07T10:15:22Z</time>
      </trkpt>
      <trkpt lat="43.79982" lon="5.30205">
        <ele>557.9</ele>
        <time>2016-05-07T10:15:29Z</time>
      </trkpt>
      <trkpt lat="43.79982" lon="5.30194">
        <ele>559.721</ele>
        <time>2016-05-07T10:16:01Z</time>
      </trkpt>
      <trkpt lat="43.79984" lon="5.30191">
        <ele>555.954</ele>
        <time>2016-05-07T10:16:06Z</time>
      </trkpt>
      <trkpt lat="43.79985" lon="5.30187">
        <ele>554.065</ele>
        <time>2016-05-07T10:16:09Z</time>
      </trkpt>
      <trkpt lat="43.79988" lon="5.30167">
        <ele>555.391</ele>
        <time>2016-05-07T10:16:20Z</time>
      </trkpt>
      <trkpt lat="43.7999" lon="5.30157">
        <ele>554.28</ele>
        <time>2016-05-07T10:16:27Z</time>
      </trkpt>
      <trkpt lat="43.79989" lon="5.30151">
        <ele>557.935</ele>
        <time>2016-05-07T10:16:34Z</time>
      </trkpt>
      <trkpt lat="43.7999" lon="5.30148">
        <ele>557.084</ele>
        <time>2016-05-07T10:16:41Z</time>
      </trkpt>
      <trkpt lat="43.79994" lon="5.30149">
        <ele>555.029</ele>
        <time>2016-05-07T10:16:56Z</time>
      </trkpt>
      <trkpt lat="43.79992" lon="5.30155">
        <ele>555.972</ele>
        <time>2016-05-07T10:17:05Z</time>
      </trkpt>
      <trkpt lat="43.7999" lon="5.30151">
        <ele>562.282</ele>
        <time>2016-05-07T10:19:04Z</time>
      </trkpt>
      <trkpt lat="43.79992" lon="5.30144">
        <ele>561.051</ele>
        <time>2016-05-07T10:19:12Z</time>
      </trkpt>
      <trkpt lat="43.79998" lon="5.30136">
        <ele>560.808</ele>
        <time>2016-05-07T10:19:20Z</time>
      </trkpt>
      <trkpt lat="43.8001" lon="5.30136">
        <ele>559.851</ele>
        <time>2016-05-07T10:19:29Z</time>
      </trkpt>
      <trkpt lat="43.80018" lon="5.30137">
        <ele>557.327</ele>
        <time>2016-05-07T10:19:37Z</time>
      </trkpt>
      <trkpt lat="43.80023" lon="5.30138">
        <ele>550.162</ele>
        <time>2016-05-07T10:19:45Z</time>
      </trkpt>
      <trkpt lat="43.80026" lon="5.30138">
        <ele>545.55</ele>
        <time>2016-05-07T10:19:50Z</time>
      </trkpt>
      <trkpt lat="43.80034" lon="5.3014">
        <ele>543.974</ele>
        <time>2016-05-07T10:19:57Z</time>
      </trkpt>
      <trkpt lat="43.80043" lon="5.30141">
        <ele>547.637</ele>
        <time>2016-05-07T10:20:05Z</time>
      </trkpt>
      <trkpt lat="43.80046" lon="5.30142">
        <ele>548.403</ele>
        <time>2016-05-07T10:20:08Z</time>
      </trkpt>
      <trkpt lat="43.80054" lon="5.30142">
        <ele>546.429</ele>
        <time>2016-05-07T10:20:14Z</time>
      </trkpt>
      <trkpt lat="43.80061" lon="5.30145">
        <ele>547.572</ele>
        <time>2016-05-07T10:20:21Z</time>
      </trkpt>
      <trkpt lat="43.80067" lon="5.30146">
        <ele>546.391</ele>
        <time>2016-05-07T10:20:28Z</time>
      </trkpt>
      <trkpt lat="43.80075" lon="5.30143">
        <ele>550.016</ele>
        <time>2016-05-07T10:20:35Z</time>
      </trkpt>
      <trkpt lat="43.8008" lon="5.30137">
        <ele>546.497</ele>
        <time>2016-05-07T10:20:43Z</time>
      </trkpt>
      <trkpt lat="43.80085" lon="5.30132">
        <ele>543.456</ele>
        <time>2016-05-07T10:20:49Z</time>
      </trkpt>
      <trkpt lat="43.80092" lon="5.30127">
        <ele>542.456</ele>
        <time>2016-05-07T10:20:57Z</time>
      </trkpt>
      <trkpt lat="43.80096" lon="5.30124">
        <ele>536.967</ele>
        <time>2016-05-07T10:21:03Z</time>
      </trkpt>
      <trkpt lat="43.80101" lon="5.30122">
        <ele>535.714</ele>
        <time>2016-05-07T10:21:09Z</time>
      </trkpt>
      <trkpt lat="43.80107" lon="5.30121">
        <ele>536.385</ele>
        <time>2016-05-07T10:21:15Z</time>
      </trkpt>
      <trkpt lat="43.80117" lon="5.30119">
        <ele>534.635</ele>
        <time>2016-05-07T10:21:23Z</time>
      </trkpt>
      <trkpt lat="43.80124" lon="5.30119">
        <ele>533.196</ele>
        <time>2016-05-07T10:21:29Z</time>
      </trkpt>
      <trkpt lat="43.80129" lon="5.30118">
        <ele>532.276</ele>
        <time>2016-05-07T10:21:33Z</time>
      </trkpt>
      <trkpt lat="43.80133" lon="5.30116">
        <ele>530.456</ele>
        <time>2016-05-07T10:21:37Z</time>
      </trkpt>
      <trkpt lat="43.80142" lon="5.30116">
        <ele>534.017</ele>
        <time>2016-05-07T10:21:42Z</time>
      </trkpt>
      <trkpt lat="43.8015" lon="5.30116">
        <ele>530.64</ele>
        <time>2016-05-07T10:21:48Z</time>
      </trkpt>
      <trkpt lat="43.80151" lon="5.30116">
        <ele>530.551</ele>
        <time>2016-05-07T10:21:49Z</time>
      </trkpt>
      <trkpt lat="43.80157" lon="5.30114">
        <ele>529.617</ele>
        <time>2016-05-07T10:21:56Z</time>
      </trkpt>
      <trkpt lat="43.80166" lon="5.30115">
        <ele>529.128</ele>
        <time>2016-05-07T10:22:02Z</time>
      </trkpt>
      <trkpt lat="43.80176" lon="5.30115">
        <ele>531.621</ele>
        <time>2016-05-07T10:22:11Z</time>
      </trkpt>
      <trkpt lat="43.80182" lon="5.30113">
        <ele>530.639</ele>
        <time>2016-05-07T10:22:18Z</time>
      </trkpt>
      <trkpt lat="43.80188" lon="5.30111">
        <ele>530.919</ele>
        <time>2016-05-07T10:22:25Z</time>
      </trkpt>
      <trkpt lat="43.80193" lon="5.30111">
        <ele>527.856</ele>
        <time>2016-05-07T10:22:32Z</time>
      </trkpt>
      <trkpt lat="43.80194" lon="5.30112">
        <ele>527.225</ele>
        <time>2016-05-07T10:22:33Z</time>
      </trkpt>
      <trkpt lat="43.80201" lon="5.30116">
        <ele>522.19</ele>
        <time>2016-05-07T10:22:42Z</time>
      </trkpt>
      <trkpt lat="43.80207" lon="5.30121">
        <ele>517.359</ele>
        <time>2016-05-07T10:22:50Z</time>
      </trkpt>
      <trkpt lat="43.80213" lon="5.30124">
        <ele>513.983</ele>
        <time>2016-05-07T10:22:57Z</time>
      </trkpt>
      <trkpt lat="43.80219" lon="5.30124">
        <ele>511.931</ele>
        <time>2016-05-07T10:23:03Z</time>
      </trkpt>
      <trkpt lat="43.80225" lon="5.30127">
        <ele>512.604</ele>
        <time>2016-05-07T10:23:09Z</time>
      </trkpt>
      <trkpt lat="43.80234" lon="5.3013">
        <ele>517.162</ele>
        <time>2016-05-07T10:23:16Z</time>
      </trkpt>
      <trkpt lat="43.80238" lon="5.30129">
        <ele>512.195</ele>
        <time>2016-05-07T10:23:22Z</time>
      </trkpt>
      <trkpt lat="43.80244" lon="5.30127">
        <ele>515.512</ele>
        <time>2016-05-07T10:23:26Z</time>
      </trkpt>
      <trkpt lat="43.80251" lon="5.30119">
        <ele>518.226</ele>
        <time>2016-05-07T10:23:31Z</time>
      </trkpt>
      <trkpt lat="43.8026" lon="5.3011">
        <ele>520.484</ele>
        <time>2016-05-07T10:23:38Z</time>
      </trkpt>
      <trkpt lat="43.80262" lon="5.30107">
        <ele>520.284</ele>
        <time>2016-05-07T10:23:41Z</time>
      </trkpt>
      <trkpt lat="43.80262" lon="5.30104">
        <ele>519.473</ele>
        <time>2016-05-07T10:23:43Z</time>
      </trkpt>
      <trkpt lat="43.80259" lon="5.30101">
        <ele>520.035</ele>
        <time>2016-05-07T10:23:50Z</time>
      </trkpt>
      <trkpt lat="43.80254" lon="5.30102">
        <ele>519.919</ele>
        <time>2016-05-07T10:23:56Z</time>
      </trkpt>
      <trkpt lat="43.80252" lon="5.30102">
        <ele>520.522</ele>
        <time>2016-05-07T10:24:00Z</time>
      </trkpt>
      <trkpt lat="43.80249" lon="5.30106">
        <ele>518.035</ele>
        <time>2016-05-07T10:24:03Z</time>
      </trkpt>
      <trkpt lat="43.80247" lon="5.30108">
        <ele>515.762</ele>
        <time>2016-05-07T10:24:06Z</time>
      </trkpt>
      <trkpt lat="43.80244" lon="5.30108">
        <ele>514.533</ele>
        <time>2016-05-07T10:24:10Z</time>
      </trkpt>
      <trkpt lat="43.80236" lon="5.30103">
        <ele>512.653</ele>
        <time>2016-05-07T10:24:18Z</time>
      </trkpt>
      <trkpt lat="43.80233" lon="5.30101">
        <ele>511.776</ele>
        <time>2016-05-07T10:24:21Z</time>
      </trkpt>
      <trkpt lat="43.80231" lon="5.30096">
        <ele>513.723</ele>
        <time>2016-05-07T10:24:25Z</time>
      </trkpt>
      <trkpt lat="43.8023" lon="5.30095">
        <ele>514.875</ele>
        <time>2016-05-07T10:24:27Z</time>
      </trkpt>
      <trkpt lat="43.80224" lon="5.30088">
        <ele>513.449</ele>
        <time>2016-05-07T10:24:33Z</time>
      </trkpt>
      <trkpt lat="43.80221" lon="5.30085">
        <ele>513.613</ele>
        <time>2016-05-07T10:24:40Z</time>
      </trkpt>
      <trkpt lat="43.8022" lon="5.30084">
        <ele>513.29</ele>
        <time>2016-05-07T10:24:42Z</time>
      </trkpt>
      <trkpt lat="43.80216" lon="5.30082">
        <ele>514.703</ele>
        <time>2016-05-07T10:24:44Z</time>
      </trkpt>
      <trkpt lat="43.80208" lon="5.30076">
        <ele>513.353</ele>
        <time>2016-05-07T10:24:52Z</time>
      </trkpt>
      <trkpt lat="43.80202" lon="5.30069">
        <ele>514.86</ele>
        <time>2016-05-07T10:24:59Z</time>
      </trkpt>
      <trkpt lat="43.80201" lon="5.30068">
        <ele>515.061</ele>
        <time>2016-05-07T10:25:00Z</time>
      </trkpt>
      <trkpt lat="43.80194" lon="5.30062">
        <ele>514.334</ele>
        <time>2016-05-07T10:25:06Z</time>
      </trkpt>
      <trkpt lat="43.8019" lon="5.30058">
        <ele>514.574</ele>
        <time>2016-05-07T10:25:11Z</time>
      </trkpt>
      <trkpt lat="43.80184" lon="5.30057">
        <ele>513.392</ele>
        <time>2016-05-07T10:25:17Z</time>
      </trkpt>
      <trkpt lat="43.80182" lon="5.30057">
        <ele>511.488</ele>
        <time>2016-05-07T10:25:21Z</time>
      </trkpt>
      <trkpt lat="43.8018" lon="5.30056">
        <ele>511.429</ele>
        <time>2016-05-07T10:25:22Z</time>
      </trkpt>
      <trkpt lat="43.80178" lon="5.30055">
        <ele>511.811</ele>
        <time>2016-05-07T10:25:25Z</time>
      </trkpt>
      <trkpt lat="43.80174" lon="5.30056">
        <ele>509.826</ele>
        <time>2016-05-07T10:25:29Z</time>
      </trkpt>
      <trkpt lat="43.80166" lon="5.30052">
        <ele>510.967</ele>
        <time>2016-05-07T10:25:35Z</time>
      </trkpt>
      <trkpt lat="43.8016" lon="5.30051">
        <ele>506.331</ele>
        <time>2016-05-07T10:25:43Z</time>
      </trkpt>
      <trkpt lat="43.80155" lon="5.30049">
        <ele>501.36</ele>
        <time>2016-05-07T10:25:50Z</time>
      </trkpt>
      <trkpt lat="43.80149" lon="5.30048">
        <ele>502.415</ele>
        <time>2016-05-07T10:25:56Z</time>
      </trkpt>
      <trkpt lat="43.80147" lon="5.30048">
        <ele>502.996</ele>
        <time>2016-05-07T10:25:58Z</time>
      </trkpt>
      <trkpt lat="43.8014" lon="5.30045">
        <ele>503.534</ele>
        <time>2016-05-07T10:26:04Z</time>
      </trkpt>
      <trkpt lat="43.80131" lon="5.30042">
        <ele>506.899</ele>
        <time>2016-05-07T10:26:10Z</time>
      </trkpt>
      <trkpt lat="43.8012" lon="5.30036">
        <ele>515.429</ele>
        <time>2016-05-07T10:26:18Z</time>
      </trkpt>
      <trkpt lat="43.80112" lon="5.30034">
        <ele>515.685</ele>
        <time>2016-05-07T10:26:25Z</time>
      </trkpt>
      <trkpt lat="43.80103" lon="5.30033">
        <ele>517.856</ele>
        <time>2016-05-07T10:26:32Z</time>
      </trkpt>
      <trkpt lat="43.80095" lon="5.30033">
        <ele>517.526</ele>
        <time>2016-05-07T10:26:39Z</time>
      </trkpt>
      <trkpt lat="43.8009" lon="5.30033">
        <ele>515.441</ele>
        <time>2016-05-07T10:26:44Z</time>
      </trkpt>
      <trkpt lat="43.80085" lon="5.30035">
        <ele>507.96</ele>
        <time>2016-05-07T10:26:50Z</time>
      </trkpt>
      <trkpt lat="43.80078" lon="5.30037">
        <ele>501.86</ele>
        <time>2016-05-07T10:26:58Z</time>
      </trkpt>
      <trkpt lat="43.80075" lon="5.30036">
        <ele>502.334</ele>
        <time>2016-05-07T10:27:02Z</time>
      </trkpt>
      <trkpt lat="43.80065" lon="5.30036">
        <ele>505.35</ele>
        <time>2016-05-07T10:27:09Z</time>
      </trkpt>
      <trkpt lat="43.8006" lon="5.30038">
        <ele>503.277</ele>
        <time>2016-05-07T10:27:14Z</time>
      </trkpt>
      <trkpt lat="43.80051" lon="5.30037">
        <ele>503.811</ele>
        <time>2016-05-07T10:27:21Z</time>
      </trkpt>
      <trkpt lat="43.80043" lon="5.30038">
        <ele>502.344</ele>
        <time>2016-05-07T10:27:30Z</time>
      </trkpt>
      <trkpt lat="43.80038" lon="5.30034">
        <ele>498.623</ele>
        <time>2016-05-07T10:27:37Z</time>
      </trkpt>
      <trkpt lat="43.80031" lon="5.30032">
        <ele>501.139</ele>
        <time>2016-05-07T10:27:42Z</time>
      </trkpt>
      <trkpt lat="43.80025" lon="5.30028">
        <ele>497.463</ele>
        <time>2016-05-07T10:27:50Z</time>
      </trkpt>
      <trkpt lat="43.80017" lon="5.3002">
        <ele>495.11</ele>
        <time>2016-05-07T10:27:58Z</time>
      </trkpt>
      <trkpt lat="43.80011" lon="5.30009">
        <ele>492.013</ele>
        <time>2016-05-07T10:28:06Z</time>
      </trkpt>
      <trkpt lat="43.80007" lon="5.30002">
        <ele>494.03</ele>
        <time>2016-05-07T10:28:11Z</time>
      </trkpt>
      <trkpt lat="43.79999" lon="5.29995">
        <ele>495.241</ele>
        <time>2016-05-07T10:28:19Z</time>
      </trkpt>
      <trkpt lat="43.79991" lon="5.29992">
        <ele>496.541</ele>
        <time>2016-05-07T10:28:26Z</time>
      </trkpt>
      <trkpt lat="43.79983" lon="5.29989">
        <ele>494.71</ele>
        <time>2016-05-07T10:28:33Z</time>
      </trkpt>
      <trkpt lat="43.79977" lon="5.29985">
        <ele>490.833</ele>
        <time>2016-05-07T10:28:40Z</time>
      </trkpt>
      <trkpt lat="43.79973" lon="5.29986">
        <ele>493.623</ele>
        <time>2016-05-07T10:28:48Z</time>
      </trkpt>
      <trkpt lat="43.79968" lon="5.29984">
        <ele>491.897</ele>
        <time>2016-05-07T10:28:55Z</time>
      </trkpt>
      <trkpt lat="43.79961" lon="5.29984">
        <ele>480.483</ele>
        <time>2016-05-07T10:29:04Z</time>
      </trkpt>
      <trkpt lat="43.79956" lon="5.29987">
        <ele>476.977</ele>
        <time>2016-05-07T10:29:10Z</time>
      </trkpt>
      <trkpt lat="43.79948" lon="5.29991">
        <ele>477.336</ele>
        <time>2016-05-07T10:29:17Z</time>
      </trkpt>
      <trkpt lat="43.79942" lon="5.29992">
        <ele>479.478</ele>
        <time>2016-05-07T10:29:23Z</time>
      </trkpt>
      <trkpt lat="43.79932" lon="5.29995">
        <ele>478.404</ele>
        <time>2016-05-07T10:29:29Z</time>
      </trkpt>
      <trkpt lat="43.79928" lon="5.29999">
        <ele>476.291</ele>
        <time>2016-05-07T10:29:33Z</time>
      </trkpt>
      <trkpt lat="43.79921" lon="5.30005">
        <ele>473.992</ele>
        <time>2016-05-07T10:29:39Z</time>
      </trkpt>
      <trkpt lat="43.79919" lon="5.30007">
        <ele>475.006</ele>
        <time>2016-05-07T10:29:41Z</time>
      </trkpt>
      <trkpt lat="43.79913" lon="5.30011">
        <ele>478.154</ele>
        <time>2016-05-07T10:29:45Z</time>
      </trkpt>
      <trkpt lat="43.79899" lon="5.30021">
        <ele>485.395</ele>
        <time>2016-05-07T10:29:54Z</time>
      </trkpt>
      <trkpt lat="43.79893" lon="5.30028">
        <ele>486.971</ele>
        <time>2016-05-07T10:30:01Z</time>
      </trkpt>
      <trkpt lat="43.79892" lon="5.30029">
        <ele>487.182</ele>
        <time>2016-05-07T10:30:02Z</time>
      </trkpt>
      <trkpt lat="43.79888" lon="5.30035">
        <ele>485.277</ele>
        <time>2016-05-07T10:30:08Z</time>
      </trkpt>
      <trkpt lat="43.79885" lon="5.3004">
        <ele>478.989</ele>
        <time>2016-05-07T10:30:14Z</time>
      </trkpt>
      <trkpt lat="43.79881" lon="5.30049">
        <ele>478.016</ele>
        <time>2016-05-07T10:30:20Z</time>
      </trkpt>
      <trkpt lat="43.79878" lon="5.30056">
        <ele>476.985</ele>
        <time>2016-05-07T10:30:25Z</time>
      </trkpt>
      <trkpt lat="43.79878" lon="5.3006">
        <ele>476.152</ele>
        <time>2016-05-07T10:30:29Z</time>
      </trkpt>
      <trkpt lat="43.79877" lon="5.30063">
        <ele>476.651</ele>
        <time>2016-05-07T10:30:31Z</time>
      </trkpt>
      <trkpt lat="43.79874" lon="5.30067">
        <ele>475.979</ele>
        <time>2016-05-07T10:30:35Z</time>
      </trkpt>
      <trkpt lat="43.79872" lon="5.30073">
        <ele>475.297</ele>
        <time>2016-05-07T10:30:40Z</time>
      </trkpt>
      <trkpt lat="43.79869" lon="5.30083">
        <ele>471.602</ele>
        <time>2016-05-07T10:30:48Z</time>
      </trkpt>
      <trkpt lat="43.79864" lon="5.30093">
        <ele>469.875</ele>
        <time>2016-05-07T10:30:55Z</time>
      </trkpt>
      <trkpt lat="43.7986" lon="5.30099">
        <ele>470.259</ele>
        <time>2016-05-07T10:31:02Z</time>
      </trkpt>
      <trkpt lat="43.79856" lon="5.30104">
        <ele>475.212</ele>
        <time>2016-05-07T10:31:10Z</time>
      </trkpt>
      <trkpt lat="43.79855" lon="5.30112">
        <ele>477.234</ele>
        <time>2016-05-07T10:31:15Z</time>
      </trkpt>
      <trkpt lat="43.79853" lon="5.30115">
        <ele>478.295</ele>
        <time>2016-05-07T10:31:17Z</time>
      </trkpt>
      <trkpt lat="43.79847" lon="5.30118">
        <ele>482.178</ele>
        <time>2016-05-07T10:31:21Z</time>
      </trkpt>
      <trkpt lat="43.7984" lon="5.30124">
        <ele>474.822</ele>
        <time>2016-05-07T10:31:29Z</time>
      </trkpt>
      <trkpt lat="43.79836" lon="5.30127">
        <ele>475.167</ele>
        <time>2016-05-07T10:31:33Z</time>
      </trkpt>
      <trkpt lat="43.79829" lon="5.30133">
        <ele>476</ele>
        <time>2016-05-07T10:31:39Z</time>
      </trkpt>
      <trkpt lat="43.79818" lon="5.30136">
        <ele>471.709</ele>
        <time>2016-05-07T10:31:46Z</time>
      </trkpt>
      <trkpt lat="43.79813" lon="5.30138">
        <ele>474.502</ele>
        <time>2016-05-07T10:31:50Z</time>
      </trkpt>
      <trkpt lat="43.79807" lon="5.30138">
        <ele>473.531</ele>
        <time>2016-05-07T10:31:54Z</time>
      </trkpt>
      <trkpt lat="43.79797" lon="5.3014">
        <ele>473.652</ele>
        <time>2016-05-07T10:32:01Z</time>
      </trkpt>
      <trkpt lat="43.79796" lon="5.3014">
        <ele>474.667</ele>
        <time>2016-05-07T10:32:02Z</time>
      </trkpt>
      <trkpt lat="43.79787" lon="5.30138">
        <ele>476.497</ele>
        <time>2016-05-07T10:32:10Z</time>
      </trkpt>
      <trkpt lat="43.79781" lon="5.30137">
        <ele>478.887</ele>
        <time>2016-05-07T10:32:14Z</time>
      </trkpt>
      <trkpt lat="43.7977" lon="5.30133">
        <ele>482.626</ele>
        <time>2016-05-07T10:32:21Z</time>
      </trkpt>
      <trkpt lat="43.79763" lon="5.3013">
        <ele>478.071</ele>
        <time>2016-05-07T10:32:27Z</time>
      </trkpt>
      <trkpt lat="43.79752" lon="5.30128">
        <ele>473.09</ele>
        <time>2016-05-07T10:32:34Z</time>
      </trkpt>
      <trkpt lat="43.79746" lon="5.30125">
        <ele>466.965</ele>
        <time>2016-05-07T10:32:41Z</time>
      </trkpt>
      <trkpt lat="43.79737" lon="5.30124">
        <ele>467.812</ele>
        <time>2016-05-07T10:32:48Z</time>
      </trkpt>
      <trkpt lat="43.79729" lon="5.30124">
        <ele>468.004</ele>
        <time>2016-05-07T10:32:53Z</time>
      </trkpt>
      <trkpt lat="43.79718" lon="5.30124">
        <ele>470.457</ele>
        <time>2016-05-07T10:33:01Z</time>
      </trkpt>
      <trkpt lat="43.79708" lon="5.30123">
        <ele>472.507</ele>
        <time>2016-05-07T10:33:08Z</time>
      </trkpt>
      <trkpt lat="43.79704" lon="5.30121">
        <ele>473.422</ele>
        <time>2016-05-07T10:33:15Z</time>
      </trkpt>
      <trkpt lat="43.79699" lon="5.30113">
        <ele>474.618</ele>
        <time>2016-05-07T10:33:26Z</time>
      </trkpt>
      <trkpt lat="43.79692" lon="5.30112">
        <ele>472.992</ele>
        <time>2016-05-07T10:33:32Z</time>
      </trkpt>
      <trkpt lat="43.79687" lon="5.30111">
        <ele>468.415</ele>
        <time>2016-05-07T10:33:38Z</time>
      </trkpt>
      <trkpt lat="43.79681" lon="5.30102">
        <ele>465.88</ele>
        <time>2016-05-07T10:33:45Z</time>
      </trkpt>
      <trkpt lat="43.7968" lon="5.301">
        <ele>466.135</ele>
        <time>2016-05-07T10:33:47Z</time>
      </trkpt>
      <trkpt lat="43.79682" lon="5.30088">
        <ele>462.413</ele>
        <time>2016-05-07T10:33:54Z</time>
      </trkpt>
      <trkpt lat="43.79681" lon="5.30078">
        <ele>460.411</ele>
        <time>2016-05-07T10:34:00Z</time>
      </trkpt>
      <trkpt lat="43.79682" lon="5.30069">
        <ele>452.163</ele>
        <time>2016-05-07T10:34:08Z</time>
      </trkpt>
      <trkpt lat="43.7968" lon="5.30061">
        <ele>445.964</ele>
        <time>2016-05-07T10:34:15Z</time>
      </trkpt>
      <trkpt lat="43.79679" lon="5.3006">
        <ele>445.718</ele>
        <time>2016-05-07T10:34:17Z</time>
      </trkpt>
      <trkpt lat="43.79672" lon="5.30056">
        <ele>450.396</ele>
        <time>2016-05-07T10:34:24Z</time>
      </trkpt>
      <trkpt lat="43.79665" lon="5.30056">
        <ele>454.311</ele>
        <time>2016-05-07T10:34:30Z</time>
      </trkpt>
      <trkpt lat="43.79658" lon="5.30058">
        <ele>461.582</ele>
        <time>2016-05-07T10:34:37Z</time>
      </trkpt>
      <trkpt lat="43.79651" lon="5.30059">
        <ele>467.552</ele>
        <time>2016-05-07T10:34:43Z</time>
      </trkpt>
      <trkpt lat="43.79648" lon="5.3006">
        <ele>466.638</ele>
        <time>2016-05-07T10:34:45Z</time>
      </trkpt>
      <trkpt lat="43.79641" lon="5.30064">
        <ele>468.661</ele>
        <time>2016-05-07T10:34:50Z</time>
      </trkpt>
      <trkpt lat="43.79634" lon="5.30067">
        <ele>468.113</ele>
        <time>2016-05-07T10:34:55Z</time>
      </trkpt>
      <trkpt lat="43.79629" lon="5.30067">
        <ele>468.331</ele>
        <time>2016-05-07T10:34:57Z</time>
      </trkpt>
      <trkpt lat="43.79621" lon="5.30065">
        <ele>463.656</ele>
        <time>2016-05-07T10:35:02Z</time>
      </trkpt>
      <trkpt lat="43.79614" lon="5.30069">
        <ele>467.842</ele>
        <time>2016-05-07T10:35:07Z</time>
      </trkpt>
      <trkpt lat="43.79612" lon="5.30073">
        <ele>469.358</ele>
        <time>2016-05-07T10:35:10Z</time>
      </trkpt>
      <trkpt lat="43.79604" lon="5.30081">
        <ele>471.166</ele>
        <time>2016-05-07T10:35:18Z</time>
      </trkpt>
      <trkpt lat="43.79603" lon="5.30081">
        <ele>467.967</ele>
        <time>2016-05-07T10:35:19Z</time>
      </trkpt>
      <trkpt lat="43.79592" lon="5.30087">
        <ele>464.484</ele>
        <time>2016-05-07T10:35:26Z</time>
      </trkpt>
      <trkpt lat="43.79587" lon="5.30089">
        <ele>456.847</ele>
        <time>2016-05-07T10:35:31Z</time>
      </trkpt>
      <trkpt lat="43.79582" lon="5.30094">
        <ele>447.892</ele>
        <time>2016-05-07T10:35:37Z</time>
      </trkpt>
      <trkpt lat="43.79575" lon="5.30101">
        <ele>445.593</ele>
        <time>2016-05-07T10:35:44Z</time>
      </trkpt>
      <trkpt lat="43.79566" lon="5.30105">
        <ele>442.117</ele>
        <time>2016-05-07T10:35:50Z</time>
      </trkpt>
      <trkpt lat="43.79559" lon="5.30107">
        <ele>441.063</ele>
        <time>2016-05-07T10:35:56Z</time>
      </trkpt>
      <trkpt lat="43.79553" lon="5.30107">
        <ele>440.648</ele>
        <time>2016-05-07T10:36:01Z</time>
      </trkpt>
      <trkpt lat="43.79548" lon="5.30106">
        <ele>444.022</ele>
        <time>2016-05-07T10:36:03Z</time>
      </trkpt>
      <trkpt lat="43.79543" lon="5.30103">
        <ele>447.06</ele>
        <time>2016-05-07T10:36:06Z</time>
      </trkpt>
      <trkpt lat="43.79539" lon="5.30099">
        <ele>446.003</ele>
        <time>2016-05-07T10:36:09Z</time>
      </trkpt>
      <trkpt lat="43.79537" lon="5.30089">
        <ele>446.46</ele>
        <time>2016-05-07T10:36:14Z</time>
      </trkpt>
      <trkpt lat="43.79536" lon="5.30079">
        <ele>442.331</ele>
        <time>2016-05-07T10:36:20Z</time>
      </trkpt>
      <trkpt lat="43.79536" lon="5.30068">
        <ele>443.127</ele>
        <time>2016-05-07T10:36:26Z</time>
      </trkpt>
      <trkpt lat="43.79533" lon="5.30058">
        <ele>442.386</ele>
        <time>2016-05-07T10:36:31Z</time>
      </trkpt>
      <trkpt lat="43.79525" lon="5.30049">
        <ele>439.594</ele>
        <time>2016-05-07T10:36:36Z</time>
      </trkpt>
      <trkpt lat="43.79523" lon="5.30046">
        <ele>433.745</ele>
        <time>2016-05-07T10:36:42Z</time>
      </trkpt>
      <trkpt lat="43.79522" lon="5.30045">
        <ele>432.762</ele>
        <time>2016-05-07T10:36:43Z</time>
      </trkpt>
      <trkpt lat="43.7952" lon="5.30045">
        <ele>430.097</ele>
        <time>2016-05-07T10:36:50Z</time>
      </trkpt>
      <trkpt lat="43.79519" lon="5.30045">
        <ele>430.847</ele>
        <time>2016-05-07T10:36:51Z</time>
      </trkpt>
      <trkpt lat="43.79509" lon="5.30045">
        <ele>435.683</ele>
        <time>2016-05-07T10:36:56Z</time>
      </trkpt>
      <trkpt lat="43.79498" lon="5.3005">
        <ele>439.415</ele>
        <time>2016-05-07T10:37:03Z</time>
      </trkpt>
      <trkpt lat="43.7949" lon="5.30054">
        <ele>439.653</ele>
        <time>2016-05-07T10:37:08Z</time>
      </trkpt>
      <trkpt lat="43.79484" lon="5.30066">
        <ele>447.093</ele>
        <time>2016-05-07T10:37:16Z</time>
      </trkpt>
      <trkpt lat="43.79481" lon="5.30066">
        <ele>447.997</ele>
        <time>2016-05-07T10:37:29Z</time>
      </trkpt>
      <trkpt lat="43.79477" lon="5.30062">
        <ele>444.195</ele>
        <time>2016-05-07T10:37:44Z</time>
      </trkpt>
      <trkpt lat="43.79486" lon="5.30068">
        <ele>450.676</ele>
        <time>2016-05-07T10:38:01Z</time>
      </trkpt>
      <trkpt lat="43.79485" lon="5.30072">
        <ele>448.703</ele>
        <time>2016-05-07T10:38:07Z</time>
      </trkpt>
      <trkpt lat="43.79483" lon="5.30074">
        <ele>444.755</ele>
        <time>2016-05-07T10:38:10Z</time>
      </trkpt>
      <trkpt lat="43.79471" lon="5.30076">
        <ele>438.173</ele>
        <time>2016-05-07T10:38:18Z</time>
      </trkpt>
      <trkpt lat="43.79469" lon="5.30076">
        <ele>437.743</ele>
        <time>2016-05-07T10:38:19Z</time>
      </trkpt>
      <trkpt lat="43.7946" lon="5.30072">
        <ele>439.114</ele>
        <time>2016-05-07T10:38:25Z</time>
      </trkpt>
      <trkpt lat="43.79454" lon="5.30069">
        <ele>438.972</ele>
        <time>2016-05-07T10:38:32Z</time>
      </trkpt>
      <trkpt lat="43.7945" lon="5.30063">
        <ele>439.334</ele>
        <time>2016-05-07T10:38:37Z</time>
      </trkpt>
      <trkpt lat="43.79448" lon="5.30061">
        <ele>438.26</ele>
        <time>2016-05-07T10:38:39Z</time>
      </trkpt>
      <trkpt lat="43.79447" lon="5.30059">
        <ele>437.229</ele>
        <time>2016-05-07T10:38:41Z</time>
      </trkpt>
      <trkpt lat="43.79443" lon="5.30056">
        <ele>435.338</ele>
        <time>2016-05-07T10:38:45Z</time>
      </trkpt>
      <trkpt lat="43.79442" lon="5.30049">
        <ele>434.578</ele>
        <time>2016-05-07T10:38:50Z</time>
      </trkpt>
      <trkpt lat="43.79439" lon="5.30047">
        <ele>434.244</ele>
        <time>2016-05-07T10:38:53Z</time>
      </trkpt>
      <trkpt lat="43.79435" lon="5.30037">
        <ele>436.484</ele>
        <time>2016-05-07T10:38:59Z</time>
      </trkpt>
      <trkpt lat="43.79431" lon="5.30035">
        <ele>442.17</ele>
        <time>2016-05-07T10:39:04Z</time>
      </trkpt>
      <trkpt lat="43.79426" lon="5.30033">
        <ele>443.868</ele>
        <time>2016-05-07T10:39:10Z</time>
      </trkpt>
      <trkpt lat="43.79417" lon="5.30035">
        <ele>444.797</ele>
        <time>2016-05-07T10:39:17Z</time>
      </trkpt>
      <trkpt lat="43.79406" lon="5.30036">
        <ele>448.609</ele>
        <time>2016-05-07T10:39:26Z</time>
      </trkpt>
      <trkpt lat="43.79395" lon="5.30035">
        <ele>450.637</ele>
        <time>2016-05-07T10:39:32Z</time>
      </trkpt>
      <trkpt lat="43.79387" lon="5.30033">
        <ele>449.994</ele>
        <time>2016-05-07T10:39:36Z</time>
      </trkpt>
      <trkpt lat="43.79379" lon="5.30032">
        <ele>442.625</ele>
        <time>2016-05-07T10:39:42Z</time>
      </trkpt>
      <trkpt lat="43.79378" lon="5.30036">
        <ele>448.052</ele>
        <time>2016-05-07T10:39:47Z</time>
      </trkpt>
      <trkpt lat="43.7937" lon="5.30049">
        <ele>459.434</ele>
        <time>2016-05-07T10:39:56Z</time>
      </trkpt>
      <trkpt lat="43.79361" lon="5.30054">
        <ele>455.343</ele>
        <time>2016-05-07T10:40:04Z</time>
      </trkpt>
      <trkpt lat="43.79359" lon="5.30055">
        <ele>454.402</ele>
        <time>2016-05-07T10:40:05Z</time>
      </trkpt>
      <trkpt lat="43.79359" lon="5.30054">
        <ele>438.112</ele>
        <time>2016-05-07T10:40:11Z</time>
      </trkpt>
      <trkpt lat="43.79361" lon="5.30046">
        <ele>426.459</ele>
        <time>2016-05-07T10:40:22Z</time>
      </trkpt>
      <trkpt lat="43.79365" lon="5.30041">
        <ele>421.357</ele>
        <time>2016-05-07T10:40:29Z</time>
      </trkpt>
      <trkpt lat="43.79372" lon="5.30038">
        <ele>407.796</ele>
        <time>2016-05-07T10:40:37Z</time>
      </trkpt>
      <trkpt lat="43.79382" lon="5.30045">
        <ele>403.153</ele>
        <time>2016-05-07T10:40:45Z</time>
      </trkpt>
      <trkpt lat="43.79387" lon="5.30052">
        <ele>403.819</ele>
        <time>2016-05-07T10:40:50Z</time>
      </trkpt>
      <trkpt lat="43.79392" lon="5.30055">
        <ele>394.913</ele>
        <time>2016-05-07T10:40:55Z</time>
      </trkpt>
      <trkpt lat="43.79394" lon="5.30057">
        <ele>395.725</ele>
        <time>2016-05-07T10:40:57Z</time>
      </trkpt>
      <trkpt lat="43.79401" lon="5.30058">
        <ele>407.302</ele>
        <time>2016-05-07T10:41:05Z</time>
      </trkpt>
      <trkpt lat="43.79424" lon="5.3008">
        <ele>410.564</ele>
        <time>2016-05-07T10:41:25Z</time>
      </trkpt>
      <trkpt lat="43.7943" lon="5.30091">
        <ele>421.641</ele>
        <time>2016-05-07T10:41:33Z</time>
      </trkpt>
      <trkpt lat="43.79431" lon="5.30092">
        <ele>422.731</ele>
        <time>2016-05-07T10:41:34Z</time>
      </trkpt>
      <trkpt lat="43.79437" lon="5.30093">
        <ele>417.945</ele>
        <time>2016-05-07T10:41:41Z</time>
      </trkpt>
      <trkpt lat="43.7944" lon="5.30097">
        <ele>414.618</ele>
        <time>2016-05-07T10:41:48Z</time>
      </trkpt>
      <trkpt lat="43.79438" lon="5.301">
        <ele>414.662</ele>
        <time>2016-05-07T10:41:54Z</time>
      </trkpt>
      <trkpt lat="43.7943" lon="5.30093">
        <ele>418.997</ele>
        <time>2016-05-07T10:42:08Z</time>
      </trkpt>
      <trkpt lat="43.79424" lon="5.30098">
        <ele>415.839</ele>
        <time>2016-05-07T10:42:14Z</time>
      </trkpt>
      <trkpt lat="43.79423" lon="5.30102">
        <ele>409.271</ele>
        <time>2016-05-07T10:42:20Z</time>
      </trkpt>
      <trkpt lat="43.79422" lon="5.30103">
        <ele>413.059</ele>
        <time>2016-05-07T10:42:24Z</time>
      </trkpt>
      <trkpt lat="43.79405" lon="5.3011">
        <ele>418.207</ele>
        <time>2016-05-07T10:42:38Z</time>
      </trkpt>
      <trkpt lat="43.79391" lon="5.30108">
        <ele>419.735</ele>
        <time>2016-05-07T10:42:43Z</time>
      </trkpt>
      <trkpt lat="43.7939" lon="5.30108">
        <ele>419.965</ele>
        <time>2016-05-07T10:42:44Z</time>
      </trkpt>
      <trkpt lat="43.79386" lon="5.30112">
        <ele>423.346</ele>
        <time>2016-05-07T10:42:50Z</time>
      </trkpt>
      <trkpt lat="43.79382" lon="5.30119">
        <ele>438.737</ele>
        <time>2016-05-07T10:43:01Z</time>
      </trkpt>
      <trkpt lat="43.79376" lon="5.30118">
        <ele>433.464</ele>
        <time>2016-05-07T10:43:07Z</time>
      </trkpt>
      <trkpt lat="43.7937" lon="5.30121">
        <ele>427.177</ele>
        <time>2016-05-07T10:43:12Z</time>
      </trkpt>
      <trkpt lat="43.79361" lon="5.30119">
        <ele>400.84</ele>
        <time>2016-05-07T10:43:19Z</time>
      </trkpt>
      <trkpt lat="43.79353" lon="5.30121">
        <ele>398.324</ele>
        <time>2016-05-07T10:43:24Z</time>
      </trkpt>
      <trkpt lat="43.79348" lon="5.30119">
        <ele>388.341</ele>
        <time>2016-05-07T10:43:28Z</time>
      </trkpt>
      <trkpt lat="43.79342" lon="5.30121">
        <ele>376.288</ele>
        <time>2016-05-07T10:43:34Z</time>
      </trkpt>
      <trkpt lat="43.79337" lon="5.30128">
        <ele>377.663</ele>
        <time>2016-05-07T10:43:39Z</time>
      </trkpt>
      <trkpt lat="43.79335" lon="5.30137">
        <ele>380.173</ele>
        <time>2016-05-07T10:43:44Z</time>
      </trkpt>
      <trkpt lat="43.79328" lon="5.30149">
        <ele>378.493</ele>
        <time>2016-05-07T10:43:52Z</time>
      </trkpt>
      <trkpt lat="43.79323" lon="5.30156">
        <ele>379.829</ele>
        <time>2016-05-07T10:43:57Z</time>
      </trkpt>
      <trkpt lat="43.79322" lon="5.30157">
        <ele>379.459</ele>
        <time>2016-05-07T10:43:58Z</time>
      </trkpt>
      <trkpt lat="43.79319" lon="5.30159">
        <ele>380.82</ele>
        <time>2016-05-07T10:44:00Z</time>
      </trkpt>
      <trkpt lat="43.7931" lon="5.30156">
        <ele>381.449</ele>
        <time>2016-05-07T10:44:06Z</time>
      </trkpt>
      <trkpt lat="43.79309" lon="5.30154">
        <ele>381.562</ele>
        <time>2016-05-07T10:44:09Z</time>
      </trkpt>
      <trkpt lat="43.79306" lon="5.3015">
        <ele>382.053</ele>
        <time>2016-05-07T10:44:15Z</time>
      </trkpt>
      <trkpt lat="43.79299" lon="5.30152">
        <ele>384.515</ele>
        <time>2016-05-07T10:44:20Z</time>
      </trkpt>
      <trkpt lat="43.7929" lon="5.30159">
        <ele>386.089</ele>
        <time>2016-05-07T10:44:27Z</time>
      </trkpt>
      <trkpt lat="43.79285" lon="5.30161">
        <ele>385.004</ele>
        <time>2016-05-07T10:44:32Z</time>
      </trkpt>
      <trkpt lat="43.79281" lon="5.30163">
        <ele>390.752</ele>
        <time>2016-05-07T10:44:38Z</time>
      </trkpt>
      <trkpt lat="43.7928" lon="5.30163">
        <ele>389.698</ele>
        <time>2016-05-07T10:44:40Z</time>
      </trkpt>
      <trkpt lat="43.79276" lon="5.30163">
        <ele>392.201</ele>
        <time>2016-05-07T10:44:43Z</time>
      </trkpt>
      <trkpt lat="43.79271" lon="5.30163">
        <ele>396.485</ele>
        <time>2016-05-07T10:44:48Z</time>
      </trkpt>
      <trkpt lat="43.79269" lon="5.30166">
        <ele>398.145</ele>
        <time>2016-05-07T10:44:50Z</time>
      </trkpt>
      <trkpt lat="43.79262" lon="5.30165">
        <ele>389.348</ele>
        <time>2016-05-07T10:44:58Z</time>
      </trkpt>
      <trkpt lat="43.7926" lon="5.30165">
        <ele>387.956</ele>
        <time>2016-05-07T10:45:00Z</time>
      </trkpt>
      <trkpt lat="43.79253" lon="5.30162">
        <ele>383.551</ele>
        <time>2016-05-07T10:45:08Z</time>
      </trkpt>
      <trkpt lat="43.79244" lon="5.30158">
        <ele>384.791</ele>
        <time>2016-05-07T10:45:13Z</time>
      </trkpt>
      <trkpt lat="43.79233" lon="5.30152">
        <ele>383.059</ele>
        <time>2016-05-07T10:45:22Z</time>
      </trkpt>
      <trkpt lat="43.79222" lon="5.30146">
        <ele>385.406</ele>
        <time>2016-05-07T10:45:30Z</time>
      </trkpt>
      <trkpt lat="43.79216" lon="5.30145">
        <ele>388.577</ele>
        <time>2016-05-07T10:45:36Z</time>
      </trkpt>
      <trkpt lat="43.79209" lon="5.30138">
        <ele>386.207</ele>
        <time>2016-05-07T10:45:43Z</time>
      </trkpt>
      <trkpt lat="43.79207" lon="5.30131">
        <ele>382.029</ele>
        <time>2016-05-07T10:45:48Z</time>
      </trkpt>
      <trkpt lat="43.79198" lon="5.30126">
        <ele>383.667</ele>
        <time>2016-05-07T10:45:55Z</time>
      </trkpt>
      <trkpt lat="43.79192" lon="5.30126">
        <ele>383.374</ele>
        <time>2016-05-07T10:46:01Z</time>
      </trkpt>
      <trkpt lat="43.79191" lon="5.30125">
        <ele>382.142</ele>
        <time>2016-05-07T10:46:02Z</time>
      </trkpt>
      <trkpt lat="43.79177" lon="5.30123">
        <ele>383.539</ele>
        <time>2016-05-07T10:46:09Z</time>
      </trkpt>
      <trkpt lat="43.79174" lon="5.30122">
        <ele>383.659</ele>
        <time>2016-05-07T10:46:11Z</time>
      </trkpt>
      <trkpt lat="43.79161" lon="5.30126">
        <ele>390.94</ele>
        <time>2016-05-07T10:46:19Z</time>
      </trkpt>
      <trkpt lat="43.79159" lon="5.30126">
        <ele>389.174</ele>
        <time>2016-05-07T10:46:22Z</time>
      </trkpt>
      <trkpt lat="43.79153" lon="5.30124">
        <ele>388.382</ele>
        <time>2016-05-07T10:46:27Z</time>
      </trkpt>
      <trkpt lat="43.79149" lon="5.30122">
        <ele>389.162</ele>
        <time>2016-05-07T10:46:30Z</time>
      </trkpt>
      <trkpt lat="43.79142" lon="5.30119">
        <ele>390.832</ele>
        <time>2016-05-07T10:46:36Z</time>
      </trkpt>
      <trkpt lat="43.79136" lon="5.30119">
        <ele>388.295</ele>
        <time>2016-05-07T10:46:42Z</time>
      </trkpt>
      <trkpt lat="43.79126" lon="5.3012">
        <ele>388.589</ele>
        <time>2016-05-07T10:46:50Z</time>
      </trkpt>
      <trkpt lat="43.79121" lon="5.30119">
        <ele>387.799</ele>
        <time>2016-05-07T10:46:55Z</time>
      </trkpt>
      <trkpt lat="43.79118" lon="5.30117">
        <ele>388.641</ele>
        <time>2016-05-07T10:47:00Z</time>
      </trkpt>
      <trkpt lat="43.79111" lon="5.30116">
        <ele>387.679</ele>
        <time>2016-05-07T10:47:07Z</time>
      </trkpt>
      <trkpt lat="43.79105" lon="5.30114">
        <ele>386.321</ele>
        <time>2016-05-07T10:47:11Z</time>
      </trkpt>
      <trkpt lat="43.791" lon="5.30113">
        <ele>384.187</ele>
        <time>2016-05-07T10:47:15Z</time>
      </trkpt>
      <trkpt lat="43.7909" lon="5.3011">
        <ele>380.016</ele>
        <time>2016-05-07T10:47:21Z</time>
      </trkpt>
      <trkpt lat="43.79084" lon="5.30109">
        <ele>376.836</ele>
        <time>2016-05-07T10:47:26Z</time>
      </trkpt>
      <trkpt lat="43.7908" lon="5.3011">
        <ele>372.87</ele>
        <time>2016-05-07T10:47:30Z</time>
      </trkpt>
      <trkpt lat="43.79071" lon="5.3011">
        <ele>374.298</ele>
        <time>2016-05-07T10:47:36Z</time>
      </trkpt>
      <trkpt lat="43.79063" lon="5.30112">
        <ele>372.719</ele>
        <time>2016-05-07T10:47:42Z</time>
      </trkpt>
      <trkpt lat="43.79055" lon="5.30114">
        <ele>369.423</ele>
        <time>2016-05-07T10:47:48Z</time>
      </trkpt>
      <trkpt lat="43.79053" lon="5.30114">
        <ele>369.964</ele>
        <time>2016-05-07T10:47:49Z</time>
      </trkpt>
      <trkpt lat="43.79047" lon="5.30113">
        <ele>373.221</ele>
        <time>2016-05-07T10:47:55Z</time>
      </trkpt>
      <trkpt lat="43.79044" lon="5.30115">
        <ele>374.241</ele>
        <time>2016-05-07T10:47:57Z</time>
      </trkpt>
      <trkpt lat="43.79037" lon="5.30114">
        <ele>376.474</ele>
        <time>2016-05-07T10:48:02Z</time>
      </trkpt>
      <trkpt lat="43.79029" lon="5.30109">
        <ele>380.677</ele>
        <time>2016-05-07T10:48:08Z</time>
      </trkpt>
      <trkpt lat="43.79024" lon="5.30107">
        <ele>380.29</ele>
        <time>2016-05-07T10:48:14Z</time>
      </trkpt>
      <trkpt lat="43.79018" lon="5.30103">
        <ele>380.718</ele>
        <time>2016-05-07T10:48:20Z</time>
      </trkpt>
      <trkpt lat="43.79012" lon="5.301">
        <ele>380.807</ele>
        <time>2016-05-07T10:48:24Z</time>
      </trkpt>
      <trkpt lat="43.79007" lon="5.30097">
        <ele>378.131</ele>
        <time>2016-05-07T10:48:30Z</time>
      </trkpt>
      <trkpt lat="43.79001" lon="5.30099">
        <ele>376.496</ele>
        <time>2016-05-07T10:48:35Z</time>
      </trkpt>
      <trkpt lat="43.7899" lon="5.30099">
        <ele>378.659</ele>
        <time>2016-05-07T10:48:42Z</time>
      </trkpt>
      <trkpt lat="43.78985" lon="5.30099">
        <ele>371.218</ele>
        <time>2016-05-07T10:48:49Z</time>
      </trkpt>
      <trkpt lat="43.78979" lon="5.30094">
        <ele>373.185</ele>
        <time>2016-05-07T10:48:54Z</time>
      </trkpt>
      <trkpt lat="43.78968" lon="5.30087">
        <ele>373.673</ele>
        <time>2016-05-07T10:49:03Z</time>
      </trkpt>
      <trkpt lat="43.7896" lon="5.30083">
        <ele>372.517</ele>
        <time>2016-05-07T10:49:10Z</time>
      </trkpt>
      <trkpt lat="43.78947" lon="5.3008">
        <ele>377.213</ele>
        <time>2016-05-07T10:49:18Z</time>
      </trkpt>
      <trkpt lat="43.78941" lon="5.30072">
        <ele>372.985</ele>
        <time>2016-05-07T10:49:24Z</time>
      </trkpt>
      <trkpt lat="43.78933" lon="5.30064">
        <ele>368.315</ele>
        <time>2016-05-07T10:49:31Z</time>
      </trkpt>
      <trkpt lat="43.78926" lon="5.30057">
        <ele>363.77</ele>
        <time>2016-05-07T10:49:37Z</time>
      </trkpt>
      <trkpt lat="43.78915" lon="5.30053">
        <ele>361.669</ele>
        <time>2016-05-07T10:49:46Z</time>
      </trkpt>
      <trkpt lat="43.78908" lon="5.30054">
        <ele>366.549</ele>
        <time>2016-05-07T10:49:51Z</time>
      </trkpt>
      <trkpt lat="43.78901" lon="5.30056">
        <ele>365.553</ele>
        <time>2016-05-07T10:49:56Z</time>
      </trkpt>
      <trkpt lat="43.78897" lon="5.30057">
        <ele>360.003</ele>
        <time>2016-05-07T10:49:59Z</time>
      </trkpt>
      <trkpt lat="43.7889" lon="5.30062">
        <ele>357.654</ele>
        <time>2016-05-07T10:50:05Z</time>
      </trkpt>
      <trkpt lat="43.78883" lon="5.30067">
        <ele>355.536</ele>
        <time>2016-05-07T10:50:10Z</time>
      </trkpt>
      <trkpt lat="43.78883" lon="5.3007">
        <ele>351.921</ele>
        <time>2016-05-07T10:50:13Z</time>
      </trkpt>
      <trkpt lat="43.78881" lon="5.30075">
        <ele>350.293</ele>
        <time>2016-05-07T10:50:18Z</time>
      </trkpt>
      <trkpt lat="43.78879" lon="5.30079">
        <ele>351.49</ele>
        <time>2016-05-07T10:50:22Z</time>
      </trkpt>
      <trkpt lat="43.78867" lon="5.30089">
        <ele>356.696</ele>
        <time>2016-05-07T10:50:30Z</time>
      </trkpt>
      <trkpt lat="43.78863" lon="5.30091">
        <ele>359.099</ele>
        <time>2016-05-07T10:50:33Z</time>
      </trkpt>
      <trkpt lat="43.7885" lon="5.30099">
        <ele>354.148</ele>
        <time>2016-05-07T10:50:41Z</time>
      </trkpt>
      <trkpt lat="43.78842" lon="5.30103">
        <ele>356.901</ele>
        <time>2016-05-07T10:50:48Z</time>
      </trkpt>
      <trkpt lat="43.7883" lon="5.30102">
        <ele>358.812</ele>
        <time>2016-05-07T10:50:55Z</time>
      </trkpt>
      <trkpt lat="43.7883" lon="5.30103">
        <ele>358.231</ele>
        <time>2016-05-07T10:50:56Z</time>
      </trkpt>
      <trkpt lat="43.78828" lon="5.30106">
        <ele>351.592</ele>
        <time>2016-05-07T10:51:03Z</time>
      </trkpt>
      <trkpt lat="43.78831" lon="5.30102">
        <ele>351.107</ele>
        <time>2016-05-07T10:53:07Z</time>
      </trkpt>
      <trkpt lat="43.78834" lon="5.30109">
        <ele>350.306</ele>
        <time>2016-05-07T10:53:26Z</time>
      </trkpt>
      <trkpt lat="43.78823" lon="5.30104">
        <ele>344.763</ele>
        <time>2016-05-07T10:54:49Z</time>
      </trkpt>
      <trkpt lat="43.78829" lon="5.30106">
        <ele>342.53</ele>
        <time>2016-05-07T10:55:23Z</time>
      </trkpt>
      <trkpt lat="43.78824" lon="5.30099">
        <ele>351.711</ele>
        <time>2016-05-07T10:58:53Z</time>
      </trkpt>
      <trkpt lat="43.78811" lon="5.30101">
        <ele>329.873</ele>
        <time>2016-05-07T10:59:04Z</time>
      </trkpt>
      <trkpt lat="43.78806" lon="5.30101">
        <ele>324.842</ele>
        <time>2016-05-07T10:59:10Z</time>
      </trkpt>
      <trkpt lat="43.7881" lon="5.30097">
        <ele>332.395</ele>
        <time>2016-05-07T10:59:18Z</time>
      </trkpt>
      <trkpt lat="43.78813" lon="5.30091">
        <ele>338.991</ele>
        <time>2016-05-07T10:59:24Z</time>
      </trkpt>
      <trkpt lat="43.78826" lon="5.30112">
        <ele>359.563</ele>
        <time>2016-05-07T11:00:59Z</time>
      </trkpt>
      <trkpt lat="43.78832" lon="5.30108">
        <ele>355.054</ele>
        <time>2016-05-07T11:01:30Z</time>
      </trkpt>
      <trkpt lat="43.78834" lon="5.30091">
        <ele>353.688</ele>
        <time>2016-05-07T11:02:01Z</time>
      </trkpt>
      <trkpt lat="43.78831" lon="5.3009">
        <ele>356.198</ele>
        <time>2016-05-07T11:02:07Z</time>
      </trkpt>
      <trkpt lat="43.78831" lon="5.30107">
        <ele>398.485</ele>
        <time>2016-05-07T11:04:02Z</time>
      </trkpt>
      <trkpt lat="43.7882" lon="5.30104">
        <ele>386.265</ele>
        <time>2016-05-07T11:04:30Z</time>
      </trkpt>
      <trkpt lat="43.78826" lon="5.30106">
        <ele>369.935</ele>
        <time>2016-05-07T11:04:36Z</time>
      </trkpt>
      <trkpt lat="43.7883" lon="5.30104">
        <ele>356.473</ele>
        <time>2016-05-07T11:04:44Z</time>
      </trkpt>
      <trkpt lat="43.78823" lon="5.30094">
        <ele>347.636</ele>
        <time>2016-05-07T11:05:35Z</time>
      </trkpt>
      <trkpt lat="43.78823" lon="5.3009">
        <ele>351.883</ele>
        <time>2016-05-07T11:05:43Z</time>
      </trkpt>
      <trkpt lat="43.78829" lon="5.30072">
        <ele>365.781</ele>
        <time>2016-05-07T11:06:04Z</time>
      </trkpt>
      <trkpt lat="43.7883" lon="5.30071">
        <ele>368.079</ele>
        <time>2016-05-07T11:06:07Z</time>
      </trkpt>
      <trkpt lat="43.78833" lon="5.30068">
        <ele>366.562</ele>
        <time>2016-05-07T11:06:12Z</time>
      </trkpt>
      <trkpt lat="43.78833" lon="5.30062">
        <ele>368.379</ele>
        <time>2016-05-07T11:06:21Z</time>
      </trkpt>
      <trkpt lat="43.78816" lon="5.30057">
        <ele>374.433</ele>
        <time>2016-05-07T11:06:48Z</time>
      </trkpt>
      <trkpt lat="43.78811" lon="5.30053">
        <ele>375.181</ele>
        <time>2016-05-07T11:06:54Z</time>
      </trkpt>
      <trkpt lat="43.78818" lon="5.30036">
        <ele>367.822</ele>
        <time>2016-05-07T11:07:12Z</time>
      </trkpt>
      <trkpt lat="43.78829" lon="5.30027">
        <ele>367.237</ele>
        <time>2016-05-07T11:07:22Z</time>
      </trkpt>
      <trkpt lat="43.78825" lon="5.30013">
        <ele>385.295</ele>
        <time>2016-05-07T11:08:10Z</time>
      </trkpt>
      <trkpt lat="43.78835" lon="5.29992">
        <ele>394.058</ele>
        <time>2016-05-07T11:08:35Z</time>
      </trkpt>
      <trkpt lat="43.78837" lon="5.29989">
        <ele>392.587</ele>
        <time>2016-05-07T11:08:39Z</time>
      </trkpt>
      <trkpt lat="43.7884" lon="5.29991">
        <ele>397.584</ele>
        <time>2016-05-07T11:08:44Z</time>
      </trkpt>
      <trkpt lat="43.78838" lon="5.29982">
        <ele>389.972</ele>
        <time>2016-05-07T11:09:06Z</time>
      </trkpt>
      <trkpt lat="43.78837" lon="5.29976">
        <ele>388.214</ele>
        <time>2016-05-07T11:09:14Z</time>
      </trkpt>
      <trkpt lat="43.78832" lon="5.29973">
        <ele>391.14</ele>
        <time>2016-05-07T11:09:21Z</time>
      </trkpt>
      <trkpt lat="43.78829" lon="5.29974">
        <ele>391.685</ele>
        <time>2016-05-07T11:09:31Z</time>
      </trkpt>
      <trkpt lat="43.78828" lon="5.29966">
        <ele>400.995</ele>
        <time>2016-05-07T11:09:48Z</time>
      </trkpt>
      <trkpt lat="43.78829" lon="5.29966">
        <ele>400.705</ele>
        <time>2016-05-07T11:09:49Z</time>
      </trkpt>
      <trkpt lat="43.78835" lon="5.29961">
        <ele>402.525</ele>
        <time>2016-05-07T11:09:56Z</time>
      </trkpt>
      <trkpt lat="43.7884" lon="5.29956">
        <ele>395.022</ele>
        <time>2016-05-07T11:10:04Z</time>
      </trkpt>
      <trkpt lat="43.78844" lon="5.29954">
        <ele>389.01</ele>
        <time>2016-05-07T11:10:11Z</time>
      </trkpt>
      <trkpt lat="43.78843" lon="5.2995">
        <ele>397.397</ele>
        <time>2016-05-07T11:10:20Z</time>
      </trkpt>
      <trkpt lat="43.78838" lon="5.29948">
        <ele>410.799</ele>
        <time>2016-05-07T11:10:27Z</time>
      </trkpt>
      <trkpt lat="43.78831" lon="5.2995">
        <ele>412.013</ele>
        <time>2016-05-07T11:10:34Z</time>
      </trkpt>
      <trkpt lat="43.78831" lon="5.29935">
        <ele>404.043</ele>
        <time>2016-05-07T11:10:45Z</time>
      </trkpt>
      <trkpt lat="43.78837" lon="5.2993">
        <ele>400.953</ele>
        <time>2016-05-07T11:10:53Z</time>
      </trkpt>
      <trkpt lat="43.78841" lon="5.29925">
        <ele>394.691</ele>
        <time>2016-05-07T11:11:02Z</time>
      </trkpt>
      <trkpt lat="43.78846" lon="5.29923">
        <ele>398.173</ele>
        <time>2016-05-07T11:11:17Z</time>
      </trkpt>
      <trkpt lat="43.7886" lon="5.29921">
        <ele>409.776</ele>
        <time>2016-05-07T11:11:27Z</time>
      </trkpt>
      <trkpt lat="43.78863" lon="5.29918">
        <ele>407.684</ele>
        <time>2016-05-07T11:11:35Z</time>
      </trkpt>
      <trkpt lat="43.7887" lon="5.29911">
        <ele>412.791</ele>
        <time>2016-05-07T11:11:49Z</time>
      </trkpt>
      <trkpt lat="43.78865" lon="5.2991">
        <ele>420.783</ele>
        <time>2016-05-07T11:11:57Z</time>
      </trkpt>
      <trkpt lat="43.78861" lon="5.29907">
        <ele>427.967</ele>
        <time>2016-05-07T11:12:04Z</time>
      </trkpt>
      <trkpt lat="43.78857" lon="5.29901">
        <ele>438.498</ele>
        <time>2016-05-07T11:12:12Z</time>
      </trkpt>
      <trkpt lat="43.7885" lon="5.29897">
        <ele>435.264</ele>
        <time>2016-05-07T11:12:18Z</time>
      </trkpt>
      <trkpt lat="43.78844" lon="5.2989">
        <ele>431.998</ele>
        <time>2016-05-07T11:12:26Z</time>
      </trkpt>
      <trkpt lat="43.78839" lon="5.29887">
        <ele>431.171</ele>
        <time>2016-05-07T11:12:30Z</time>
      </trkpt>
      <trkpt lat="43.78833" lon="5.29882">
        <ele>431.368</ele>
        <time>2016-05-07T11:12:37Z</time>
      </trkpt>
      <trkpt lat="43.78826" lon="5.29877">
        <ele>423.822</ele>
        <time>2016-05-07T11:12:45Z</time>
      </trkpt>
      <trkpt lat="43.78821" lon="5.29875">
        <ele>423.685</ele>
        <time>2016-05-07T11:12:51Z</time>
      </trkpt>
      <trkpt lat="43.78817" lon="5.29873">
        <ele>431.131</ele>
        <time>2016-05-07T11:12:58Z</time>
      </trkpt>
      <trkpt lat="43.78813" lon="5.29873">
        <ele>432.268</ele>
        <time>2016-05-07T11:13:03Z</time>
      </trkpt>
      <trkpt lat="43.78806" lon="5.2987">
        <ele>429.521</ele>
        <time>2016-05-07T11:13:08Z</time>
      </trkpt>
      <trkpt lat="43.78804" lon="5.29865">
        <ele>429.059</ele>
        <time>2016-05-07T11:13:15Z</time>
      </trkpt>
      <trkpt lat="43.78802" lon="5.29863">
        <ele>430.052</ele>
        <time>2016-05-07T11:13:28Z</time>
      </trkpt>
      <trkpt lat="43.78804" lon="5.29863">
        <ele>431.573</ele>
        <time>2016-05-07T11:13:40Z</time>
      </trkpt>
      <trkpt lat="43.78804" lon="5.29863">
        <ele>430.891</ele>
        <time>2016-05-07T11:13:48Z</time>
      </trkpt>
      <trkpt lat="43.78807" lon="5.29859">
        <ele>431.022</ele>
        <time>2016-05-07T11:13:55Z</time>
      </trkpt>
      <trkpt lat="43.78808" lon="5.29857">
        <ele>430.18</ele>
        <time>2016-05-07T11:13:57Z</time>
      </trkpt>
      <trkpt lat="43.78809" lon="5.29855">
        <ele>430.741</ele>
        <time>2016-05-07T11:14:00Z</time>
      </trkpt>
      <trkpt lat="43.78814" lon="5.29843">
        <ele>434.801</ele>
        <time>2016-05-07T11:14:10Z</time>
      </trkpt>
      <trkpt lat="43.78813" lon="5.29833">
        <ele>435.782</ele>
        <time>2016-05-07T11:14:16Z</time>
      </trkpt>
      <trkpt lat="43.78813" lon="5.29832">
        <ele>435.571</ele>
        <time>2016-05-07T11:14:17Z</time>
      </trkpt>
      <trkpt lat="43.78812" lon="5.2983">
        <ele>436.082</ele>
        <time>2016-05-07T11:14:19Z</time>
      </trkpt>
      <trkpt lat="43.78811" lon="5.2983">
        <ele>436.212</ele>
        <time>2016-05-07T11:14:21Z</time>
      </trkpt>
      <trkpt lat="43.78809" lon="5.2983">
        <ele>435.86</ele>
        <time>2016-05-07T11:14:26Z</time>
      </trkpt>
      <trkpt lat="43.78807" lon="5.29831">
        <ele>435.881</ele>
        <time>2016-05-07T11:14:35Z</time>
      </trkpt>
      <trkpt lat="43.78801" lon="5.29834">
        <ele>436.732</ele>
        <time>2016-05-07T11:14:41Z</time>
      </trkpt>
      <trkpt lat="43.788" lon="5.29834">
        <ele>437.022</ele>
        <time>2016-05-07T11:14:42Z</time>
      </trkpt>
      <trkpt lat="43.78798" lon="5.29835">
        <ele>438.256</ele>
        <time>2016-05-07T11:14:44Z</time>
      </trkpt>
      <trkpt lat="43.78793" lon="5.29837">
        <ele>440.004</ele>
        <time>2016-05-07T11:14:51Z</time>
      </trkpt>
      <trkpt lat="43.7879" lon="5.29838">
        <ele>440.192</ele>
        <time>2016-05-07T11:14:53Z</time>
      </trkpt>
      <trkpt lat="43.78782" lon="5.29837">
        <ele>440.322</ele>
        <time>2016-05-07T11:14:59Z</time>
      </trkpt>
      <trkpt lat="43.78777" lon="5.29834">
        <ele>441.734</ele>
        <time>2016-05-07T11:15:04Z</time>
      </trkpt>
      <trkpt lat="43.78771" lon="5.2983">
        <ele>442.885</ele>
        <time>2016-05-07T11:15:10Z</time>
      </trkpt>
      <trkpt lat="43.78764" lon="5.29821">
        <ele>440.817</ele>
        <time>2016-05-07T11:15:17Z</time>
      </trkpt>
      <trkpt lat="43.7876" lon="5.2981">
        <ele>438.846</ele>
        <time>2016-05-07T11:15:25Z</time>
      </trkpt>
      <trkpt lat="43.78756" lon="5.29809">
        <ele>438.638</ele>
        <time>2016-05-07T11:15:30Z</time>
      </trkpt>
      <trkpt lat="43.78753" lon="5.29812">
        <ele>437.986</ele>
        <time>2016-05-07T11:15:33Z</time>
      </trkpt>
      <trkpt lat="43.78747" lon="5.29807">
        <ele>438.23</ele>
        <time>2016-05-07T11:15:40Z</time>
      </trkpt>
      <trkpt lat="43.78739" lon="5.29803">
        <ele>435.305</ele>
        <time>2016-05-07T11:15:49Z</time>
      </trkpt>
      <trkpt lat="43.78735" lon="5.29799">
        <ele>435.706</ele>
        <time>2016-05-07T11:15:56Z</time>
      </trkpt>
      <trkpt lat="43.78736" lon="5.29797">
        <ele>436.818</ele>
        <time>2016-05-07T11:15:57Z</time>
      </trkpt>
      <trkpt lat="43.78735" lon="5.29792">
        <ele>438.961</ele>
        <time>2016-05-07T11:16:03Z</time>
      </trkpt>
      <trkpt lat="43.78734" lon="5.2979">
        <ele>437.695</ele>
        <time>2016-05-07T11:16:20Z</time>
      </trkpt>
      <trkpt lat="43.78735" lon="5.2979">
        <ele>438.889</ele>
        <time>2016-05-07T11:16:27Z</time>
      </trkpt>
      <trkpt lat="43.78735" lon="5.2979">
        <ele>435.059</ele>
        <time>2016-05-07T11:16:35Z</time>
      </trkpt>
      <trkpt lat="43.78737" lon="5.29787">
        <ele>428.222</ele>
        <time>2016-05-07T11:17:09Z</time>
      </trkpt>
      <trkpt lat="43.78744" lon="5.29785">
        <ele>424.732</ele>
        <time>2016-05-07T11:17:16Z</time>
      </trkpt>
      <trkpt lat="43.7875" lon="5.29782">
        <ele>428.502</ele>
        <time>2016-05-07T11:17:23Z</time>
      </trkpt>
      <trkpt lat="43.78753" lon="5.29782">
        <ele>423.165</ele>
        <time>2016-05-07T11:17:30Z</time>
      </trkpt>
      <trkpt lat="43.78756" lon="5.29776">
        <ele>419.14</ele>
        <time>2016-05-07T11:17:38Z</time>
      </trkpt>
      <trkpt lat="43.78756" lon="5.29775">
        <ele>417.968</ele>
        <time>2016-05-07T11:17:39Z</time>
      </trkpt>
      <trkpt lat="43.78755" lon="5.29772">
        <ele>418.845</ele>
        <time>2016-05-07T11:17:45Z</time>
      </trkpt>
      <trkpt lat="43.78751" lon="5.2977">
        <ele>414.931</ele>
        <time>2016-05-07T11:17:51Z</time>
      </trkpt>
      <trkpt lat="43.78746" lon="5.29766">
        <ele>412.493</ele>
        <time>2016-05-07T11:17:58Z</time>
      </trkpt>
      <trkpt lat="43.78739" lon="5.2976">
        <ele>410.904</ele>
        <time>2016-05-07T11:18:05Z</time>
      </trkpt>
      <trkpt lat="43.78731" lon="5.2976">
        <ele>406.451</ele>
        <time>2016-05-07T11:18:12Z</time>
      </trkpt>
      <trkpt lat="43.78723" lon="5.29757">
        <ele>403.89</ele>
        <time>2016-05-07T11:18:19Z</time>
      </trkpt>
      <trkpt lat="43.7872" lon="5.29753">
        <ele>401.537</ele>
        <time>2016-05-07T11:18:23Z</time>
      </trkpt>
      <trkpt lat="43.78713" lon="5.29745">
        <ele>399.6</ele>
        <time>2016-05-07T11:18:29Z</time>
      </trkpt>
      <trkpt lat="43.78711" lon="5.29735">
        <ele>399.09</ele>
        <time>2016-05-07T11:18:36Z</time>
      </trkpt>
      <trkpt lat="43.78713" lon="5.29733">
        <ele>397.318</ele>
        <time>2016-05-07T11:18:39Z</time>
      </trkpt>
      <trkpt lat="43.78721" lon="5.2973">
        <ele>397.334</ele>
        <time>2016-05-07T11:18:47Z</time>
      </trkpt>
      <trkpt lat="43.78726" lon="5.29726">
        <ele>397.716</ele>
        <time>2016-05-07T11:18:54Z</time>
      </trkpt>
      <trkpt lat="43.78726" lon="5.29724">
        <ele>396.174</ele>
        <time>2016-05-07T11:18:56Z</time>
      </trkpt>
      <trkpt lat="43.78727" lon="5.29719">
        <ele>394.551</ele>
        <time>2016-05-07T11:18:59Z</time>
      </trkpt>
      <trkpt lat="43.78727" lon="5.29719">
        <ele>393.301</ele>
        <time>2016-05-07T11:19:01Z</time>
      </trkpt>
      <trkpt lat="43.78732" lon="5.29717">
        <ele>388.664</ele>
        <time>2016-05-07T11:19:07Z</time>
      </trkpt>
      <trkpt lat="43.7874" lon="5.29713">
        <ele>384.726</ele>
        <time>2016-05-07T11:19:13Z</time>
      </trkpt>
      <trkpt lat="43.78745" lon="5.29711">
        <ele>380.724</ele>
        <time>2016-05-07T11:19:19Z</time>
      </trkpt>
      <trkpt lat="43.78751" lon="5.29709">
        <ele>374.569</ele>
        <time>2016-05-07T11:19:26Z</time>
      </trkpt>
      <trkpt lat="43.78755" lon="5.29705">
        <ele>373.995</ele>
        <time>2016-05-07T11:19:30Z</time>
      </trkpt>
      <trkpt lat="43.78757" lon="5.29699">
        <ele>369.202</ele>
        <time>2016-05-07T11:19:36Z</time>
      </trkpt>
      <trkpt lat="43.78761" lon="5.29693">
        <ele>368.528</ele>
        <time>2016-05-07T11:19:41Z</time>
      </trkpt>
      <trkpt lat="43.78765" lon="5.29685">
        <ele>366.448</ele>
        <time>2016-05-07T11:19:47Z</time>
      </trkpt>
      <trkpt lat="43.78767" lon="5.29679">
        <ele>376.475</ele>
        <time>2016-05-07T11:19:58Z</time>
      </trkpt>
      <trkpt lat="43.78764" lon="5.29678">
        <ele>374.861</ele>
        <time>2016-05-07T11:20:00Z</time>
      </trkpt>
      <trkpt lat="43.78761" lon="5.29674">
        <ele>371.663</ele>
        <time>2016-05-07T11:20:06Z</time>
      </trkpt>
      <trkpt lat="43.7876" lon="5.29672">
        <ele>370.256</ele>
        <time>2016-05-07T11:20:09Z</time>
      </trkpt>
      <trkpt lat="43.78762" lon="5.29667">
        <ele>363.995</ele>
        <time>2016-05-07T11:20:15Z</time>
      </trkpt>
      <trkpt lat="43.78766" lon="5.29659">
        <ele>365.842</ele>
        <time>2016-05-07T11:20:20Z</time>
      </trkpt>
      <trkpt lat="43.78768" lon="5.29657">
        <ele>366.682</ele>
        <time>2016-05-07T11:20:22Z</time>
      </trkpt>
      <trkpt lat="43.78772" lon="5.29651">
        <ele>365.88</ele>
        <time>2016-05-07T11:20:26Z</time>
      </trkpt>
      <trkpt lat="43.78778" lon="5.29637">
        <ele>366.827</ele>
        <time>2016-05-07T11:20:34Z</time>
      </trkpt>
      <trkpt lat="43.78778" lon="5.29633">
        <ele>368.822</ele>
        <time>2016-05-07T11:20:41Z</time>
      </trkpt>
      <trkpt lat="43.7878" lon="5.2963">
        <ele>365.632</ele>
        <time>2016-05-07T11:21:03Z</time>
      </trkpt>
      <trkpt lat="43.78787" lon="5.29636">
        <ele>357.676</ele>
        <time>2016-05-07T11:21:21Z</time>
      </trkpt>
      <trkpt lat="43.78787" lon="5.29635">
        <ele>356.89</ele>
        <time>2016-05-07T11:21:26Z</time>
      </trkpt>
      <trkpt lat="43.78789" lon="5.29627">
        <ele>359.201</ele>
        <time>2016-05-07T11:21:46Z</time>
      </trkpt>
      <trkpt lat="43.78793" lon="5.29618">
        <ele>360.397</ele>
        <time>2016-05-07T11:21:54Z</time>
      </trkpt>
      <trkpt lat="43.78798" lon="5.29601">
        <ele>365.338</ele>
        <time>2016-05-07T11:22:02Z</time>
      </trkpt>
      <trkpt lat="43.78799" lon="5.29596">
        <ele>366.75</ele>
        <time>2016-05-07T11:22:05Z</time>
      </trkpt>
      <trkpt lat="43.78803" lon="5.2959">
        <ele>368.795</ele>
        <time>2016-05-07T11:22:09Z</time>
      </trkpt>
      <trkpt lat="43.78809" lon="5.29583">
        <ele>369.522</ele>
        <time>2016-05-07T11:22:14Z</time>
      </trkpt>
      <trkpt lat="43.78814" lon="5.29578">
        <ele>369.511</ele>
        <time>2016-05-07T11:22:20Z</time>
      </trkpt>
      <trkpt lat="43.78815" lon="5.29577">
        <ele>369.963</ele>
        <time>2016-05-07T11:22:21Z</time>
      </trkpt>
      <trkpt lat="43.7882" lon="5.29575">
        <ele>369.893</ele>
        <time>2016-05-07T11:22:26Z</time>
      </trkpt>
      <trkpt lat="43.78825" lon="5.29571">
        <ele>371.155</ele>
        <time>2016-05-07T11:22:30Z</time>
      </trkpt>
      <trkpt lat="43.7883" lon="5.29566">
        <ele>371.762</ele>
        <time>2016-05-07T11:22:35Z</time>
      </trkpt>
      <trkpt lat="43.7884" lon="5.29555">
        <ele>369.47</ele>
        <time>2016-05-07T11:22:45Z</time>
      </trkpt>
      <trkpt lat="43.78842" lon="5.29547">
        <ele>367.837</ele>
        <time>2016-05-07T11:22:51Z</time>
      </trkpt>
      <trkpt lat="43.78844" lon="5.29546">
        <ele>367.316</ele>
        <time>2016-05-07T11:22:52Z</time>
      </trkpt>
      <trkpt lat="43.78848" lon="5.29535">
        <ele>368.92</ele>
        <time>2016-05-07T11:23:01Z</time>
      </trkpt>
      <trkpt lat="43.78851" lon="5.2953">
        <ele>364.13</ele>
        <time>2016-05-07T11:23:08Z</time>
      </trkpt>
      <trkpt lat="43.78853" lon="5.29522">
        <ele>362.043</ele>
        <time>2016-05-07T11:23:16Z</time>
      </trkpt>
      <trkpt lat="43.7886" lon="5.29509">
        <ele>364.747</ele>
        <time>2016-05-07T11:23:24Z</time>
      </trkpt>
      <trkpt lat="43.78867" lon="5.29496">
        <ele>371.864</ele>
        <time>2016-05-07T11:23:30Z</time>
      </trkpt>
      <trkpt lat="43.7887" lon="5.29493">
        <ele>375.387</ele>
        <time>2016-05-07T11:23:32Z</time>
      </trkpt>
      <trkpt lat="43.78876" lon="5.29485">
        <ele>375.827</ele>
        <time>2016-05-07T11:23:41Z</time>
      </trkpt>
      <trkpt lat="43.78886" lon="5.2948">
        <ele>373.532</ele>
        <time>2016-05-07T11:23:49Z</time>
      </trkpt>
      <trkpt lat="43.78895" lon="5.29477">
        <ele>370.879</ele>
        <time>2016-05-07T11:23:57Z</time>
      </trkpt>
      <trkpt lat="43.78902" lon="5.2947">
        <ele>378.029</ele>
        <time>2016-05-07T11:24:05Z</time>
      </trkpt>
      <trkpt lat="43.78906" lon="5.29465">
        <ele>378.428</ele>
        <time>2016-05-07T11:24:12Z</time>
      </trkpt>
      <trkpt lat="43.78908" lon="5.29464">
        <ele>378.026</ele>
        <time>2016-05-07T11:24:14Z</time>
      </trkpt>
      <trkpt lat="43.78913" lon="5.29458">
        <ele>376.436</ele>
        <time>2016-05-07T11:24:19Z</time>
      </trkpt>
      <trkpt lat="43.78919" lon="5.29454">
        <ele>378.85</ele>
        <time>2016-05-07T11:24:22Z</time>
      </trkpt>
      <trkpt lat="43.78925" lon="5.29441">
        <ele>379.31</ele>
        <time>2016-05-07T11:24:31Z</time>
      </trkpt>
      <trkpt lat="43.78925" lon="5.29438">
        <ele>378.226</ele>
        <time>2016-05-07T11:24:33Z</time>
      </trkpt>
      <trkpt lat="43.78926" lon="5.29433">
        <ele>377.916</ele>
        <time>2016-05-07T11:24:37Z</time>
      </trkpt>
      <trkpt lat="43.78931" lon="5.29418">
        <ele>384.475</ele>
        <time>2016-05-07T11:24:45Z</time>
      </trkpt>
      <trkpt lat="43.78935" lon="5.29404">
        <ele>387.762</ele>
        <time>2016-05-07T11:24:53Z</time>
      </trkpt>
      <trkpt lat="43.78938" lon="5.294">
        <ele>387.271</ele>
        <time>2016-05-07T11:24:59Z</time>
      </trkpt>
      <trkpt lat="43.78946" lon="5.29394">
        <ele>398.664</ele>
        <time>2016-05-07T11:25:09Z</time>
      </trkpt>
      <trkpt lat="43.78952" lon="5.29386">
        <ele>400.13</ele>
        <time>2016-05-07T11:25:14Z</time>
      </trkpt>
      <trkpt lat="43.78958" lon="5.29378">
        <ele>405.581</ele>
        <time>2016-05-07T11:25:20Z</time>
      </trkpt>
      <trkpt lat="43.78967" lon="5.29372">
        <ele>408.425</ele>
        <time>2016-05-07T11:25:29Z</time>
      </trkpt>
      <trkpt lat="43.78974" lon="5.29366">
        <ele>403.031</ele>
        <time>2016-05-07T11:25:36Z</time>
      </trkpt>
      <trkpt lat="43.78976" lon="5.29364">
        <ele>394.715</ele>
        <time>2016-05-07T11:25:40Z</time>
      </trkpt>
      <trkpt lat="43.78983" lon="5.29359">
        <ele>389.29</ele>
        <time>2016-05-07T11:25:46Z</time>
      </trkpt>
      <trkpt lat="43.7899" lon="5.29356">
        <ele>385.162</ele>
        <time>2016-05-07T11:25:52Z</time>
      </trkpt>
      <trkpt lat="43.78994" lon="5.29356">
        <ele>381.719</ele>
        <time>2016-05-07T11:25:56Z</time>
      </trkpt>
      <trkpt lat="43.78997" lon="5.29355">
        <ele>380.523</ele>
        <time>2016-05-07T11:25:59Z</time>
      </trkpt>
      <trkpt lat="43.79003" lon="5.29349">
        <ele>376.962</ele>
        <time>2016-05-07T11:26:06Z</time>
      </trkpt>
      <trkpt lat="43.79006" lon="5.29345">
        <ele>381.67</ele>
        <time>2016-05-07T11:26:12Z</time>
      </trkpt>
      <trkpt lat="43.79008" lon="5.29333">
        <ele>385.518</ele>
        <time>2016-05-07T11:26:18Z</time>
      </trkpt>
      <trkpt lat="43.79008" lon="5.29324">
        <ele>386.978</ele>
        <time>2016-05-07T11:26:24Z</time>
      </trkpt>
      <trkpt lat="43.79007" lon="5.29311">
        <ele>388.182</ele>
        <time>2016-05-07T11:26:31Z</time>
      </trkpt>
      <trkpt lat="43.79008" lon="5.29308">
        <ele>387.901</ele>
        <time>2016-05-07T11:26:34Z</time>
      </trkpt>
      <trkpt lat="43.79009" lon="5.29297">
        <ele>387.856</ele>
        <time>2016-05-07T11:26:41Z</time>
      </trkpt>
      <trkpt lat="43.7901" lon="5.29288">
        <ele>388.069</ele>
        <time>2016-05-07T11:26:46Z</time>
      </trkpt>
      <trkpt lat="43.79011" lon="5.29287">
        <ele>388.591</ele>
        <time>2016-05-07T11:26:47Z</time>
      </trkpt>
      <trkpt lat="43.79012" lon="5.29278">
        <ele>389.736</ele>
        <time>2016-05-07T11:26:52Z</time>
      </trkpt>
      <trkpt lat="43.79014" lon="5.29273">
        <ele>389.616</ele>
        <time>2016-05-07T11:26:56Z</time>
      </trkpt>
      <trkpt lat="43.79019" lon="5.29266">
        <ele>387.598</ele>
        <time>2016-05-07T11:27:02Z</time>
      </trkpt>
      <trkpt lat="43.79021" lon="5.29258">
        <ele>389.867</ele>
        <time>2016-05-07T11:27:08Z</time>
      </trkpt>
      <trkpt lat="43.79024" lon="5.29251">
        <ele>392.334</ele>
        <time>2016-05-07T11:27:13Z</time>
      </trkpt>
      <trkpt lat="43.79028" lon="5.29244">
        <ele>394.482</ele>
        <time>2016-05-07T11:27:18Z</time>
      </trkpt>
      <trkpt lat="43.79032" lon="5.29236">
        <ele>393.68</ele>
        <time>2016-05-07T11:27:24Z</time>
      </trkpt>
      <trkpt lat="43.79036" lon="5.29229">
        <ele>388.561</ele>
        <time>2016-05-07T11:27:29Z</time>
      </trkpt>
      <trkpt lat="43.79042" lon="5.29222">
        <ele>395.281</ele>
        <time>2016-05-07T11:27:35Z</time>
      </trkpt>
      <trkpt lat="43.79048" lon="5.29216">
        <ele>396.449</ele>
        <time>2016-05-07T11:27:41Z</time>
      </trkpt>
      <trkpt lat="43.79056" lon="5.29212">
        <ele>392.697</ele>
        <time>2016-05-07T11:27:47Z</time>
      </trkpt>
      <trkpt lat="43.79061" lon="5.29206">
        <ele>389.55</ele>
        <time>2016-05-07T11:27:53Z</time>
      </trkpt>
      <trkpt lat="43.7908" lon="5.29194">
        <ele>388.199</ele>
        <time>2016-05-07T11:28:10Z</time>
      </trkpt>
      <trkpt lat="43.79082" lon="5.29196">
        <ele>408.875</ele>
        <time>2016-05-07T11:28:16Z</time>
      </trkpt>
      <trkpt lat="43.79095" lon="5.29174">
        <ele>397.775</ele>
        <time>2016-05-07T11:28:33Z</time>
      </trkpt>
      <trkpt lat="43.79105" lon="5.29168">
        <ele>399.878</ele>
        <time>2016-05-07T11:28:40Z</time>
      </trkpt>
      <trkpt lat="43.7912" lon="5.29155">
        <ele>388.958</ele>
        <time>2016-05-07T11:28:49Z</time>
      </trkpt>
      <trkpt lat="43.79126" lon="5.29153">
        <ele>384.847</ele>
        <time>2016-05-07T11:28:53Z</time>
      </trkpt>
      <trkpt lat="43.7913" lon="5.29151">
        <ele>379.175</ele>
        <time>2016-05-07T11:28:55Z</time>
      </trkpt>
      <trkpt lat="43.79136" lon="5.29146">
        <ele>370.211</ele>
        <time>2016-05-07T11:29:00Z</time>
      </trkpt>
      <trkpt lat="43.79137" lon="5.29144">
        <ele>368.623</ele>
        <time>2016-05-07T11:29:01Z</time>
      </trkpt>
      <trkpt lat="43.79147" lon="5.29143">
        <ele>357.152</ele>
        <time>2016-05-07T11:29:07Z</time>
      </trkpt>
      <trkpt lat="43.79153" lon="5.29144">
        <ele>364.033</ele>
        <time>2016-05-07T11:29:15Z</time>
      </trkpt>
      <trkpt lat="43.79156" lon="5.29145">
        <ele>366.649</ele>
        <time>2016-05-07T11:29:19Z</time>
      </trkpt>
      <trkpt lat="43.79165" lon="5.29144">
        <ele>385.636</ele>
        <time>2016-05-07T11:29:25Z</time>
      </trkpt>
      <trkpt lat="43.79175" lon="5.29146">
        <ele>395.139</ele>
        <time>2016-05-07T11:29:33Z</time>
      </trkpt>
      <trkpt lat="43.79228" lon="5.2914">
        <ele>393.54</ele>
        <time>2016-05-07T11:30:19Z</time>
      </trkpt>
      <trkpt lat="43.79239" lon="5.29147">
        <ele>395.861</ele>
        <time>2016-05-07T11:30:28Z</time>
      </trkpt>
      <trkpt lat="43.79246" lon="5.29153">
        <ele>392.525</ele>
        <time>2016-05-07T11:30:35Z</time>
      </trkpt>
      <trkpt lat="43.7927" lon="5.29147">
        <ele>400.024</ele>
        <time>2016-05-07T11:31:01Z</time>
      </trkpt>
      <trkpt lat="43.79272" lon="5.29141">
        <ele>404.419</ele>
        <time>2016-05-07T11:31:06Z</time>
      </trkpt>
      <trkpt lat="43.79276" lon="5.29137">
        <ele>407.279</ele>
        <time>2016-05-07T11:31:12Z</time>
      </trkpt>
      <trkpt lat="43.79281" lon="5.29128">
        <ele>411.717</ele>
        <time>2016-05-07T11:31:17Z</time>
      </trkpt>
      <trkpt lat="43.79292" lon="5.29113">
        <ele>409.477</ele>
        <time>2016-05-07T11:31:23Z</time>
      </trkpt>
      <trkpt lat="43.79294" lon="5.29108">
        <ele>407.123</ele>
        <time>2016-05-07T11:31:25Z</time>
      </trkpt>
      <trkpt lat="43.79298" lon="5.29101">
        <ele>407.024</ele>
        <time>2016-05-07T11:31:31Z</time>
      </trkpt>
      <trkpt lat="43.79309" lon="5.29072">
        <ele>394.282</ele>
        <time>2016-05-07T11:31:50Z</time>
      </trkpt>
      <trkpt lat="43.79309" lon="5.29066">
        <ele>395.685</ele>
        <time>2016-05-07T11:31:53Z</time>
      </trkpt>
      <trkpt lat="43.79318" lon="5.29051">
        <ele>396.976</ele>
        <time>2016-05-07T11:32:02Z</time>
      </trkpt>
      <trkpt lat="43.79323" lon="5.29032">
        <ele>392.069</ele>
        <time>2016-05-07T11:32:13Z</time>
      </trkpt>
      <trkpt lat="43.79325" lon="5.29024">
        <ele>395.92</ele>
        <time>2016-05-07T11:32:18Z</time>
      </trkpt>
      <trkpt lat="43.79326" lon="5.29017">
        <ele>400.408</ele>
        <time>2016-05-07T11:32:23Z</time>
      </trkpt>
      <trkpt lat="43.79326" lon="5.29009">
        <ele>405.441</ele>
        <time>2016-05-07T11:32:29Z</time>
      </trkpt>
      <trkpt lat="43.79325" lon="5.29002">
        <ele>410.536</ele>
        <time>2016-05-07T11:32:34Z</time>
      </trkpt>
      <trkpt lat="43.79316" lon="5.28949">
        <ele>401.766</ele>
        <time>2016-05-07T11:33:09Z</time>
      </trkpt>
      <trkpt lat="43.79317" lon="5.28945">
        <ele>399.174</ele>
        <time>2016-05-07T11:33:11Z</time>
      </trkpt>
      <trkpt lat="43.79318" lon="5.28928">
        <ele>389.858</ele>
        <time>2016-05-07T11:33:18Z</time>
      </trkpt>
      <trkpt lat="43.79318" lon="5.2892">
        <ele>387.72</ele>
        <time>2016-05-07T11:33:22Z</time>
      </trkpt>
      <trkpt lat="43.79317" lon="5.28909">
        <ele>398.228</ele>
        <time>2016-05-07T11:33:29Z</time>
      </trkpt>
      <trkpt lat="43.79315" lon="5.28901">
        <ele>401.14</ele>
        <time>2016-05-07T11:33:38Z</time>
      </trkpt>
      <trkpt lat="43.79318" lon="5.28889">
        <ele>394.261</ele>
        <time>2016-05-07T11:33:45Z</time>
      </trkpt>
      <trkpt lat="43.79322" lon="5.28878">
        <ele>403.386</ele>
        <time>2016-05-07T11:33:55Z</time>
      </trkpt>
      <trkpt lat="43.79321" lon="5.28866">
        <ele>405.045</ele>
        <time>2016-05-07T11:34:02Z</time>
      </trkpt>
      <trkpt lat="43.79327" lon="5.28849">
        <ele>421.293</ele>
        <time>2016-05-07T11:34:21Z</time>
      </trkpt>
      <trkpt lat="43.79336" lon="5.28833">
        <ele>415.918</ele>
        <time>2016-05-07T11:34:29Z</time>
      </trkpt>
      <trkpt lat="43.7934" lon="5.28826">
        <ele>413.542</ele>
        <time>2016-05-07T11:34:35Z</time>
      </trkpt>
      <trkpt lat="43.79347" lon="5.28816">
        <ele>411.123</ele>
        <time>2016-05-07T11:34:42Z</time>
      </trkpt>
      <trkpt lat="43.79354" lon="5.28803">
        <ele>402.692</ele>
        <time>2016-05-07T11:34:50Z</time>
      </trkpt>
      <trkpt lat="43.79354" lon="5.28792">
        <ele>398.939</ele>
        <time>2016-05-07T11:34:55Z</time>
      </trkpt>
      <trkpt lat="43.79354" lon="5.28789">
        <ele>399.33</ele>
        <time>2016-05-07T11:34:56Z</time>
      </trkpt>
      <trkpt lat="43.79359" lon="5.28782">
        <ele>398.121</ele>
        <time>2016-05-07T11:35:00Z</time>
      </trkpt>
      <trkpt lat="43.79362" lon="5.28777">
        <ele>399.193</ele>
        <time>2016-05-07T11:35:02Z</time>
      </trkpt>
      <trkpt lat="43.79365" lon="5.28772">
        <ele>401.655</ele>
        <time>2016-05-07T11:35:08Z</time>
      </trkpt>
      <trkpt lat="43.79371" lon="5.28749">
        <ele>402.559</ele>
        <time>2016-05-07T11:35:19Z</time>
      </trkpt>
      <trkpt lat="43.79374" lon="5.28743">
        <ele>400.508</ele>
        <time>2016-05-07T11:35:25Z</time>
      </trkpt>
      <trkpt lat="43.79381" lon="5.28735">
        <ele>401.139</ele>
        <time>2016-05-07T11:35:28Z</time>
      </trkpt>
      <trkpt lat="43.79383" lon="5.28729">
        <ele>400.719</ele>
        <time>2016-05-07T11:35:30Z</time>
      </trkpt>
      <trkpt lat="43.79391" lon="5.28724">
        <ele>396.296</ele>
        <time>2016-05-07T11:35:37Z</time>
      </trkpt>
      <trkpt lat="43.79394" lon="5.28715">
        <ele>391.955</ele>
        <time>2016-05-07T11:35:45Z</time>
      </trkpt>
      <trkpt lat="43.79397" lon="5.287">
        <ele>391.846</ele>
        <time>2016-05-07T11:35:52Z</time>
      </trkpt>
      <trkpt lat="43.79398" lon="5.28699">
        <ele>392.287</ele>
        <time>2016-05-07T11:35:53Z</time>
      </trkpt>
      <trkpt lat="43.79401" lon="5.28684">
        <ele>393.849</ele>
        <time>2016-05-07T11:36:00Z</time>
      </trkpt>
      <trkpt lat="43.79406" lon="5.28671">
        <ele>399.962</ele>
        <time>2016-05-07T11:36:07Z</time>
      </trkpt>
      <trkpt lat="43.79414" lon="5.28642">
        <ele>397.58</ele>
        <time>2016-05-07T11:36:25Z</time>
      </trkpt>
      <trkpt lat="43.79413" lon="5.28635">
        <ele>397.418</ele>
        <time>2016-05-07T11:36:29Z</time>
      </trkpt>
      <trkpt lat="43.79413" lon="5.28628">
        <ele>397.178</ele>
        <time>2016-05-07T11:36:33Z</time>
      </trkpt>
      <trkpt lat="43.79419" lon="5.28614">
        <ele>396.358</ele>
        <time>2016-05-07T11:36:39Z</time>
      </trkpt>
      <trkpt lat="43.79412" lon="5.28604">
        <ele>401.62</ele>
        <time>2016-05-07T11:36:46Z</time>
      </trkpt>
      <trkpt lat="43.79401" lon="5.28599">
        <ele>403.44</ele>
        <time>2016-05-07T11:36:53Z</time>
      </trkpt>
      <trkpt lat="43.79401" lon="5.28589">
        <ele>407.454</ele>
        <time>2016-05-07T11:37:00Z</time>
      </trkpt>
      <trkpt lat="43.79396" lon="5.28569">
        <ele>415.524</ele>
        <time>2016-05-07T11:37:12Z</time>
      </trkpt>
      <trkpt lat="43.79393" lon="5.28561">
        <ele>432.003</ele>
        <time>2016-05-07T11:37:19Z</time>
      </trkpt>
      <trkpt lat="43.79395" lon="5.28554">
        <ele>439.523</ele>
        <time>2016-05-07T11:37:43Z</time>
      </trkpt>
      <trkpt lat="43.79394" lon="5.28544">
        <ele>441.223</ele>
        <time>2016-05-07T11:37:50Z</time>
      </trkpt>
      <trkpt lat="43.79388" lon="5.28516">
        <ele>442.827</ele>
        <time>2016-05-07T11:38:15Z</time>
      </trkpt>
      <trkpt lat="43.79388" lon="5.28506">
        <ele>440.323</ele>
        <time>2016-05-07T11:38:23Z</time>
      </trkpt>
      <trkpt lat="43.79392" lon="5.28481">
        <ele>449.314</ele>
        <time>2016-05-07T11:38:50Z</time>
      </trkpt>
      <trkpt lat="43.79394" lon="5.28467">
        <ele>448.899</ele>
        <time>2016-05-07T11:38:56Z</time>
      </trkpt>
      <trkpt lat="43.79396" lon="5.28459">
        <ele>448.897</ele>
        <time>2016-05-07T11:39:02Z</time>
      </trkpt>
      <trkpt lat="43.79393" lon="5.28435">
        <ele>451.774</ele>
        <time>2016-05-07T11:39:19Z</time>
      </trkpt>
      <trkpt lat="43.79397" lon="5.28427">
        <ele>454.089</ele>
        <time>2016-05-07T11:39:29Z</time>
      </trkpt>
      <trkpt lat="43.79399" lon="5.28414">
        <ele>455.478</ele>
        <time>2016-05-07T11:39:36Z</time>
      </trkpt>
      <trkpt lat="43.79411" lon="5.28375">
        <ele>437.011</ele>
        <time>2016-05-07T11:40:07Z</time>
      </trkpt>
      <trkpt lat="43.79407" lon="5.28304">
        <ele>434.837</ele>
        <time>2016-05-07T11:40:54Z</time>
      </trkpt>
      <trkpt lat="43.79408" lon="5.28297">
        <ele>433.496</ele>
        <time>2016-05-07T11:40:59Z</time>
      </trkpt>
      <trkpt lat="43.79414" lon="5.28288">
        <ele>436.607</ele>
        <time>2016-05-07T11:41:05Z</time>
      </trkpt>
      <trkpt lat="43.79432" lon="5.28271">
        <ele>434.979</ele>
        <time>2016-05-07T11:41:32Z</time>
      </trkpt>
      <trkpt lat="43.79438" lon="5.28266">
        <ele>425.549</ele>
        <time>2016-05-07T11:41:41Z</time>
      </trkpt>
      <trkpt lat="43.79451" lon="5.28249">
        <ele>430.78</ele>
        <time>2016-05-07T11:42:13Z</time>
      </trkpt>
      <trkpt lat="43.79444" lon="5.28248">
        <ele>443.79</ele>
        <time>2016-05-07T11:42:19Z</time>
      </trkpt>
      <trkpt lat="43.79438" lon="5.28239">
        <ele>452.668</ele>
        <time>2016-05-07T11:42:26Z</time>
      </trkpt>
      <trkpt lat="43.79431" lon="5.28227">
        <ele>462.586</ele>
        <time>2016-05-07T11:42:33Z</time>
      </trkpt>
      <trkpt lat="43.79433" lon="5.28217">
        <ele>463.243</ele>
        <time>2016-05-07T11:42:38Z</time>
      </trkpt>
      <trkpt lat="43.79434" lon="5.28211">
        <ele>466.553</ele>
        <time>2016-05-07T11:42:42Z</time>
      </trkpt>
      <trkpt lat="43.7944" lon="5.2821">
        <ele>465.178</ele>
        <time>2016-05-07T11:42:49Z</time>
      </trkpt>
      <trkpt lat="43.7944" lon="5.28208">
        <ele>464.778</ele>
        <time>2016-05-07T11:42:51Z</time>
      </trkpt>
      <trkpt lat="43.79432" lon="5.28205">
        <ele>466.889</ele>
        <time>2016-05-07T11:42:58Z</time>
      </trkpt>
      <trkpt lat="43.79435" lon="5.28195">
        <ele>461.166</ele>
        <time>2016-05-07T11:43:06Z</time>
      </trkpt>
      <trkpt lat="43.79445" lon="5.28183">
        <ele>456.445</ele>
        <time>2016-05-07T11:43:13Z</time>
      </trkpt>
      <trkpt lat="43.79438" lon="5.28183">
        <ele>460.117</ele>
        <time>2016-05-07T11:43:25Z</time>
      </trkpt>
      <trkpt lat="43.79434" lon="5.28184">
        <ele>461.228</ele>
        <time>2016-05-07T11:43:28Z</time>
      </trkpt>
      <trkpt lat="43.79422" lon="5.28189">
        <ele>469.764</ele>
        <time>2016-05-07T11:43:32Z</time>
      </trkpt>
      <trkpt lat="43.79415" lon="5.28194">
        <ele>482.64</ele>
        <time>2016-05-07T11:43:39Z</time>
      </trkpt>
      <trkpt lat="43.79418" lon="5.28187">
        <ele>487.982</ele>
        <time>2016-05-07T11:43:46Z</time>
      </trkpt>
      <trkpt lat="43.79424" lon="5.28179">
        <ele>479.515</ele>
        <time>2016-05-07T11:43:53Z</time>
      </trkpt>
      <trkpt lat="43.79421" lon="5.28172">
        <ele>487.29</ele>
        <time>2016-05-07T11:44:07Z</time>
      </trkpt>
      <trkpt lat="43.79418" lon="5.28175">
        <ele>492.709</ele>
        <time>2016-05-07T11:44:10Z</time>
      </trkpt>
      <trkpt lat="43.79411" lon="5.28173">
        <ele>496.278</ele>
        <time>2016-05-07T11:44:17Z</time>
      </trkpt>
      <trkpt lat="43.79409" lon="5.28176">
        <ele>499.866</ele>
        <time>2016-05-07T11:44:29Z</time>
      </trkpt>
      <trkpt lat="43.79407" lon="5.28178">
        <ele>502.356</ele>
        <time>2016-05-07T11:44:36Z</time>
      </trkpt>
      <trkpt lat="43.79407" lon="5.28176">
        <ele>507.547</ele>
        <time>2016-05-07T11:44:43Z</time>
      </trkpt>
      <trkpt lat="43.79406" lon="5.28175">
        <ele>514.437</ele>
        <time>2016-05-07T11:44:54Z</time>
      </trkpt>
      <trkpt lat="43.794" lon="5.28174">
        <ele>512.923</ele>
        <time>2016-05-07T11:45:00Z</time>
      </trkpt>
      <trkpt lat="43.79399" lon="5.28174">
        <ele>511.721</ele>
        <time>2016-05-07T11:45:01Z</time>
      </trkpt>
      <trkpt lat="43.79402" lon="5.28169">
        <ele>507.886</ele>
        <time>2016-05-07T11:45:08Z</time>
      </trkpt>
      <trkpt lat="43.79406" lon="5.28164">
        <ele>507.583</ele>
        <time>2016-05-07T11:45:11Z</time>
      </trkpt>
      <trkpt lat="43.79407" lon="5.28164">
        <ele>508.568</ele>
        <time>2016-05-07T11:45:18Z</time>
      </trkpt>
      <trkpt lat="43.79404" lon="5.2817">
        <ele>513.527</ele>
        <time>2016-05-07T11:45:53Z</time>
      </trkpt>
      <trkpt lat="43.79406" lon="5.28171">
        <ele>512.563</ele>
        <time>2016-05-07T11:46:00Z</time>
      </trkpt>
      <trkpt lat="43.79403" lon="5.28168">
        <ele>501.457</ele>
        <time>2016-05-07T11:46:09Z</time>
      </trkpt>
      <trkpt lat="43.79398" lon="5.28169">
        <ele>489.518</ele>
        <time>2016-05-07T11:46:16Z</time>
      </trkpt>
      <trkpt lat="43.79409" lon="5.28179">
        <ele>523.381</ele>
        <time>2016-05-07T11:47:07Z</time>
      </trkpt>
      <trkpt lat="43.79415" lon="5.28192">
        <ele>541.016</ele>
        <time>2016-05-07T11:47:13Z</time>
      </trkpt>
      <trkpt lat="43.79418" lon="5.28189">
        <ele>542.505</ele>
        <time>2016-05-07T11:47:19Z</time>
      </trkpt>
      <trkpt lat="43.79402" lon="5.28161">
        <ele>501.277</ele>
        <time>2016-05-07T11:49:15Z</time>
      </trkpt>
      <trkpt lat="43.79401" lon="5.2816">
        <ele>502.695</ele>
        <time>2016-05-07T11:49:22Z</time>
      </trkpt>
      <trkpt lat="43.79414" lon="5.28155">
        <ele>507.341</ele>
        <time>2016-05-07T11:49:47Z</time>
      </trkpt>
      <trkpt lat="43.79419" lon="5.28161">
        <ele>522.38</ele>
        <time>2016-05-07T11:49:54Z</time>
      </trkpt>
      <trkpt lat="43.79412" lon="5.28171">
        <ele>528.567</ele>
        <time>2016-05-07T11:50:00Z</time>
      </trkpt>
      <trkpt lat="43.79406" lon="5.28173">
        <ele>525.823</ele>
        <time>2016-05-07T11:50:07Z</time>
      </trkpt>
      <trkpt lat="43.79409" lon="5.28161">
        <ele>514.747</ele>
        <time>2016-05-07T11:50:43Z</time>
      </trkpt>
      <trkpt lat="43.79408" lon="5.28161">
        <ele>515.406</ele>
        <time>2016-05-07T11:50:48Z</time>
      </trkpt>
      <trkpt lat="43.79401" lon="5.2816">
        <ele>514.724</ele>
        <time>2016-05-07T11:50:55Z</time>
      </trkpt>
      <trkpt lat="43.794" lon="5.28157">
        <ele>513.394</ele>
        <time>2016-05-07T11:51:01Z</time>
      </trkpt>
      <trkpt lat="43.79402" lon="5.28148">
        <ele>516.28</ele>
        <time>2016-05-07T11:51:08Z</time>
      </trkpt>
      <trkpt lat="43.79403" lon="5.28143">
        <ele>519.313</ele>
        <time>2016-05-07T11:51:14Z</time>
      </trkpt>
      <trkpt lat="43.79405" lon="5.28143">
        <ele>520.691</ele>
        <time>2016-05-07T11:51:19Z</time>
      </trkpt>
      <trkpt lat="43.79406" lon="5.28142">
        <ele>520</ele>
        <time>2016-05-07T11:51:21Z</time>
      </trkpt>
      <trkpt lat="43.7941" lon="5.28134">
        <ele>523.509</ele>
        <time>2016-05-07T11:51:31Z</time>
      </trkpt>
      <trkpt lat="43.7941" lon="5.28129">
        <ele>524.027</ele>
        <time>2016-05-07T11:51:35Z</time>
      </trkpt>
      <trkpt lat="43.79412" lon="5.28125">
        <ele>524.999</ele>
        <time>2016-05-07T11:51:41Z</time>
      </trkpt>
      <trkpt lat="43.79415" lon="5.28121">
        <ele>528.008</ele>
        <time>2016-05-07T11:51:54Z</time>
      </trkpt>
      <trkpt lat="43.79411" lon="5.28123">
        <ele>526.294</ele>
        <time>2016-05-07T11:51:59Z</time>
      </trkpt>
      <trkpt lat="43.79408" lon="5.28115">
        <ele>528.942</ele>
        <time>2016-05-07T11:52:05Z</time>
      </trkpt>
      <trkpt lat="43.79411" lon="5.28108">
        <ele>526.476</ele>
        <time>2016-05-07T11:52:10Z</time>
      </trkpt>
      <trkpt lat="43.79411" lon="5.281">
        <ele>527.349</ele>
        <time>2016-05-07T11:52:17Z</time>
      </trkpt>
      <trkpt lat="43.79411" lon="5.28093">
        <ele>526.609</ele>
        <time>2016-05-07T11:52:22Z</time>
      </trkpt>
      <trkpt lat="43.79411" lon="5.2809">
        <ele>526.189</ele>
        <time>2016-05-07T11:52:24Z</time>
      </trkpt>
      <trkpt lat="43.79411" lon="5.28083">
        <ele>532.411</ele>
        <time>2016-05-07T11:52:31Z</time>
      </trkpt>
      <trkpt lat="43.79413" lon="5.28077">
        <ele>535.816</ele>
        <time>2016-05-07T11:52:36Z</time>
      </trkpt>
      <trkpt lat="43.79415" lon="5.28065">
        <ele>534.039</ele>
        <time>2016-05-07T11:52:43Z</time>
      </trkpt>
      <trkpt lat="43.79415" lon="5.28058">
        <ele>535.162</ele>
        <time>2016-05-07T11:52:47Z</time>
      </trkpt>
      <trkpt lat="43.79418" lon="5.2805">
        <ele>535.413</ele>
        <time>2016-05-07T11:52:52Z</time>
      </trkpt>
      <trkpt lat="43.79419" lon="5.28049">
        <ele>536.825</ele>
        <time>2016-05-07T11:52:54Z</time>
      </trkpt>
      <trkpt lat="43.79422" lon="5.28045">
        <ele>543.432</ele>
        <time>2016-05-07T11:53:00Z</time>
      </trkpt>
      <trkpt lat="43.79428" lon="5.28027">
        <ele>531.225</ele>
        <time>2016-05-07T11:53:17Z</time>
      </trkpt>
      <trkpt lat="43.7943" lon="5.28021">
        <ele>525.221</ele>
        <time>2016-05-07T11:53:23Z</time>
      </trkpt>
      <trkpt lat="43.79431" lon="5.28011">
        <ele>526.342</ele>
        <time>2016-05-07T11:53:28Z</time>
      </trkpt>
      <trkpt lat="43.7943" lon="5.28003">
        <ele>530.542</ele>
        <time>2016-05-07T11:53:36Z</time>
      </trkpt>
      <trkpt lat="43.79413" lon="5.28">
        <ele>541.729</ele>
        <time>2016-05-07T11:54:03Z</time>
      </trkpt>
      <trkpt lat="43.79422" lon="5.2799">
        <ele>541.806</ele>
        <time>2016-05-07T11:54:09Z</time>
      </trkpt>
      <trkpt lat="43.79428" lon="5.27987">
        <ele>539.752</ele>
        <time>2016-05-07T11:54:18Z</time>
      </trkpt>
      <trkpt lat="43.79425" lon="5.27976">
        <ele>537.733</ele>
        <time>2016-05-07T11:54:25Z</time>
      </trkpt>
      <trkpt lat="43.7943" lon="5.27963">
        <ele>529.281</ele>
        <time>2016-05-07T11:54:37Z</time>
      </trkpt>
      <trkpt lat="43.79452" lon="5.27932">
        <ele>540.068</ele>
        <time>2016-05-07T11:55:22Z</time>
      </trkpt>
      <trkpt lat="43.79455" lon="5.27927">
        <ele>537.017</ele>
        <time>2016-05-07T11:55:26Z</time>
      </trkpt>
      <trkpt lat="43.79463" lon="5.27916">
        <ele>517.881</ele>
        <time>2016-05-07T11:55:33Z</time>
      </trkpt>
      <trkpt lat="43.79467" lon="5.27909">
        <ele>514.081</ele>
        <time>2016-05-07T11:55:37Z</time>
      </trkpt>
      <trkpt lat="43.7947" lon="5.27903">
        <ele>511.523</ele>
        <time>2016-05-07T11:55:41Z</time>
      </trkpt>
      <trkpt lat="43.79471" lon="5.27898">
        <ele>516.113</ele>
        <time>2016-05-07T11:55:47Z</time>
      </trkpt>
      <trkpt lat="43.79472" lon="5.27893">
        <ele>513.013</ele>
        <time>2016-05-07T11:55:52Z</time>
      </trkpt>
      <trkpt lat="43.79472" lon="5.27892">
        <ele>513.826</ele>
        <time>2016-05-07T11:55:54Z</time>
      </trkpt>
      <trkpt lat="43.7947" lon="5.27892">
        <ele>529.014</ele>
        <time>2016-05-07T11:56:00Z</time>
      </trkpt>
      <trkpt lat="43.79466" lon="5.27893">
        <ele>554.998</ele>
        <time>2016-05-07T11:57:45Z</time>
      </trkpt>
      <trkpt lat="43.79466" lon="5.27886">
        <ele>553.498</ele>
        <time>2016-05-07T11:57:51Z</time>
      </trkpt>
      <trkpt lat="43.79474" lon="5.27868">
        <ele>536.196</ele>
        <time>2016-05-07T11:57:58Z</time>
      </trkpt>
      <trkpt lat="43.79468" lon="5.27835">
        <ele>530.054</ele>
        <time>2016-05-07T11:58:22Z</time>
      </trkpt>
      <trkpt lat="43.79456" lon="5.27826">
        <ele>540.497</ele>
        <time>2016-05-07T11:58:36Z</time>
      </trkpt>
      <trkpt lat="43.79453" lon="5.2782">
        <ele>548.68</ele>
        <time>2016-05-07T11:58:41Z</time>
      </trkpt>
      <trkpt lat="43.79449" lon="5.2781">
        <ele>555.05</ele>
        <time>2016-05-07T11:58:49Z</time>
      </trkpt>
      <trkpt lat="43.79442" lon="5.27801">
        <ele>562.18</ele>
        <time>2016-05-07T11:59:00Z</time>
      </trkpt>
      <trkpt lat="43.79438" lon="5.27792">
        <ele>571.54</ele>
        <time>2016-05-07T11:59:09Z</time>
      </trkpt>
      <trkpt lat="43.79436" lon="5.27784">
        <ele>571.888</ele>
        <time>2016-05-07T11:59:16Z</time>
      </trkpt>
      <trkpt lat="43.79435" lon="5.27785">
        <ele>570.618</ele>
        <time>2016-05-07T11:59:18Z</time>
      </trkpt>
      <trkpt lat="43.79428" lon="5.27783">
        <ele>565.032</ele>
        <time>2016-05-07T11:59:25Z</time>
      </trkpt>
      <trkpt lat="43.79422" lon="5.27772">
        <ele>570.333</ele>
        <time>2016-05-07T11:59:34Z</time>
      </trkpt>
      <trkpt lat="43.79419" lon="5.27766">
        <ele>571.124</ele>
        <time>2016-05-07T11:59:40Z</time>
      </trkpt>
      <trkpt lat="43.79419" lon="5.27754">
        <ele>568.906</ele>
        <time>2016-05-07T11:59:46Z</time>
      </trkpt>
      <trkpt lat="43.79412" lon="5.2775">
        <ele>573.978</ele>
        <time>2016-05-07T11:59:52Z</time>
      </trkpt>
      <trkpt lat="43.79409" lon="5.27746">
        <ele>578.38</ele>
        <time>2016-05-07T11:59:56Z</time>
      </trkpt>
      <trkpt lat="43.7941" lon="5.27738">
        <ele>575.614</ele>
        <time>2016-05-07T12:00:03Z</time>
      </trkpt>
      <trkpt lat="43.7941" lon="5.27724">
        <ele>554.363</ele>
        <time>2016-05-07T12:00:25Z</time>
      </trkpt>
      <trkpt lat="43.79409" lon="5.27723">
        <ele>555.436</ele>
        <time>2016-05-07T12:00:30Z</time>
      </trkpt>
      <trkpt lat="43.79408" lon="5.27727">
        <ele>560.711</ele>
        <time>2016-05-07T12:00:50Z</time>
      </trkpt>
      <trkpt lat="43.7941" lon="5.27729">
        <ele>565.056</ele>
        <time>2016-05-07T12:00:57Z</time>
      </trkpt>
      <trkpt lat="43.79413" lon="5.2772">
        <ele>555.056</ele>
        <time>2016-05-07T12:01:15Z</time>
      </trkpt>
      <trkpt lat="43.79409" lon="5.27733">
        <ele>559.282</ele>
        <time>2016-05-07T12:01:35Z</time>
      </trkpt>
      <trkpt lat="43.79408" lon="5.27737">
        <ele>565.875</ele>
        <time>2016-05-07T12:01:44Z</time>
      </trkpt>
      <trkpt lat="43.79406" lon="5.27738">
        <ele>565.648</ele>
        <time>2016-05-07T12:01:50Z</time>
      </trkpt>
      <trkpt lat="43.79407" lon="5.27737">
        <ele>567.541</ele>
        <time>2016-05-07T12:01:56Z</time>
      </trkpt>
      <trkpt lat="43.79396" lon="5.27735">
        <ele>574.948</ele>
        <time>2016-05-07T12:02:45Z</time>
      </trkpt>
      <trkpt lat="43.79396" lon="5.27734">
        <ele>575.538</ele>
        <time>2016-05-07T12:02:46Z</time>
      </trkpt>
      <trkpt lat="43.79394" lon="5.27728">
        <ele>574.326</ele>
        <time>2016-05-07T12:02:53Z</time>
      </trkpt>
      <trkpt lat="43.79394" lon="5.27727">
        <ele>574.757</ele>
        <time>2016-05-07T12:02:54Z</time>
      </trkpt>
      <trkpt lat="43.79387" lon="5.2772">
        <ele>576.29</ele>
        <time>2016-05-07T12:03:02Z</time>
      </trkpt>
      <trkpt lat="43.79383" lon="5.27712">
        <ele>579.326</ele>
        <time>2016-05-07T12:03:07Z</time>
      </trkpt>
      <trkpt lat="43.79378" lon="5.27706">
        <ele>580.185</ele>
        <time>2016-05-07T12:03:13Z</time>
      </trkpt>
      <trkpt lat="43.79375" lon="5.27697">
        <ele>579.3</ele>
        <time>2016-05-07T12:03:19Z</time>
      </trkpt>
      <trkpt lat="43.79372" lon="5.27691">
        <ele>582.693</ele>
        <time>2016-05-07T12:03:25Z</time>
      </trkpt>
      <trkpt lat="43.7937" lon="5.27683">
        <ele>578.736</ele>
        <time>2016-05-07T12:03:31Z</time>
      </trkpt>
      <trkpt lat="43.7937" lon="5.2768">
        <ele>580.408</ele>
        <time>2016-05-07T12:03:34Z</time>
      </trkpt>
      <trkpt lat="43.79372" lon="5.2767">
        <ele>578.718</ele>
        <time>2016-05-07T12:03:40Z</time>
      </trkpt>
      <trkpt lat="43.79376" lon="5.27662">
        <ele>578.836</ele>
        <time>2016-05-07T12:03:46Z</time>
      </trkpt>
      <trkpt lat="43.79379" lon="5.27656">
        <ele>578.664</ele>
        <time>2016-05-07T12:03:52Z</time>
      </trkpt>
      <trkpt lat="43.79383" lon="5.27651">
        <ele>581.16</ele>
        <time>2016-05-07T12:03:58Z</time>
      </trkpt>
      <trkpt lat="43.79388" lon="5.27643">
        <ele>584.212</ele>
        <time>2016-05-07T12:04:06Z</time>
      </trkpt>
      <trkpt lat="43.79393" lon="5.2764">
        <ele>587.595</ele>
        <time>2016-05-07T12:04:10Z</time>
      </trkpt>
      <trkpt lat="43.79394" lon="5.2764">
        <ele>588.988</ele>
        <time>2016-05-07T12:04:15Z</time>
      </trkpt>
      <trkpt lat="43.79396" lon="5.27633">
        <ele>590.847</ele>
        <time>2016-05-07T12:04:21Z</time>
      </trkpt>
      <trkpt lat="43.79397" lon="5.27626">
        <ele>589.345</ele>
        <time>2016-05-07T12:04:26Z</time>
      </trkpt>
      <trkpt lat="43.79397" lon="5.27618">
        <ele>590.315</ele>
        <time>2016-05-07T12:04:33Z</time>
      </trkpt>
      <trkpt lat="43.79396" lon="5.27609">
        <ele>587.98</ele>
        <time>2016-05-07T12:04:40Z</time>
      </trkpt>
      <trkpt lat="43.79398" lon="5.27604">
        <ele>588.98</ele>
        <time>2016-05-07T12:04:43Z</time>
      </trkpt>
      <trkpt lat="43.79396" lon="5.27592">
        <ele>592.768</ele>
        <time>2016-05-07T12:04:50Z</time>
      </trkpt>
      <trkpt lat="43.79397" lon="5.27588">
        <ele>592.134</ele>
        <time>2016-05-07T12:04:54Z</time>
      </trkpt>
      <trkpt lat="43.79394" lon="5.27582">
        <ele>592.646</ele>
        <time>2016-05-07T12:04:59Z</time>
      </trkpt>
      <trkpt lat="43.79393" lon="5.27568">
        <ele>588.819</ele>
        <time>2016-05-07T12:05:06Z</time>
      </trkpt>
      <trkpt lat="43.79387" lon="5.27556">
        <ele>588.372</ele>
        <time>2016-05-07T12:05:14Z</time>
      </trkpt>
      <trkpt lat="43.79387" lon="5.27553">
        <ele>589.235</ele>
        <time>2016-05-07T12:05:16Z</time>
      </trkpt>
      <trkpt lat="43.79389" lon="5.27544">
        <ele>592.252</ele>
        <time>2016-05-07T12:05:22Z</time>
      </trkpt>
      <trkpt lat="43.79392" lon="5.27536">
        <ele>598.131</ele>
        <time>2016-05-07T12:05:26Z</time>
      </trkpt>
      <trkpt lat="43.79394" lon="5.27522">
        <ele>602.259</ele>
        <time>2016-05-07T12:05:33Z</time>
      </trkpt>
      <trkpt lat="43.79395" lon="5.27511">
        <ele>606.661</ele>
        <time>2016-05-07T12:05:38Z</time>
      </trkpt>
      <trkpt lat="43.79393" lon="5.27511">
        <ele>604.203</ele>
        <time>2016-05-07T12:05:39Z</time>
      </trkpt>
      <trkpt lat="43.79386" lon="5.27509">
        <ele>597.329</ele>
        <time>2016-05-07T12:05:45Z</time>
      </trkpt>
      <trkpt lat="43.79386" lon="5.27504">
        <ele>599.038</ele>
        <time>2016-05-07T12:05:50Z</time>
      </trkpt>
      <trkpt lat="43.79385" lon="5.27502">
        <ele>599.018</ele>
        <time>2016-05-07T12:05:52Z</time>
      </trkpt>
      <trkpt lat="43.79388" lon="5.27496">
        <ele>598.626</ele>
        <time>2016-05-07T12:05:56Z</time>
      </trkpt>
      <trkpt lat="43.7939" lon="5.27486">
        <ele>595.65</ele>
        <time>2016-05-07T12:06:03Z</time>
      </trkpt>
      <trkpt lat="43.79389" lon="5.27475">
        <ele>593.12</ele>
        <time>2016-05-07T12:06:10Z</time>
      </trkpt>
      <trkpt lat="43.79391" lon="5.27468">
        <ele>590.896</ele>
        <time>2016-05-07T12:06:15Z</time>
      </trkpt>
      <trkpt lat="43.79392" lon="5.2746">
        <ele>592.164</ele>
        <time>2016-05-07T12:06:22Z</time>
      </trkpt>
      <trkpt lat="43.7939" lon="5.27456">
        <ele>592.682</ele>
        <time>2016-05-07T12:06:25Z</time>
      </trkpt>
      <trkpt lat="43.79391" lon="5.27451">
        <ele>591.649</ele>
        <time>2016-05-07T12:06:29Z</time>
      </trkpt>
      <trkpt lat="43.79391" lon="5.27446">
        <ele>589.808</ele>
        <time>2016-05-07T12:06:33Z</time>
      </trkpt>
      <trkpt lat="43.79398" lon="5.27434">
        <ele>591.936</ele>
        <time>2016-05-07T12:06:42Z</time>
      </trkpt>
      <trkpt lat="43.79395" lon="5.27428">
        <ele>593.122</ele>
        <time>2016-05-07T12:06:48Z</time>
      </trkpt>
      <trkpt lat="43.79395" lon="5.27418">
        <ele>599.01</ele>
        <time>2016-05-07T12:06:56Z</time>
      </trkpt>
      <trkpt lat="43.794" lon="5.27404">
        <ele>611.208</ele>
        <time>2016-05-07T12:07:06Z</time>
      </trkpt>
      <trkpt lat="43.7941" lon="5.27383">
        <ele>609.271</ele>
        <time>2016-05-07T12:07:20Z</time>
      </trkpt>
      <trkpt lat="43.7941" lon="5.27377">
        <ele>612.129</ele>
        <time>2016-05-07T12:07:24Z</time>
      </trkpt>
      <trkpt lat="43.79413" lon="5.27369">
        <ele>619.961</ele>
        <time>2016-05-07T12:07:31Z</time>
      </trkpt>
      <trkpt lat="43.79409" lon="5.27362">
        <ele>628.736</ele>
        <time>2016-05-07T12:07:36Z</time>
      </trkpt>
      <trkpt lat="43.79408" lon="5.27361">
        <ele>628.243</ele>
        <time>2016-05-07T12:07:37Z</time>
      </trkpt>
      <trkpt lat="43.79411" lon="5.27353">
        <ele>629.168</ele>
        <time>2016-05-07T12:07:44Z</time>
      </trkpt>
      <trkpt lat="43.79417" lon="5.27345">
        <ele>627.399</ele>
        <time>2016-05-07T12:07:50Z</time>
      </trkpt>
      <trkpt lat="43.79424" lon="5.27333">
        <ele>621.944</ele>
        <time>2016-05-07T12:07:57Z</time>
      </trkpt>
      <trkpt lat="43.79431" lon="5.27325">
        <ele>616.963</ele>
        <time>2016-05-07T12:08:04Z</time>
      </trkpt>
      <trkpt lat="43.7944" lon="5.27315">
        <ele>611.585</ele>
        <time>2016-05-07T12:08:12Z</time>
      </trkpt>
      <trkpt lat="43.7944" lon="5.27314">
        <ele>611.243</ele>
        <time>2016-05-07T12:08:13Z</time>
      </trkpt>
      <trkpt lat="43.79445" lon="5.27303">
        <ele>612.21</ele>
        <time>2016-05-07T12:08:20Z</time>
      </trkpt>
      <trkpt lat="43.79446" lon="5.27301">
        <ele>616.507</ele>
        <time>2016-05-07T12:08:22Z</time>
      </trkpt>
      <trkpt lat="43.79451" lon="5.2729">
        <ele>617.701</ele>
        <time>2016-05-07T12:08:30Z</time>
      </trkpt>
      <trkpt lat="43.79451" lon="5.27289">
        <ele>614.533</ele>
        <time>2016-05-07T12:08:32Z</time>
      </trkpt>
      <trkpt lat="43.79458" lon="5.27278">
        <ele>611.881</ele>
        <time>2016-05-07T12:08:39Z</time>
      </trkpt>
      <trkpt lat="43.79463" lon="5.27267">
        <ele>613.486</ele>
        <time>2016-05-07T12:08:47Z</time>
      </trkpt>
      <trkpt lat="43.79456" lon="5.27257">
        <ele>615.874</ele>
        <time>2016-05-07T12:08:55Z</time>
      </trkpt>
      <trkpt lat="43.79456" lon="5.27253">
        <ele>616.235</ele>
        <time>2016-05-07T12:08:57Z</time>
      </trkpt>
      <trkpt lat="43.7946" lon="5.27242">
        <ele>616.054</ele>
        <time>2016-05-07T12:09:03Z</time>
      </trkpt>
      <trkpt lat="43.7946" lon="5.27239">
        <ele>614.932</ele>
        <time>2016-05-07T12:09:04Z</time>
      </trkpt>
      <trkpt lat="43.79465" lon="5.2723">
        <ele>614.534</ele>
        <time>2016-05-07T12:09:09Z</time>
      </trkpt>
      <trkpt lat="43.79466" lon="5.27223">
        <ele>615.247</ele>
        <time>2016-05-07T12:09:13Z</time>
      </trkpt>
      <trkpt lat="43.79468" lon="5.27216">
        <ele>609.83</ele>
        <time>2016-05-07T12:09:16Z</time>
      </trkpt>
      <trkpt lat="43.79474" lon="5.27208">
        <ele>603.211</ele>
        <time>2016-05-07T12:09:21Z</time>
      </trkpt>
      <trkpt lat="43.79476" lon="5.27201">
        <ele>607.776</ele>
        <time>2016-05-07T12:09:26Z</time>
      </trkpt>
      <trkpt lat="43.79476" lon="5.27198">
        <ele>606.912</ele>
        <time>2016-05-07T12:09:31Z</time>
      </trkpt>
      <trkpt lat="43.79475" lon="5.27192">
        <ele>610.578</ele>
        <time>2016-05-07T12:09:37Z</time>
      </trkpt>
      <trkpt lat="43.79478" lon="5.27185">
        <ele>614.374</ele>
        <time>2016-05-07T12:09:42Z</time>
      </trkpt>
      <trkpt lat="43.79477" lon="5.27182">
        <ele>616.045</ele>
        <time>2016-05-07T12:09:44Z</time>
      </trkpt>
      <trkpt lat="43.79482" lon="5.2717">
        <ele>613.628</ele>
        <time>2016-05-07T12:09:50Z</time>
      </trkpt>
      <trkpt lat="43.79485" lon="5.27165">
        <ele>608.445</ele>
        <time>2016-05-07T12:09:55Z</time>
      </trkpt>
      <trkpt lat="43.79485" lon="5.27163">
        <ele>608.757</ele>
        <time>2016-05-07T12:09:56Z</time>
      </trkpt>
      <trkpt lat="43.79498" lon="5.27149">
        <ele>613.326</ele>
        <time>2016-05-07T12:10:01Z</time>
      </trkpt>
      <trkpt lat="43.79495" lon="5.27146">
        <ele>614.718</ele>
        <time>2016-05-07T12:10:04Z</time>
      </trkpt>
      <trkpt lat="43.79482" lon="5.27136">
        <ele>619.099</ele>
        <time>2016-05-07T12:10:12Z</time>
      </trkpt>
      <trkpt lat="43.7948" lon="5.27132">
        <ele>621.84</ele>
        <time>2016-05-07T12:10:17Z</time>
      </trkpt>
      <trkpt lat="43.79477" lon="5.2713">
        <ele>620.375</ele>
        <time>2016-05-07T12:10:21Z</time>
      </trkpt>
      <trkpt lat="43.79474" lon="5.27128">
        <ele>619.14</ele>
        <time>2016-05-07T12:10:24Z</time>
      </trkpt>
      <trkpt lat="43.79472" lon="5.27124">
        <ele>619.325</ele>
        <time>2016-05-07T12:10:27Z</time>
      </trkpt>
      <trkpt lat="43.79474" lon="5.27115">
        <ele>618.983</ele>
        <time>2016-05-07T12:10:33Z</time>
      </trkpt>
      <trkpt lat="43.79471" lon="5.27104">
        <ele>619.116</ele>
        <time>2016-05-07T12:10:39Z</time>
      </trkpt>
      <trkpt lat="43.79471" lon="5.27103">
        <ele>618.664</ele>
        <time>2016-05-07T12:10:40Z</time>
      </trkpt>
      <trkpt lat="43.79471" lon="5.27095">
        <ele>619.003</ele>
        <time>2016-05-07T12:10:46Z</time>
      </trkpt>
      <trkpt lat="43.79474" lon="5.27092">
        <ele>620.077</ele>
        <time>2016-05-07T12:10:48Z</time>
      </trkpt>
      <trkpt lat="43.79483" lon="5.27078">
        <ele>623.486</ele>
        <time>2016-05-07T12:10:55Z</time>
      </trkpt>
      <trkpt lat="43.79483" lon="5.27073">
        <ele>619.332</ele>
        <time>2016-05-07T12:11:01Z</time>
      </trkpt>
      <trkpt lat="43.79484" lon="5.27065">
        <ele>612.339</ele>
        <time>2016-05-07T12:11:08Z</time>
      </trkpt>
      <trkpt lat="43.7949" lon="5.27057">
        <ele>609.771</ele>
        <time>2016-05-07T12:11:15Z</time>
      </trkpt>
      <trkpt lat="43.79491" lon="5.27055">
        <ele>612.095</ele>
        <time>2016-05-07T12:11:23Z</time>
      </trkpt>
      <trkpt lat="43.79488" lon="5.27057">
        <ele>614.54</ele>
        <time>2016-05-07T12:11:30Z</time>
      </trkpt>
      <trkpt lat="43.79488" lon="5.27056">
        <ele>614.244</ele>
        <time>2016-05-07T12:11:33Z</time>
      </trkpt>
      <trkpt lat="43.79487" lon="5.27053">
        <ele>614.176</ele>
        <time>2016-05-07T12:11:39Z</time>
      </trkpt>
      <trkpt lat="43.79488" lon="5.27053">
        <ele>614.096</ele>
        <time>2016-05-07T12:11:44Z</time>
      </trkpt>
      <trkpt lat="43.7949" lon="5.27052">
        <ele>614.006</ele>
        <time>2016-05-07T12:11:51Z</time>
      </trkpt>
      <trkpt lat="43.79491" lon="5.27058">
        <ele>617.631</ele>
        <time>2016-05-07T12:12:43Z</time>
      </trkpt>
      <trkpt lat="43.7949" lon="5.27062">
        <ele>617.435</ele>
        <time>2016-05-07T12:12:52Z</time>
      </trkpt>
      <trkpt lat="43.79489" lon="5.27057">
        <ele>613.903</ele>
        <time>2016-05-07T12:13:02Z</time>
      </trkpt>
      <trkpt lat="43.79489" lon="5.2706">
        <ele>610.012</ele>
        <time>2016-05-07T12:13:21Z</time>
      </trkpt>
      <trkpt lat="43.79484" lon="5.27061">
        <ele>619.344</ele>
        <time>2016-05-07T12:13:44Z</time>
      </trkpt>
      <trkpt lat="43.79484" lon="5.27059">
        <ele>618.243</ele>
        <time>2016-05-07T12:13:58Z</time>
      </trkpt>
      <trkpt lat="43.79481" lon="5.27052">
        <ele>614.064</ele>
        <time>2016-05-07T12:14:04Z</time>
      </trkpt>
      <trkpt lat="43.79487" lon="5.2704">
        <ele>612.639</ele>
        <time>2016-05-07T12:14:12Z</time>
      </trkpt>
      <trkpt lat="43.79481" lon="5.27043">
        <ele>615.168</ele>
        <time>2016-05-07T12:14:23Z</time>
      </trkpt>
      <trkpt lat="43.79479" lon="5.27046">
        <ele>614.437</ele>
        <time>2016-05-07T12:14:28Z</time>
      </trkpt>
      <trkpt lat="43.79477" lon="5.27049">
        <ele>616.326</ele>
        <time>2016-05-07T12:14:34Z</time>
      </trkpt>
      <trkpt lat="43.79474" lon="5.27052">
        <ele>618.274</ele>
        <time>2016-05-07T12:14:44Z</time>
      </trkpt>
      <trkpt lat="43.79469" lon="5.27054">
        <ele>618.425</ele>
        <time>2016-05-07T12:14:49Z</time>
      </trkpt>
      <trkpt lat="43.79467" lon="5.27057">
        <ele>623.33</ele>
        <time>2016-05-07T12:14:55Z</time>
      </trkpt>
      <trkpt lat="43.79467" lon="5.27061">
        <ele>624.064</ele>
        <time>2016-05-07T12:15:01Z</time>
      </trkpt>
      <trkpt lat="43.79466" lon="5.27067">
        <ele>625.312</ele>
        <time>2016-05-07T12:15:08Z</time>
      </trkpt>
      <trkpt lat="43.79464" lon="5.27071">
        <ele>624.399</ele>
        <time>2016-05-07T12:15:13Z</time>
      </trkpt>
      <trkpt lat="43.79463" lon="5.27078">
        <ele>627.182</ele>
        <time>2016-05-07T12:15:20Z</time>
      </trkpt>
      <trkpt lat="43.7946" lon="5.27082">
        <ele>628.423</ele>
        <time>2016-05-07T12:15:25Z</time>
      </trkpt>
      <trkpt lat="43.79462" lon="5.2708">
        <ele>631.467</ele>
        <time>2016-05-07T12:15:32Z</time>
      </trkpt>
      <trkpt lat="43.79465" lon="5.27075">
        <ele>643.236</ele>
        <time>2016-05-07T12:15:47Z</time>
      </trkpt>
      <trkpt lat="43.79466" lon="5.27065">
        <ele>645.326</ele>
        <time>2016-05-07T12:15:53Z</time>
      </trkpt>
      <trkpt lat="43.79465" lon="5.2706">
        <ele>648.186</ele>
        <time>2016-05-07T12:15:59Z</time>
      </trkpt>
      <trkpt lat="43.79466" lon="5.27055">
        <ele>651.257</ele>
        <time>2016-05-07T12:16:04Z</time>
      </trkpt>
      <trkpt lat="43.79466" lon="5.27048">
        <ele>655.141</ele>
        <time>2016-05-07T12:16:10Z</time>
      </trkpt>
      <trkpt lat="43.79464" lon="5.2704">
        <ele>659.775</ele>
        <time>2016-05-07T12:16:18Z</time>
      </trkpt>
      <trkpt lat="43.79464" lon="5.27034">
        <ele>661.461</ele>
        <time>2016-05-07T12:16:25Z</time>
      </trkpt>
      <trkpt lat="43.79457" lon="5.27037">
        <ele>659.052</ele>
        <time>2016-05-07T12:16:32Z</time>
      </trkpt>
      <trkpt lat="43.79454" lon="5.2704">
        <ele>657.193</ele>
        <time>2016-05-07T12:16:35Z</time>
      </trkpt>
      <trkpt lat="43.79449" lon="5.27044">
        <ele>657.065</ele>
        <time>2016-05-07T12:16:43Z</time>
      </trkpt>
      <trkpt lat="43.79446" lon="5.27047">
        <ele>658.959</ele>
        <time>2016-05-07T12:16:50Z</time>
      </trkpt>
      <trkpt lat="43.79432" lon="5.27056">
        <ele>647.23</ele>
        <time>2016-05-07T12:16:57Z</time>
      </trkpt>
      <trkpt lat="43.79428" lon="5.27053">
        <ele>648.574</ele>
        <time>2016-05-07T12:17:04Z</time>
      </trkpt>
      <trkpt lat="43.79425" lon="5.27049">
        <ele>650.937</ele>
        <time>2016-05-07T12:17:10Z</time>
      </trkpt>
      <trkpt lat="43.79424" lon="5.27047">
        <ele>654.59</ele>
        <time>2016-05-07T12:17:15Z</time>
      </trkpt>
      <trkpt lat="43.79419" lon="5.27044">
        <ele>651.676</ele>
        <time>2016-05-07T12:17:20Z</time>
      </trkpt>
      <trkpt lat="43.79409" lon="5.2704">
        <ele>649.674</ele>
        <time>2016-05-07T12:17:34Z</time>
      </trkpt>
      <trkpt lat="43.79406" lon="5.27035">
        <ele>653.01</ele>
        <time>2016-05-07T12:17:41Z</time>
      </trkpt>
      <trkpt lat="43.79401" lon="5.27033">
        <ele>650.485</ele>
        <time>2016-05-07T12:17:47Z</time>
      </trkpt>
      <trkpt lat="43.794" lon="5.27034">
        <ele>651.585</ele>
        <time>2016-05-07T12:17:54Z</time>
      </trkpt>
      <trkpt lat="43.794" lon="5.27035">
        <ele>654.6</ele>
        <time>2016-05-07T12:18:05Z</time>
      </trkpt>
      <trkpt lat="43.79401" lon="5.27028">
        <ele>653.267</ele>
        <time>2016-05-07T12:18:38Z</time>
      </trkpt>
      <trkpt lat="43.79398" lon="5.27038">
        <ele>650.1</ele>
        <time>2016-05-07T12:19:07Z</time>
      </trkpt>
      <trkpt lat="43.79398" lon="5.27048">
        <ele>653.904</ele>
        <time>2016-05-07T12:19:14Z</time>
      </trkpt>
      <trkpt lat="43.79399" lon="5.27052">
        <ele>654.087</ele>
        <time>2016-05-07T12:19:19Z</time>
      </trkpt>
      <trkpt lat="43.79398" lon="5.27056">
        <ele>654.385</ele>
        <time>2016-05-07T12:19:23Z</time>
      </trkpt>
      <trkpt lat="43.79395" lon="5.2707">
        <ele>656.556</ele>
        <time>2016-05-07T12:19:31Z</time>
      </trkpt>
      <trkpt lat="43.7939" lon="5.27081">
        <ele>661.792</ele>
        <time>2016-05-07T12:19:38Z</time>
      </trkpt>
      <trkpt lat="43.79387" lon="5.27086">
        <ele>663.14</ele>
        <time>2016-05-07T12:19:43Z</time>
      </trkpt>
      <trkpt lat="43.79386" lon="5.27085">
        <ele>663.13</ele>
        <time>2016-05-07T12:19:44Z</time>
      </trkpt>
      <trkpt lat="43.79381" lon="5.27089">
        <ele>667.664</ele>
        <time>2016-05-07T12:19:50Z</time>
      </trkpt>
      <trkpt lat="43.79382" lon="5.27087">
        <ele>671.365</ele>
        <time>2016-05-07T12:20:00Z</time>
      </trkpt>
      <trkpt lat="43.7938" lon="5.27089">
        <ele>671.628</ele>
        <time>2016-05-07T12:20:07Z</time>
      </trkpt>
      <trkpt lat="43.79378" lon="5.2709">
        <ele>670.899</ele>
        <time>2016-05-07T12:20:14Z</time>
      </trkpt>
      <trkpt lat="43.79378" lon="5.2709">
        <ele>670.687</ele>
        <time>2016-05-07T12:20:15Z</time>
      </trkpt>
      <trkpt lat="43.79372" lon="5.27097">
        <ele>674.476</ele>
        <time>2016-05-07T12:20:24Z</time>
      </trkpt>
      <trkpt lat="43.79371" lon="5.27096">
        <ele>674.256</ele>
        <time>2016-05-07T12:20:28Z</time>
      </trkpt>
      <trkpt lat="43.79377" lon="5.27087">
        <ele>670.533</ele>
        <time>2016-05-07T12:20:37Z</time>
      </trkpt>
      <trkpt lat="43.79381" lon="5.27083">
        <ele>669.246</ele>
        <time>2016-05-07T12:20:46Z</time>
      </trkpt>
      <trkpt lat="43.79381" lon="5.27081">
        <ele>669.495</ele>
        <time>2016-05-07T12:20:48Z</time>
      </trkpt>
      <trkpt lat="43.79378" lon="5.27076">
        <ele>667.719</ele>
        <time>2016-05-07T12:20:56Z</time>
      </trkpt>
      <trkpt lat="43.79374" lon="5.27068">
        <ele>670.084</ele>
        <time>2016-05-07T12:21:18Z</time>
      </trkpt>
      <trkpt lat="43.79373" lon="5.27068">
        <ele>672.894</ele>
        <time>2016-05-07T12:21:40Z</time>
      </trkpt>
      <trkpt lat="43.79375" lon="5.27065">
        <ele>670.864</ele>
        <time>2016-05-07T12:22:37Z</time>
      </trkpt>
      <trkpt lat="43.79372" lon="5.27067">
        <ele>669.151</ele>
        <time>2016-05-07T12:22:44Z</time>
      </trkpt>
      <trkpt lat="43.79381" lon="5.27076">
        <ele>688.736</ele>
        <time>2016-05-07T13:03:07Z</time>
      </trkpt>
      <trkpt lat="43.79378" lon="5.27076">
        <ele>688.695</ele>
        <time>2016-05-07T13:03:23Z</time>
      </trkpt>
      <trkpt lat="43.79374" lon="5.27072">
        <ele>687.592</ele>
        <time>2016-05-07T13:09:39Z</time>
      </trkpt>
      <trkpt lat="43.79375" lon="5.27068">
        <ele>679.98</ele>
        <time>2016-05-07T13:10:10Z</time>
      </trkpt>
      <trkpt lat="43.79364" lon="5.27077">
        <ele>684.265</ele>
        <time>2016-05-07T13:12:37Z</time>
      </trkpt>
      <trkpt lat="43.79371" lon="5.27075">
        <ele>679.653</ele>
        <time>2016-05-07T13:13:25Z</time>
      </trkpt>
      <trkpt lat="43.7938" lon="5.2708">
        <ele>682.668</ele>
        <time>2016-05-07T13:15:36Z</time>
      </trkpt>
      <trkpt lat="43.7938" lon="5.27088">
        <ele>691.35</ele>
        <time>2016-05-07T13:15:51Z</time>
      </trkpt>
      <trkpt lat="43.79383" lon="5.27093">
        <ele>689.912</ele>
        <time>2016-05-07T13:16:48Z</time>
      </trkpt>
      <trkpt lat="43.79376" lon="5.27081">
        <ele>672.188</ele>
        <time>2016-05-07T13:17:17Z</time>
      </trkpt>
      <trkpt lat="43.79372" lon="5.27077">
        <ele>677.837</ele>
        <time>2016-05-07T13:19:43Z</time>
      </trkpt>
      <trkpt lat="43.79371" lon="5.27079">
        <ele>680.192</ele>
        <time>2016-05-07T13:21:23Z</time>
      </trkpt>
      <trkpt lat="43.79371" lon="5.27079">
        <ele>677.401</ele>
        <time>2016-05-07T13:22:10Z</time>
      </trkpt>
      <trkpt lat="43.79371" lon="5.27085">
        <ele>674.702</ele>
        <time>2016-05-07T13:27:24Z</time>
      </trkpt>
      <trkpt lat="43.79369" lon="5.27079">
        <ele>675.556</ele>
        <time>2016-05-07T13:38:58Z</time>
      </trkpt>
      <trkpt lat="43.79372" lon="5.27079">
        <ele>671.75</ele>
        <time>2016-05-07T13:40:22Z</time>
      </trkpt>
      <trkpt lat="43.79369" lon="5.27076">
        <ele>664.703</ele>
        <time>2016-05-07T13:40:27Z</time>
      </trkpt>
      <trkpt lat="43.79374" lon="5.27077">
        <ele>666.05</ele>
        <time>2016-05-07T13:40:33Z</time>
      </trkpt>
      <trkpt lat="43.79376" lon="5.27074">
        <ele>661.849</ele>
        <time>2016-05-07T13:40:40Z</time>
      </trkpt>
      <trkpt lat="43.79376" lon="5.27076">
        <ele>667.021</ele>
        <time>2016-05-07T13:40:50Z</time>
      </trkpt>
      <trkpt lat="43.79377" lon="5.27077">
        <ele>669.899</ele>
        <time>2016-05-07T13:41:19Z</time>
      </trkpt>
      <trkpt lat="43.79377" lon="5.27076">
        <ele>668.936</ele>
        <time>2016-05-07T13:41:21Z</time>
      </trkpt>
      <trkpt lat="43.79377" lon="5.27074">
        <ele>669.068</ele>
        <time>2016-05-07T13:41:23Z</time>
      </trkpt>
      <trkpt lat="43.79374" lon="5.27068">
        <ele>669.347</ele>
        <time>2016-05-07T13:41:29Z</time>
      </trkpt>
      <trkpt lat="43.79373" lon="5.27063">
        <ele>671.899</ele>
        <time>2016-05-07T13:41:35Z</time>
      </trkpt>
      <trkpt lat="43.7937" lon="5.2706">
        <ele>669.46</ele>
        <time>2016-05-07T13:41:40Z</time>
      </trkpt>
      <trkpt lat="43.7937" lon="5.27057">
        <ele>667.858</ele>
        <time>2016-05-07T13:41:42Z</time>
      </trkpt>
      <trkpt lat="43.79367" lon="5.27051">
        <ele>665.047</ele>
        <time>2016-05-07T13:41:48Z</time>
      </trkpt>
      <trkpt lat="43.79364" lon="5.27045">
        <ele>658.756</ele>
        <time>2016-05-07T13:41:54Z</time>
      </trkpt>
      <trkpt lat="43.79361" lon="5.27041">
        <ele>653.051</ele>
        <time>2016-05-07T13:42:00Z</time>
      </trkpt>
      <trkpt lat="43.79357" lon="5.27029">
        <ele>647.695</ele>
        <time>2016-05-07T13:42:09Z</time>
      </trkpt>
      <trkpt lat="43.79356" lon="5.27021">
        <ele>651.965</ele>
        <time>2016-05-07T13:42:15Z</time>
      </trkpt>
      <trkpt lat="43.79355" lon="5.27013">
        <ele>657.493</ele>
        <time>2016-05-07T13:42:19Z</time>
      </trkpt>
      <trkpt lat="43.79353" lon="5.27005">
        <ele>657.65</ele>
        <time>2016-05-07T13:42:24Z</time>
      </trkpt>
      <trkpt lat="43.79352" lon="5.26992">
        <ele>655.533</ele>
        <time>2016-05-07T13:42:31Z</time>
      </trkpt>
      <trkpt lat="43.7935" lon="5.26989">
        <ele>654.743</ele>
        <time>2016-05-07T13:42:33Z</time>
      </trkpt>
      <trkpt lat="43.79346" lon="5.26975">
        <ele>646.171</ele>
        <time>2016-05-07T13:42:41Z</time>
      </trkpt>
      <trkpt lat="43.79345" lon="5.26969">
        <ele>650.758</ele>
        <time>2016-05-07T13:42:44Z</time>
      </trkpt>
      <trkpt lat="43.79342" lon="5.26957">
        <ele>664.483</ele>
        <time>2016-05-07T13:42:52Z</time>
      </trkpt>
      <trkpt lat="43.79344" lon="5.26952">
        <ele>663.37</ele>
        <time>2016-05-07T13:42:57Z</time>
      </trkpt>
      <trkpt lat="43.79342" lon="5.26949">
        <ele>658.532</ele>
        <time>2016-05-07T13:43:03Z</time>
      </trkpt>
      <trkpt lat="43.79337" lon="5.26936">
        <ele>670.785</ele>
        <time>2016-05-07T13:43:12Z</time>
      </trkpt>
      <trkpt lat="43.79341" lon="5.26927">
        <ele>670.819</ele>
        <time>2016-05-07T13:43:19Z</time>
      </trkpt>
      <trkpt lat="43.79346" lon="5.26912">
        <ele>668.105</ele>
        <time>2016-05-07T13:43:26Z</time>
      </trkpt>
      <trkpt lat="43.7935" lon="5.26907">
        <ele>670.485</ele>
        <time>2016-05-07T13:43:33Z</time>
      </trkpt>
      <trkpt lat="43.79351" lon="5.26907">
        <ele>670.375</ele>
        <time>2016-05-07T13:43:34Z</time>
      </trkpt>
      <trkpt lat="43.79356" lon="5.26899">
        <ele>673.057</ele>
        <time>2016-05-07T13:43:41Z</time>
      </trkpt>
      <trkpt lat="43.79359" lon="5.26891">
        <ele>676.951</ele>
        <time>2016-05-07T13:43:47Z</time>
      </trkpt>
      <trkpt lat="43.79362" lon="5.26887">
        <ele>681.152</ele>
        <time>2016-05-07T13:43:52Z</time>
      </trkpt>
      <trkpt lat="43.79365" lon="5.26884">
        <ele>681.405</ele>
        <time>2016-05-07T13:43:58Z</time>
      </trkpt>
      <trkpt lat="43.7937" lon="5.26877">
        <ele>685.143</ele>
        <time>2016-05-07T13:45:03Z</time>
      </trkpt>
      <trkpt lat="43.79371" lon="5.26878">
        <ele>688.942</ele>
        <time>2016-05-07T13:45:11Z</time>
      </trkpt>
      <trkpt lat="43.79372" lon="5.26872">
        <ele>688.555</ele>
        <time>2016-05-07T13:45:16Z</time>
      </trkpt>
      <trkpt lat="43.79373" lon="5.26869">
        <ele>690.327</ele>
        <time>2016-05-07T13:45:21Z</time>
      </trkpt>
      <trkpt lat="43.79375" lon="5.26864">
        <ele>685.179</ele>
        <time>2016-05-07T13:45:31Z</time>
      </trkpt>
      <trkpt lat="43.79373" lon="5.26854">
        <ele>680.5</ele>
        <time>2016-05-07T13:45:38Z</time>
      </trkpt>
      <trkpt lat="43.79374" lon="5.2685">
        <ele>682.346</ele>
        <time>2016-05-07T13:45:41Z</time>
      </trkpt>
      <trkpt lat="43.79372" lon="5.26847">
        <ele>681.646</ele>
        <time>2016-05-07T13:45:45Z</time>
      </trkpt>
      <trkpt lat="43.79375" lon="5.26839">
        <ele>675.58</ele>
        <time>2016-05-07T13:45:52Z</time>
      </trkpt>
      <trkpt lat="43.79379" lon="5.26833">
        <ele>674.134</ele>
        <time>2016-05-07T13:45:58Z</time>
      </trkpt>
      <trkpt lat="43.79382" lon="5.2682">
        <ele>683.053</ele>
        <time>2016-05-07T13:46:20Z</time>
      </trkpt>
      <trkpt lat="43.79384" lon="5.26811">
        <ele>678.325</ele>
        <time>2016-05-07T13:46:28Z</time>
      </trkpt>
      <trkpt lat="43.79385" lon="5.26804">
        <ele>682.903</ele>
        <time>2016-05-07T13:46:33Z</time>
      </trkpt>
      <trkpt lat="43.79382" lon="5.268">
        <ele>684.909</ele>
        <time>2016-05-07T13:46:37Z</time>
      </trkpt>
      <trkpt lat="43.79383" lon="5.26788">
        <ele>686.179</ele>
        <time>2016-05-07T13:46:44Z</time>
      </trkpt>
      <trkpt lat="43.79383" lon="5.26778">
        <ele>688.346</ele>
        <time>2016-05-07T13:46:51Z</time>
      </trkpt>
      <trkpt lat="43.7938" lon="5.2677">
        <ele>689.419</ele>
        <time>2016-05-07T13:46:57Z</time>
      </trkpt>
      <trkpt lat="43.7938" lon="5.26766">
        <ele>689.616</ele>
        <time>2016-05-07T13:47:00Z</time>
      </trkpt>
      <trkpt lat="43.79378" lon="5.26763">
        <ele>694.021</ele>
        <time>2016-05-07T13:47:06Z</time>
      </trkpt>
      <trkpt lat="43.79377" lon="5.26753">
        <ele>693.718</ele>
        <time>2016-05-07T13:47:13Z</time>
      </trkpt>
      <trkpt lat="43.79376" lon="5.26745">
        <ele>693.161</ele>
        <time>2016-05-07T13:47:19Z</time>
      </trkpt>
      <trkpt lat="43.79375" lon="5.26743">
        <ele>692.53</ele>
        <time>2016-05-07T13:47:20Z</time>
      </trkpt>
      <trkpt lat="43.79373" lon="5.26732">
        <ele>693.399</ele>
        <time>2016-05-07T13:47:27Z</time>
      </trkpt>
      <trkpt lat="43.79372" lon="5.26721">
        <ele>691.969</ele>
        <time>2016-05-07T13:47:33Z</time>
      </trkpt>
      <trkpt lat="43.79367" lon="5.26712">
        <ele>687.713</ele>
        <time>2016-05-07T13:47:41Z</time>
      </trkpt>
      <trkpt lat="43.79367" lon="5.26711">
        <ele>687.631</ele>
        <time>2016-05-07T13:47:48Z</time>
      </trkpt>
      <trkpt lat="43.79366" lon="5.26705">
        <ele>687.555</ele>
        <time>2016-05-07T13:47:56Z</time>
      </trkpt>
      <trkpt lat="43.7936" lon="5.26697">
        <ele>692.037</ele>
        <time>2016-05-07T13:48:03Z</time>
      </trkpt>
      <trkpt lat="43.79354" lon="5.26686">
        <ele>694.007</ele>
        <time>2016-05-07T13:48:11Z</time>
      </trkpt>
      <trkpt lat="43.79351" lon="5.26682">
        <ele>693.514</ele>
        <time>2016-05-07T13:48:17Z</time>
      </trkpt>
      <trkpt lat="43.79351" lon="5.26682">
        <ele>693.264</ele>
        <time>2016-05-07T13:48:19Z</time>
      </trkpt>
      <trkpt lat="43.79351" lon="5.26679">
        <ele>691.034</ele>
        <time>2016-05-07T13:48:27Z</time>
      </trkpt>
      <trkpt lat="43.79353" lon="5.26679">
        <ele>693.449</ele>
        <time>2016-05-07T13:48:56Z</time>
      </trkpt>
      <trkpt lat="43.79353" lon="5.26678">
        <ele>696.932</ele>
        <time>2016-05-07T13:49:28Z</time>
      </trkpt>
      <trkpt lat="43.79351" lon="5.26683">
        <ele>693.904</ele>
        <time>2016-05-07T13:50:45Z</time>
      </trkpt>
      <trkpt lat="43.7935" lon="5.26682">
        <ele>692.611</ele>
        <time>2016-05-07T13:50:57Z</time>
      </trkpt>
      <trkpt lat="43.79352" lon="5.26679">
        <ele>690.259</ele>
        <time>2016-05-07T13:51:02Z</time>
      </trkpt>
      <trkpt lat="43.79354" lon="5.26674">
        <ele>689.983</ele>
        <time>2016-05-07T13:51:08Z</time>
      </trkpt>
      <trkpt lat="43.79354" lon="5.26663">
        <ele>687.096</ele>
        <time>2016-05-07T13:51:15Z</time>
      </trkpt>
      <trkpt lat="43.79354" lon="5.2665">
        <ele>689.134</ele>
        <time>2016-05-07T13:51:22Z</time>
      </trkpt>
      <trkpt lat="43.79353" lon="5.26646">
        <ele>688.643</ele>
        <time>2016-05-07T13:51:28Z</time>
      </trkpt>
      <trkpt lat="43.79353" lon="5.26646">
        <ele>688.536</ele>
        <time>2016-05-07T13:51:29Z</time>
      </trkpt>
      <trkpt lat="43.79362" lon="5.26646">
        <ele>689.575</ele>
        <time>2016-05-07T13:51:35Z</time>
      </trkpt>
      <trkpt lat="43.79366" lon="5.26644">
        <ele>689.597</ele>
        <time>2016-05-07T13:51:39Z</time>
      </trkpt>
      <trkpt lat="43.79371" lon="5.26642">
        <ele>690.198</ele>
        <time>2016-05-07T13:51:45Z</time>
      </trkpt>
      <trkpt lat="43.79376" lon="5.26641">
        <ele>691.152</ele>
        <time>2016-05-07T13:51:50Z</time>
      </trkpt>
      <trkpt lat="43.7938" lon="5.26639">
        <ele>690.899</ele>
        <time>2016-05-07T13:51:55Z</time>
      </trkpt>
      <trkpt lat="43.79383" lon="5.26633">
        <ele>691.579</ele>
        <time>2016-05-07T13:52:01Z</time>
      </trkpt>
      <trkpt lat="43.79386" lon="5.26629">
        <ele>691.065</ele>
        <time>2016-05-07T13:52:06Z</time>
      </trkpt>
      <trkpt lat="43.79394" lon="5.26636">
        <ele>693.27</ele>
        <time>2016-05-07T13:52:13Z</time>
      </trkpt>
      <trkpt lat="43.79395" lon="5.26637">
        <ele>694.321</ele>
        <time>2016-05-07T13:52:15Z</time>
      </trkpt>
      <trkpt lat="43.79397" lon="5.26641">
        <ele>694.719</ele>
        <time>2016-05-07T13:52:20Z</time>
      </trkpt>
      <trkpt lat="43.79403" lon="5.26645">
        <ele>693.729</ele>
        <time>2016-05-07T13:52:26Z</time>
      </trkpt>
      <trkpt lat="43.7941" lon="5.26652">
        <ele>694.219</ele>
        <time>2016-05-07T13:52:33Z</time>
      </trkpt>
      <trkpt lat="43.79417" lon="5.26658">
        <ele>692.332</ele>
        <time>2016-05-07T13:52:40Z</time>
      </trkpt>
      <trkpt lat="43.79425" lon="5.2666">
        <ele>691.789</ele>
        <time>2016-05-07T13:52:48Z</time>
      </trkpt>
      <trkpt lat="43.79434" lon="5.26663">
        <ele>692.567</ele>
        <time>2016-05-07T13:52:56Z</time>
      </trkpt>
      <trkpt lat="43.7944" lon="5.26665">
        <ele>692.106</ele>
        <time>2016-05-07T13:53:02Z</time>
      </trkpt>
      <trkpt lat="43.79448" lon="5.26669">
        <ele>692.309</ele>
        <time>2016-05-07T13:53:10Z</time>
      </trkpt>
      <trkpt lat="43.79457" lon="5.26667">
        <ele>692.749</ele>
        <time>2016-05-07T13:53:18Z</time>
      </trkpt>
      <trkpt lat="43.79457" lon="5.26667">
        <ele>692.743</ele>
        <time>2016-05-07T13:53:19Z</time>
      </trkpt>
      <trkpt lat="43.79466" lon="5.26672">
        <ele>695.872</ele>
        <time>2016-05-07T13:53:29Z</time>
      </trkpt>
      <trkpt lat="43.79467" lon="5.26671">
        <ele>696.951</ele>
        <time>2016-05-07T13:53:54Z</time>
      </trkpt>
      <trkpt lat="43.79473" lon="5.26673">
        <ele>693.687</ele>
        <time>2016-05-07T13:54:02Z</time>
      </trkpt>
      <trkpt lat="43.79485" lon="5.26671">
        <ele>691.187</ele>
        <time>2016-05-07T13:54:10Z</time>
      </trkpt>
      <trkpt lat="43.7949" lon="5.26672">
        <ele>691.184</ele>
        <time>2016-05-07T13:54:16Z</time>
      </trkpt>
      <trkpt lat="43.79501" lon="5.26673">
        <ele>693.453</ele>
        <time>2016-05-07T13:54:25Z</time>
      </trkpt>
      <trkpt lat="43.79506" lon="5.26675">
        <ele>691.727</ele>
        <time>2016-05-07T13:54:30Z</time>
      </trkpt>
      <trkpt lat="43.79513" lon="5.26676">
        <ele>691.569</ele>
        <time>2016-05-07T13:54:36Z</time>
      </trkpt>
      <trkpt lat="43.79517" lon="5.26678">
        <ele>692.033</ele>
        <time>2016-05-07T13:54:42Z</time>
      </trkpt>
      <trkpt lat="43.7952" lon="5.2668">
        <ele>697.287</ele>
        <time>2016-05-07T13:54:50Z</time>
      </trkpt>
      <trkpt lat="43.79525" lon="5.26679">
        <ele>696.708</ele>
        <time>2016-05-07T13:54:56Z</time>
      </trkpt>
      <trkpt lat="43.79532" lon="5.26676">
        <ele>695.042</ele>
        <time>2016-05-07T13:55:07Z</time>
      </trkpt>
      <trkpt lat="43.79541" lon="5.26672">
        <ele>686.325</ele>
        <time>2016-05-07T13:55:22Z</time>
      </trkpt>
      <trkpt lat="43.79549" lon="5.26672">
        <ele>695.464</ele>
        <time>2016-05-07T13:55:30Z</time>
      </trkpt>
      <trkpt lat="43.79553" lon="5.26673">
        <ele>697.848</ele>
        <time>2016-05-07T13:55:32Z</time>
      </trkpt>
      <trkpt lat="43.79568" lon="5.26671">
        <ele>700.877</ele>
        <time>2016-05-07T13:55:40Z</time>
      </trkpt>
      <trkpt lat="43.79574" lon="5.26671">
        <ele>702.783</ele>
        <time>2016-05-07T13:55:45Z</time>
      </trkpt>
      <trkpt lat="43.79578" lon="5.26669">
        <ele>703.813</ele>
        <time>2016-05-07T13:55:51Z</time>
      </trkpt>
      <trkpt lat="43.79583" lon="5.2667">
        <ele>703.016</ele>
        <time>2016-05-07T13:55:57Z</time>
      </trkpt>
      <trkpt lat="43.79589" lon="5.26673">
        <ele>699.3</ele>
        <time>2016-05-07T13:56:09Z</time>
      </trkpt>
      <trkpt lat="43.79589" lon="5.26677">
        <ele>700.102</ele>
        <time>2016-05-07T13:56:21Z</time>
      </trkpt>
      <trkpt lat="43.79595" lon="5.26671">
        <ele>696.267</ele>
        <time>2016-05-07T13:56:30Z</time>
      </trkpt>
      <trkpt lat="43.79602" lon="5.26674">
        <ele>695.024</ele>
        <time>2016-05-07T13:56:38Z</time>
      </trkpt>
      <trkpt lat="43.79603" lon="5.26674">
        <ele>695.867</ele>
        <time>2016-05-07T13:56:40Z</time>
      </trkpt>
      <trkpt lat="43.79605" lon="5.26675">
        <ele>695.768</ele>
        <time>2016-05-07T13:56:42Z</time>
      </trkpt>
      <trkpt lat="43.79616" lon="5.26677">
        <ele>700.734</ele>
        <time>2016-05-07T13:56:50Z</time>
      </trkpt>
      <trkpt lat="43.79621" lon="5.26677">
        <ele>702.569</ele>
        <time>2016-05-07T13:56:54Z</time>
      </trkpt>
      <trkpt lat="43.79631" lon="5.26674">
        <ele>699.883</ele>
        <time>2016-05-07T13:57:02Z</time>
      </trkpt>
      <trkpt lat="43.79638" lon="5.26673">
        <ele>696.772</ele>
        <time>2016-05-07T13:57:09Z</time>
      </trkpt>
      <trkpt lat="43.79644" lon="5.26672">
        <ele>692.499</ele>
        <time>2016-05-07T13:57:16Z</time>
      </trkpt>
      <trkpt lat="43.79652" lon="5.26671">
        <ele>694.873</ele>
        <time>2016-05-07T13:57:22Z</time>
      </trkpt>
      <trkpt lat="43.79654" lon="5.26672">
        <ele>693.902</ele>
        <time>2016-05-07T13:57:28Z</time>
      </trkpt>
      <trkpt lat="43.79665" lon="5.26672">
        <ele>698.044</ele>
        <time>2016-05-07T13:57:37Z</time>
      </trkpt>
      <trkpt lat="43.79671" lon="5.2667">
        <ele>700.696</ele>
        <time>2016-05-07T13:57:44Z</time>
      </trkpt>
      <trkpt lat="43.79679" lon="5.26668">
        <ele>700.598</ele>
        <time>2016-05-07T13:57:50Z</time>
      </trkpt>
      <trkpt lat="43.7969" lon="5.26666">
        <ele>699.346</ele>
        <time>2016-05-07T13:57:57Z</time>
      </trkpt>
      <trkpt lat="43.79695" lon="5.26663">
        <ele>704.552</ele>
        <time>2016-05-07T13:58:01Z</time>
      </trkpt>
      <trkpt lat="43.79709" lon="5.26659">
        <ele>696.424</ele>
        <time>2016-05-07T13:58:22Z</time>
      </trkpt>
      <trkpt lat="43.79718" lon="5.2666">
        <ele>696.785</ele>
        <time>2016-05-07T13:58:29Z</time>
      </trkpt>
      <trkpt lat="43.79724" lon="5.26661">
        <ele>693.548</ele>
        <time>2016-05-07T13:58:34Z</time>
      </trkpt>
      <trkpt lat="43.79729" lon="5.26666">
        <ele>694.414</ele>
        <time>2016-05-07T13:58:41Z</time>
      </trkpt>
      <trkpt lat="43.79739" lon="5.2667">
        <ele>695.796</ele>
        <time>2016-05-07T13:58:49Z</time>
      </trkpt>
      <trkpt lat="43.79747" lon="5.26669">
        <ele>699.939</ele>
        <time>2016-05-07T13:58:55Z</time>
      </trkpt>
      <trkpt lat="43.79752" lon="5.26669">
        <ele>702.042</ele>
        <time>2016-05-07T13:59:00Z</time>
      </trkpt>
      <trkpt lat="43.79759" lon="5.26674">
        <ele>702.806</ele>
        <time>2016-05-07T13:59:07Z</time>
      </trkpt>
      <trkpt lat="43.79764" lon="5.26677">
        <ele>705.048</ele>
        <time>2016-05-07T13:59:12Z</time>
      </trkpt>
      <trkpt lat="43.79772" lon="5.26678">
        <ele>701.778</ele>
        <time>2016-05-07T13:59:18Z</time>
      </trkpt>
      <trkpt lat="43.79777" lon="5.26681">
        <ele>700.065</ele>
        <time>2016-05-07T13:59:24Z</time>
      </trkpt>
      <trkpt lat="43.79781" lon="5.26683">
        <ele>701.368</ele>
        <time>2016-05-07T13:59:30Z</time>
      </trkpt>
      <trkpt lat="43.79782" lon="5.26683">
        <ele>701.975</ele>
        <time>2016-05-07T13:59:32Z</time>
      </trkpt>
      <trkpt lat="43.79786" lon="5.26687">
        <ele>701.396</ele>
        <time>2016-05-07T13:59:36Z</time>
      </trkpt>
      <trkpt lat="43.79792" lon="5.26687">
        <ele>701.933</ele>
        <time>2016-05-07T13:59:39Z</time>
      </trkpt>
      <trkpt lat="43.79794" lon="5.26687">
        <ele>702.829</ele>
        <time>2016-05-07T13:59:43Z</time>
      </trkpt>
      <trkpt lat="43.79796" lon="5.2669">
        <ele>703.623</ele>
        <time>2016-05-07T13:59:47Z</time>
      </trkpt>
      <trkpt lat="43.79806" lon="5.26693">
        <ele>705.562</ele>
        <time>2016-05-07T13:59:55Z</time>
      </trkpt>
      <trkpt lat="43.79812" lon="5.26696">
        <ele>702.82</ele>
        <time>2016-05-07T14:00:00Z</time>
      </trkpt>
      <trkpt lat="43.79819" lon="5.26696">
        <ele>706.633</ele>
        <time>2016-05-07T14:00:07Z</time>
      </trkpt>
      <trkpt lat="43.79827" lon="5.26699">
        <ele>703.999</ele>
        <time>2016-05-07T14:00:12Z</time>
      </trkpt>
      <trkpt lat="43.79832" lon="5.267">
        <ele>701.078</ele>
        <time>2016-05-07T14:00:18Z</time>
      </trkpt>
      <trkpt lat="43.79838" lon="5.26705">
        <ele>699.007</ele>
        <time>2016-05-07T14:00:24Z</time>
      </trkpt>
      <trkpt lat="43.79856" lon="5.26707">
        <ele>706.103</ele>
        <time>2016-05-07T14:00:40Z</time>
      </trkpt>
      <trkpt lat="43.79862" lon="5.26706">
        <ele>704.38</ele>
        <time>2016-05-07T14:00:46Z</time>
      </trkpt>
      <trkpt lat="43.79866" lon="5.26708">
        <ele>700.5</ele>
        <time>2016-05-07T14:00:52Z</time>
      </trkpt>
      <trkpt lat="43.79869" lon="5.26708">
        <ele>701.148</ele>
        <time>2016-05-07T14:00:55Z</time>
      </trkpt>
      <trkpt lat="43.79878" lon="5.26713">
        <ele>703.449</ele>
        <time>2016-05-07T14:01:05Z</time>
      </trkpt>
      <trkpt lat="43.79884" lon="5.26718">
        <ele>705.422</ele>
        <time>2016-05-07T14:01:11Z</time>
      </trkpt>
      <trkpt lat="43.79885" lon="5.26719">
        <ele>705.623</ele>
        <time>2016-05-07T14:01:12Z</time>
      </trkpt>
      <trkpt lat="43.7989" lon="5.26723">
        <ele>712.607</ele>
        <time>2016-05-07T14:01:19Z</time>
      </trkpt>
      <trkpt lat="43.79896" lon="5.26724">
        <ele>712.445</ele>
        <time>2016-05-07T14:01:24Z</time>
      </trkpt>
      <trkpt lat="43.79905" lon="5.26725">
        <ele>708.71</ele>
        <time>2016-05-07T14:01:34Z</time>
      </trkpt>
      <trkpt lat="43.79914" lon="5.26725">
        <ele>709.277</ele>
        <time>2016-05-07T14:01:43Z</time>
      </trkpt>
      <trkpt lat="43.79916" lon="5.26724">
        <ele>709.809</ele>
        <time>2016-05-07T14:01:45Z</time>
      </trkpt>
      <trkpt lat="43.7992" lon="5.26725">
        <ele>705.912</ele>
        <time>2016-05-07T14:01:51Z</time>
      </trkpt>
      <trkpt lat="43.79921" lon="5.26726">
        <ele>705.349</ele>
        <time>2016-05-07T14:01:52Z</time>
      </trkpt>
      <trkpt lat="43.79931" lon="5.26725">
        <ele>705.948</ele>
        <time>2016-05-07T14:01:59Z</time>
      </trkpt>
      <trkpt lat="43.79935" lon="5.26723">
        <ele>699.6</ele>
        <time>2016-05-07T14:02:06Z</time>
      </trkpt>
      <trkpt lat="43.79939" lon="5.26723">
        <ele>698.7</ele>
        <time>2016-05-07T14:02:08Z</time>
      </trkpt>
      <trkpt lat="43.7995" lon="5.26723">
        <ele>700.22</ele>
        <time>2016-05-07T14:02:17Z</time>
      </trkpt>
      <trkpt lat="43.79956" lon="5.26723">
        <ele>700.697</ele>
        <time>2016-05-07T14:02:22Z</time>
      </trkpt>
      <trkpt lat="43.7996" lon="5.26726">
        <ele>705.764</ele>
        <time>2016-05-07T14:02:25Z</time>
      </trkpt>
      <trkpt lat="43.79968" lon="5.26726">
        <ele>709.821</ele>
        <time>2016-05-07T14:02:32Z</time>
      </trkpt>
      <trkpt lat="43.79974" lon="5.26728">
        <ele>711.173</ele>
        <time>2016-05-07T14:02:38Z</time>
      </trkpt>
      <trkpt lat="43.79982" lon="5.26729">
        <ele>710.663</ele>
        <time>2016-05-07T14:02:45Z</time>
      </trkpt>
      <trkpt lat="43.7999" lon="5.26727">
        <ele>705.818</ele>
        <time>2016-05-07T14:02:51Z</time>
      </trkpt>
      <trkpt lat="43.79996" lon="5.26726">
        <ele>707.795</ele>
        <time>2016-05-07T14:02:56Z</time>
      </trkpt>
      <trkpt lat="43.80005" lon="5.26729">
        <ele>703.351</ele>
        <time>2016-05-07T14:03:02Z</time>
      </trkpt>
      <trkpt lat="43.8001" lon="5.26727">
        <ele>703.614</ele>
        <time>2016-05-07T14:03:08Z</time>
      </trkpt>
      <trkpt lat="43.80014" lon="5.26728">
        <ele>704.553</ele>
        <time>2016-05-07T14:03:11Z</time>
      </trkpt>
      <trkpt lat="43.80019" lon="5.2673">
        <ele>703.912</ele>
        <time>2016-05-07T14:03:16Z</time>
      </trkpt>
      <trkpt lat="43.80022" lon="5.26731">
        <ele>700.654</ele>
        <time>2016-05-07T14:03:21Z</time>
      </trkpt>
      <trkpt lat="43.80031" lon="5.26731">
        <ele>706.153</ele>
        <time>2016-05-07T14:03:29Z</time>
      </trkpt>
      <trkpt lat="43.80036" lon="5.2673">
        <ele>707.382</ele>
        <time>2016-05-07T14:03:35Z</time>
      </trkpt>
      <trkpt lat="43.80041" lon="5.26731">
        <ele>706.974</ele>
        <time>2016-05-07T14:03:40Z</time>
      </trkpt>
      <trkpt lat="43.80051" lon="5.26731">
        <ele>706.165</ele>
        <time>2016-05-07T14:03:48Z</time>
      </trkpt>
      <trkpt lat="43.80056" lon="5.26732">
        <ele>705.755</ele>
        <time>2016-05-07T14:03:54Z</time>
      </trkpt>
      <trkpt lat="43.8006" lon="5.26733">
        <ele>704.731</ele>
        <time>2016-05-07T14:03:57Z</time>
      </trkpt>
      <trkpt lat="43.80072" lon="5.26733">
        <ele>707.418</ele>
        <time>2016-05-07T14:04:04Z</time>
      </trkpt>
      <trkpt lat="43.80077" lon="5.26731">
        <ele>707.189</ele>
        <time>2016-05-07T14:04:10Z</time>
      </trkpt>
      <trkpt lat="43.80079" lon="5.26731">
        <ele>707.031</ele>
        <time>2016-05-07T14:04:12Z</time>
      </trkpt>
      <trkpt lat="43.80087" lon="5.26731">
        <ele>706.534</ele>
        <time>2016-05-07T14:04:19Z</time>
      </trkpt>
      <trkpt lat="43.80093" lon="5.2673">
        <ele>708.238</ele>
        <time>2016-05-07T14:04:26Z</time>
      </trkpt>
      <trkpt lat="43.80092" lon="5.26729">
        <ele>704.479</ele>
        <time>2016-05-07T14:04:32Z</time>
      </trkpt>
      <trkpt lat="43.80092" lon="5.26728">
        <ele>704.941</ele>
        <time>2016-05-07T14:04:39Z</time>
      </trkpt>
      <trkpt lat="43.80096" lon="5.26729">
        <ele>702.4</ele>
        <time>2016-05-07T14:04:45Z</time>
      </trkpt>
      <trkpt lat="43.80098" lon="5.26728">
        <ele>701.409</ele>
        <time>2016-05-07T14:04:47Z</time>
      </trkpt>
      <trkpt lat="43.80106" lon="5.26734">
        <ele>702.666</ele>
        <time>2016-05-07T14:04:53Z</time>
      </trkpt>
      <trkpt lat="43.80106" lon="5.26736">
        <ele>703.384</ele>
        <time>2016-05-07T14:04:54Z</time>
      </trkpt>
      <trkpt lat="43.80109" lon="5.26742">
        <ele>702.931</ele>
        <time>2016-05-07T14:04:59Z</time>
      </trkpt>
      <trkpt lat="43.80111" lon="5.26747">
        <ele>704.841</ele>
        <time>2016-05-07T14:05:03Z</time>
      </trkpt>
      <trkpt lat="43.80116" lon="5.26756">
        <ele>708.722</ele>
        <time>2016-05-07T14:05:09Z</time>
      </trkpt>
      <trkpt lat="43.80117" lon="5.26761">
        <ele>711.964</ele>
        <time>2016-05-07T14:05:14Z</time>
      </trkpt>
      <trkpt lat="43.80118" lon="5.26766">
        <ele>706.476</ele>
        <time>2016-05-07T14:05:20Z</time>
      </trkpt>
      <trkpt lat="43.80118" lon="5.26774">
        <ele>704.05</ele>
        <time>2016-05-07T14:05:28Z</time>
      </trkpt>
      <trkpt lat="43.80119" lon="5.26785">
        <ele>706.165</ele>
        <time>2016-05-07T14:05:35Z</time>
      </trkpt>
      <trkpt lat="43.80118" lon="5.26786">
        <ele>704.932</ele>
        <time>2016-05-07T14:05:40Z</time>
      </trkpt>
      <trkpt lat="43.80119" lon="5.26785">
        <ele>703.733</ele>
        <time>2016-05-07T14:05:47Z</time>
      </trkpt>
      <trkpt lat="43.80121" lon="5.26789">
        <ele>709.941</ele>
        <time>2016-05-07T14:05:59Z</time>
      </trkpt>
      <trkpt lat="43.80124" lon="5.26797">
        <ele>710.292</ele>
        <time>2016-05-07T14:06:06Z</time>
      </trkpt>
      <trkpt lat="43.80124" lon="5.26807">
        <ele>707.066</ele>
        <time>2016-05-07T14:06:14Z</time>
      </trkpt>
      <trkpt lat="43.80122" lon="5.26816">
        <ele>705.612</ele>
        <time>2016-05-07T14:06:20Z</time>
      </trkpt>
      <trkpt lat="43.80122" lon="5.2682">
        <ele>705.805</ele>
        <time>2016-05-07T14:06:22Z</time>
      </trkpt>
      <trkpt lat="43.80122" lon="5.26825">
        <ele>705.653</ele>
        <time>2016-05-07T14:06:26Z</time>
      </trkpt>
      <trkpt lat="43.8012" lon="5.26836">
        <ele>714.09</ele>
        <time>2016-05-07T14:06:34Z</time>
      </trkpt>
      <trkpt lat="43.8012" lon="5.26838">
        <ele>717.085</ele>
        <time>2016-05-07T14:06:36Z</time>
      </trkpt>
      <trkpt lat="43.80116" lon="5.2685">
        <ele>714.856</ele>
        <time>2016-05-07T14:06:43Z</time>
      </trkpt>
      <trkpt lat="43.80116" lon="5.26851">
        <ele>714.787</ele>
        <time>2016-05-07T14:06:44Z</time>
      </trkpt>
      <trkpt lat="43.80115" lon="5.26855">
        <ele>715.257</ele>
        <time>2016-05-07T14:06:47Z</time>
      </trkpt>
      <trkpt lat="43.80112" lon="5.26867">
        <ele>710.795</ele>
        <time>2016-05-07T14:06:55Z</time>
      </trkpt>
      <trkpt lat="43.80113" lon="5.26869">
        <ele>707.915</ele>
        <time>2016-05-07T14:06:58Z</time>
      </trkpt>
      <trkpt lat="43.80113" lon="5.2688">
        <ele>706.659</ele>
        <time>2016-05-07T14:07:05Z</time>
      </trkpt>
      <trkpt lat="43.80109" lon="5.2689">
        <ele>705.959</ele>
        <time>2016-05-07T14:07:12Z</time>
      </trkpt>
      <trkpt lat="43.80107" lon="5.269">
        <ele>706.539</ele>
        <time>2016-05-07T14:07:18Z</time>
      </trkpt>
      <trkpt lat="43.80105" lon="5.26913">
        <ele>707.77</ele>
        <time>2016-05-07T14:07:26Z</time>
      </trkpt>
      <trkpt lat="43.80103" lon="5.26919">
        <ele>705.13</ele>
        <time>2016-05-07T14:07:32Z</time>
      </trkpt>
      <trkpt lat="43.80101" lon="5.26921">
        <ele>705.209</ele>
        <time>2016-05-07T14:07:34Z</time>
      </trkpt>
      <trkpt lat="43.80099" lon="5.26932">
        <ele>705.878</ele>
        <time>2016-05-07T14:07:40Z</time>
      </trkpt>
      <trkpt lat="43.80096" lon="5.26948">
        <ele>706.773</ele>
        <time>2016-05-07T14:07:49Z</time>
      </trkpt>
      <trkpt lat="43.80091" lon="5.26957">
        <ele>707.722</ele>
        <time>2016-05-07T14:07:57Z</time>
      </trkpt>
      <trkpt lat="43.80088" lon="5.26968">
        <ele>707.57</ele>
        <time>2016-05-07T14:08:05Z</time>
      </trkpt>
      <trkpt lat="43.80086" lon="5.26978">
        <ele>705.193</ele>
        <time>2016-05-07T14:08:12Z</time>
      </trkpt>
      <trkpt lat="43.80084" lon="5.26984">
        <ele>706.929</ele>
        <time>2016-05-07T14:08:15Z</time>
      </trkpt>
      <trkpt lat="43.80079" lon="5.2699">
        <ele>705.257</ele>
        <time>2016-05-07T14:08:20Z</time>
      </trkpt>
      <trkpt lat="43.80077" lon="5.27004">
        <ele>704.994</ele>
        <time>2016-05-07T14:08:29Z</time>
      </trkpt>
      <trkpt lat="43.80073" lon="5.27012">
        <ele>706.906</ele>
        <time>2016-05-07T14:08:35Z</time>
      </trkpt>
      <trkpt lat="43.80071" lon="5.27015">
        <ele>707.41</ele>
        <time>2016-05-07T14:08:37Z</time>
      </trkpt>
      <trkpt lat="43.80071" lon="5.27028">
        <ele>706.349</ele>
        <time>2016-05-07T14:08:43Z</time>
      </trkpt>
      <trkpt lat="43.8007" lon="5.27033">
        <ele>704.711</ele>
        <time>2016-05-07T14:08:48Z</time>
      </trkpt>
      <trkpt lat="43.80062" lon="5.27037">
        <ele>703.683</ele>
        <time>2016-05-07T14:08:55Z</time>
      </trkpt>
      <trkpt lat="43.80052" lon="5.27036">
        <ele>700.742</ele>
        <time>2016-05-07T14:09:02Z</time>
      </trkpt>
      <trkpt lat="43.80046" lon="5.27037">
        <ele>697.546</ele>
        <time>2016-05-07T14:09:08Z</time>
      </trkpt>
      <trkpt lat="43.80046" lon="5.27037">
        <ele>698.967</ele>
        <time>2016-05-07T14:09:14Z</time>
      </trkpt>
      <trkpt lat="43.80045" lon="5.27039">
        <ele>700.813</ele>
        <time>2016-05-07T14:09:20Z</time>
      </trkpt>
      <trkpt lat="43.80041" lon="5.27043">
        <ele>705.143</ele>
        <time>2016-05-07T14:09:32Z</time>
      </trkpt>
      <trkpt lat="43.80039" lon="5.27046">
        <ele>708.371</ele>
        <time>2016-05-07T14:09:38Z</time>
      </trkpt>
      <trkpt lat="43.80034" lon="5.27044">
        <ele>703.638</ele>
        <time>2016-05-07T14:09:46Z</time>
      </trkpt>
      <trkpt lat="43.80038" lon="5.27038">
        <ele>711.296</ele>
        <time>2016-05-07T14:10:11Z</time>
      </trkpt>
      <trkpt lat="43.80043" lon="5.27036">
        <ele>712.458</ele>
        <time>2016-05-07T14:10:22Z</time>
      </trkpt>
      <trkpt lat="43.80043" lon="5.27043">
        <ele>704.101</ele>
        <time>2016-05-07T14:10:43Z</time>
      </trkpt>
      <trkpt lat="43.80036" lon="5.27056">
        <ele>708.576</ele>
        <time>2016-05-07T14:10:51Z</time>
      </trkpt>
      <trkpt lat="43.80032" lon="5.27063">
        <ele>708.329</ele>
        <time>2016-05-07T14:10:57Z</time>
      </trkpt>
      <trkpt lat="43.80031" lon="5.27066">
        <ele>708.236</ele>
        <time>2016-05-07T14:10:59Z</time>
      </trkpt>
      <trkpt lat="43.80028" lon="5.27077">
        <ele>706.131</ele>
        <time>2016-05-07T14:11:04Z</time>
      </trkpt>
      <trkpt lat="43.80031" lon="5.27084">
        <ele>706.297</ele>
        <time>2016-05-07T14:11:09Z</time>
      </trkpt>
      <trkpt lat="43.80027" lon="5.27094">
        <ele>702.694</ele>
        <time>2016-05-07T14:11:16Z</time>
      </trkpt>
      <trkpt lat="43.80022" lon="5.27105">
        <ele>690.319</ele>
        <time>2016-05-07T14:11:23Z</time>
      </trkpt>
      <trkpt lat="43.80018" lon="5.27109">
        <ele>689.276</ele>
        <time>2016-05-07T14:11:26Z</time>
      </trkpt>
      <trkpt lat="43.80012" lon="5.27116">
        <ele>694.714</ele>
        <time>2016-05-07T14:11:34Z</time>
      </trkpt>
      <trkpt lat="43.80009" lon="5.27121">
        <ele>696.271</ele>
        <time>2016-05-07T14:11:39Z</time>
      </trkpt>
      <trkpt lat="43.79998" lon="5.27129">
        <ele>700.204</ele>
        <time>2016-05-07T14:11:46Z</time>
      </trkpt>
      <trkpt lat="43.79993" lon="5.27137">
        <ele>701.611</ele>
        <time>2016-05-07T14:11:53Z</time>
      </trkpt>
      <trkpt lat="43.7999" lon="5.27137">
        <ele>691.058</ele>
        <time>2016-05-07T14:12:06Z</time>
      </trkpt>
      <trkpt lat="43.79989" lon="5.27139">
        <ele>699.381</ele>
        <time>2016-05-07T14:12:18Z</time>
      </trkpt>
      <trkpt lat="43.79988" lon="5.27139">
        <ele>704.319</ele>
        <time>2016-05-07T14:12:29Z</time>
      </trkpt>
      <trkpt lat="43.79988" lon="5.27134">
        <ele>705.751</ele>
        <time>2016-05-07T14:12:50Z</time>
      </trkpt>
      <trkpt lat="43.7999" lon="5.27137">
        <ele>704.243</ele>
        <time>2016-05-07T14:12:56Z</time>
      </trkpt>
      <trkpt lat="43.79994" lon="5.27151">
        <ele>699.495</ele>
        <time>2016-05-07T14:13:06Z</time>
      </trkpt>
      <trkpt lat="43.7999" lon="5.27154">
        <ele>698.917</ele>
        <time>2016-05-07T14:13:12Z</time>
      </trkpt>
      <trkpt lat="43.79988" lon="5.27157">
        <ele>697.368</ele>
        <time>2016-05-07T14:13:18Z</time>
      </trkpt>
      <trkpt lat="43.79988" lon="5.27162">
        <ele>693.151</ele>
        <time>2016-05-07T14:13:24Z</time>
      </trkpt>
      <trkpt lat="43.79984" lon="5.27165">
        <ele>698.142</ele>
        <time>2016-05-07T14:13:31Z</time>
      </trkpt>
      <trkpt lat="43.79986" lon="5.27166">
        <ele>702.352</ele>
        <time>2016-05-07T14:13:38Z</time>
      </trkpt>
      <trkpt lat="43.79985" lon="5.27166">
        <ele>703.278</ele>
        <time>2016-05-07T14:13:42Z</time>
      </trkpt>
      <trkpt lat="43.79985" lon="5.27176">
        <ele>703.347</ele>
        <time>2016-05-07T14:13:48Z</time>
      </trkpt>
      <trkpt lat="43.79989" lon="5.27178">
        <ele>706.232</ele>
        <time>2016-05-07T14:13:52Z</time>
      </trkpt>
      <trkpt lat="43.79995" lon="5.27182">
        <ele>705.301</ele>
        <time>2016-05-07T14:13:59Z</time>
      </trkpt>
      <trkpt lat="43.8" lon="5.27183">
        <ele>702.258</ele>
        <time>2016-05-07T14:14:05Z</time>
      </trkpt>
      <trkpt lat="43.80004" lon="5.27185">
        <ele>701.706</ele>
        <time>2016-05-07T14:14:09Z</time>
      </trkpt>
      <trkpt lat="43.80008" lon="5.27188">
        <ele>697.957</ele>
        <time>2016-05-07T14:14:15Z</time>
      </trkpt>
      <trkpt lat="43.80016" lon="5.27191">
        <ele>699.808</ele>
        <time>2016-05-07T14:14:21Z</time>
      </trkpt>
      <trkpt lat="43.80018" lon="5.27192">
        <ele>702.809</ele>
        <time>2016-05-07T14:14:22Z</time>
      </trkpt>
      <trkpt lat="43.8002" lon="5.27197">
        <ele>706.484</ele>
        <time>2016-05-07T14:14:25Z</time>
      </trkpt>
      <trkpt lat="43.80027" lon="5.27208">
        <ele>710.075</ele>
        <time>2016-05-07T14:14:32Z</time>
      </trkpt>
      <trkpt lat="43.8003" lon="5.27213">
        <ele>709.728</ele>
        <time>2016-05-07T14:14:35Z</time>
      </trkpt>
      <trkpt lat="43.8003" lon="5.27211">
        <ele>705.486</ele>
        <time>2016-05-07T14:14:40Z</time>
      </trkpt>
      <trkpt lat="43.80031" lon="5.27214">
        <ele>704.073</ele>
        <time>2016-05-07T14:14:45Z</time>
      </trkpt>
      <trkpt lat="43.80033" lon="5.27218">
        <ele>703.562</ele>
        <time>2016-05-07T14:14:47Z</time>
      </trkpt>
      <trkpt lat="43.80033" lon="5.27223">
        <ele>705.909</ele>
        <time>2016-05-07T14:14:49Z</time>
      </trkpt>
      <trkpt lat="43.80032" lon="5.27226">
        <ele>703.405</ele>
        <time>2016-05-07T14:14:55Z</time>
      </trkpt>
      <trkpt lat="43.80031" lon="5.27232">
        <ele>702.511</ele>
        <time>2016-05-07T14:14:59Z</time>
      </trkpt>
      <trkpt lat="43.8003" lon="5.27239">
        <ele>701.358</ele>
        <time>2016-05-07T14:15:04Z</time>
      </trkpt>
      <trkpt lat="43.80025" lon="5.27249">
        <ele>702.237</ele>
        <time>2016-05-07T14:15:09Z</time>
      </trkpt>
      <trkpt lat="43.80026" lon="5.2725">
        <ele>703.25</ele>
        <time>2016-05-07T14:15:10Z</time>
      </trkpt>
      <trkpt lat="43.80023" lon="5.27263">
        <ele>699.977</ele>
        <time>2016-05-07T14:15:19Z</time>
      </trkpt>
      <trkpt lat="43.80022" lon="5.27267">
        <ele>698.427</ele>
        <time>2016-05-07T14:15:21Z</time>
      </trkpt>
      <trkpt lat="43.80021" lon="5.27278">
        <ele>697.164</ele>
        <time>2016-05-07T14:15:27Z</time>
      </trkpt>
      <trkpt lat="43.80019" lon="5.27285">
        <ele>697.557</ele>
        <time>2016-05-07T14:15:33Z</time>
      </trkpt>
      <trkpt lat="43.80017" lon="5.27294">
        <ele>696.466</ele>
        <time>2016-05-07T14:15:38Z</time>
      </trkpt>
      <trkpt lat="43.80015" lon="5.27305">
        <ele>694.997</ele>
        <time>2016-05-07T14:15:44Z</time>
      </trkpt>
      <trkpt lat="43.80014" lon="5.27308">
        <ele>693.568</ele>
        <time>2016-05-07T14:15:46Z</time>
      </trkpt>
      <trkpt lat="43.8001" lon="5.2732">
        <ele>696.132</ele>
        <time>2016-05-07T14:15:53Z</time>
      </trkpt>
      <trkpt lat="43.8001" lon="5.27332">
        <ele>697.359</ele>
        <time>2016-05-07T14:16:01Z</time>
      </trkpt>
      <trkpt lat="43.80013" lon="5.27341">
        <ele>698.945</ele>
        <time>2016-05-07T14:16:07Z</time>
      </trkpt>
      <trkpt lat="43.80013" lon="5.2735">
        <ele>696.979</ele>
        <time>2016-05-07T14:16:14Z</time>
      </trkpt>
      <trkpt lat="43.80013" lon="5.27355">
        <ele>696.388</ele>
        <time>2016-05-07T14:16:17Z</time>
      </trkpt>
      <trkpt lat="43.80015" lon="5.27363">
        <ele>703.14</ele>
        <time>2016-05-07T14:16:22Z</time>
      </trkpt>
      <trkpt lat="43.80016" lon="5.2737">
        <ele>702.628</ele>
        <time>2016-05-07T14:16:28Z</time>
      </trkpt>
      <trkpt lat="43.80016" lon="5.27371">
        <ele>702.434</ele>
        <time>2016-05-07T14:16:29Z</time>
      </trkpt>
      <trkpt lat="43.80021" lon="5.27383">
        <ele>704.256</ele>
        <time>2016-05-07T14:16:35Z</time>
      </trkpt>
      <trkpt lat="43.8002" lon="5.27385">
        <ele>704.762</ele>
        <time>2016-05-07T14:16:36Z</time>
      </trkpt>
      <trkpt lat="43.80021" lon="5.27401">
        <ele>701.392</ele>
        <time>2016-05-07T14:16:45Z</time>
      </trkpt>
      <trkpt lat="43.80021" lon="5.27407">
        <ele>699.633</ele>
        <time>2016-05-07T14:16:49Z</time>
      </trkpt>
      <trkpt lat="43.8002" lon="5.2742">
        <ele>697.824</ele>
        <time>2016-05-07T14:16:56Z</time>
      </trkpt>
      <trkpt lat="43.80019" lon="5.27432">
        <ele>699.477</ele>
        <time>2016-05-07T14:17:03Z</time>
      </trkpt>
      <trkpt lat="43.80017" lon="5.27434">
        <ele>698.233</ele>
        <time>2016-05-07T14:17:07Z</time>
      </trkpt>
      <trkpt lat="43.8002" lon="5.27441">
        <ele>700.431</ele>
        <time>2016-05-07T14:17:11Z</time>
      </trkpt>
      <trkpt lat="43.80022" lon="5.27448">
        <ele>702.031</ele>
        <time>2016-05-07T14:17:16Z</time>
      </trkpt>
      <trkpt lat="43.80026" lon="5.27454">
        <ele>699.424</ele>
        <time>2016-05-07T14:17:21Z</time>
      </trkpt>
      <trkpt lat="43.80027" lon="5.27461">
        <ele>701.098</ele>
        <time>2016-05-07T14:17:25Z</time>
      </trkpt>
      <trkpt lat="43.8003" lon="5.27472">
        <ele>702.079</ele>
        <time>2016-05-07T14:17:30Z</time>
      </trkpt>
      <trkpt lat="43.80028" lon="5.27475">
        <ele>697.912</ele>
        <time>2016-05-07T14:17:36Z</time>
      </trkpt>
      <trkpt lat="43.80031" lon="5.27482">
        <ele>700.129</ele>
        <time>2016-05-07T14:17:42Z</time>
      </trkpt>
      <trkpt lat="43.80033" lon="5.27495">
        <ele>698.807</ele>
        <time>2016-05-07T14:17:49Z</time>
      </trkpt>
      <trkpt lat="43.80036" lon="5.27506">
        <ele>698.127</ele>
        <time>2016-05-07T14:17:55Z</time>
      </trkpt>
      <trkpt lat="43.8004" lon="5.27516">
        <ele>698.607</ele>
        <time>2016-05-07T14:18:01Z</time>
      </trkpt>
      <trkpt lat="43.80043" lon="5.27524">
        <ele>700.22</ele>
        <time>2016-05-07T14:18:06Z</time>
      </trkpt>
      <trkpt lat="43.80045" lon="5.27538">
        <ele>698.954</ele>
        <time>2016-05-07T14:18:14Z</time>
      </trkpt>
      <trkpt lat="43.8005" lon="5.27548">
        <ele>700.748</ele>
        <time>2016-05-07T14:18:22Z</time>
      </trkpt>
      <trkpt lat="43.80054" lon="5.27554">
        <ele>698.934</ele>
        <time>2016-05-07T14:18:28Z</time>
      </trkpt>
      <trkpt lat="43.80061" lon="5.27569">
        <ele>699.218</ele>
        <time>2016-05-07T14:18:36Z</time>
      </trkpt>
      <trkpt lat="43.80066" lon="5.27577">
        <ele>697.047</ele>
        <time>2016-05-07T14:18:42Z</time>
      </trkpt>
      <trkpt lat="43.80068" lon="5.27588">
        <ele>699.361</ele>
        <time>2016-05-07T14:18:49Z</time>
      </trkpt>
      <trkpt lat="43.8007" lon="5.27596">
        <ele>699.56</ele>
        <time>2016-05-07T14:18:53Z</time>
      </trkpt>
      <trkpt lat="43.80073" lon="5.27607">
        <ele>700.894</ele>
        <time>2016-05-07T14:19:00Z</time>
      </trkpt>
      <trkpt lat="43.80078" lon="5.27618">
        <ele>703.865</ele>
        <time>2016-05-07T14:19:06Z</time>
      </trkpt>
      <trkpt lat="43.80084" lon="5.27629">
        <ele>702.604</ele>
        <time>2016-05-07T14:19:14Z</time>
      </trkpt>
      <trkpt lat="43.80086" lon="5.27632">
        <ele>701.26</ele>
        <time>2016-05-07T14:19:19Z</time>
      </trkpt>
      <trkpt lat="43.80091" lon="5.27642">
        <ele>700.13</ele>
        <time>2016-05-07T14:19:25Z</time>
      </trkpt>
      <trkpt lat="43.80101" lon="5.2765">
        <ele>696.976</ele>
        <time>2016-05-07T14:19:33Z</time>
      </trkpt>
      <trkpt lat="43.80102" lon="5.27651">
        <ele>696.817</ele>
        <time>2016-05-07T14:19:34Z</time>
      </trkpt>
      <trkpt lat="43.80105" lon="5.27657">
        <ele>696.334</ele>
        <time>2016-05-07T14:19:38Z</time>
      </trkpt>
      <trkpt lat="43.80106" lon="5.27666">
        <ele>693.943</ele>
        <time>2016-05-07T14:19:42Z</time>
      </trkpt>
      <trkpt lat="43.80096" lon="5.27674">
        <ele>691.157</ele>
        <time>2016-05-07T14:19:50Z</time>
      </trkpt>
      <trkpt lat="43.80091" lon="5.2768">
        <ele>689.651</ele>
        <time>2016-05-07T14:19:56Z</time>
      </trkpt>
      <trkpt lat="43.80081" lon="5.27691">
        <ele>687.458</ele>
        <time>2016-05-07T14:20:04Z</time>
      </trkpt>
      <trkpt lat="43.80075" lon="5.27696">
        <ele>686.068</ele>
        <time>2016-05-07T14:20:09Z</time>
      </trkpt>
      <trkpt lat="43.80071" lon="5.27703">
        <ele>686.71</ele>
        <time>2016-05-07T14:20:14Z</time>
      </trkpt>
      <trkpt lat="43.80069" lon="5.27704">
        <ele>685.281</ele>
        <time>2016-05-07T14:20:17Z</time>
      </trkpt>
      <trkpt lat="43.80074" lon="5.27698">
        <ele>685.272</ele>
        <time>2016-05-07T14:20:25Z</time>
      </trkpt>
      <trkpt lat="43.80076" lon="5.27696">
        <ele>684.282</ele>
        <time>2016-05-07T14:20:27Z</time>
      </trkpt>
      <trkpt lat="43.80083" lon="5.27693">
        <ele>685.856</ele>
        <time>2016-05-07T14:20:33Z</time>
      </trkpt>
      <trkpt lat="43.80092" lon="5.27696">
        <ele>685.565</ele>
        <time>2016-05-07T14:20:40Z</time>
      </trkpt>
      <trkpt lat="43.80097" lon="5.27701">
        <ele>684.125</ele>
        <time>2016-05-07T14:20:45Z</time>
      </trkpt>
      <trkpt lat="43.80101" lon="5.27703">
        <ele>683.345</ele>
        <time>2016-05-07T14:20:48Z</time>
      </trkpt>
      <trkpt lat="43.80109" lon="5.27709">
        <ele>683.766</ele>
        <time>2016-05-07T14:20:54Z</time>
      </trkpt>
      <trkpt lat="43.80114" lon="5.27714">
        <ele>685.56</ele>
        <time>2016-05-07T14:21:00Z</time>
      </trkpt>
      <trkpt lat="43.80122" lon="5.27716">
        <ele>683.763</ele>
        <time>2016-05-07T14:21:06Z</time>
      </trkpt>
      <trkpt lat="43.80124" lon="5.27718">
        <ele>679.82</ele>
        <time>2016-05-07T14:21:12Z</time>
      </trkpt>
      <trkpt lat="43.80125" lon="5.27719">
        <ele>680.834</ele>
        <time>2016-05-07T14:21:16Z</time>
      </trkpt>
      <trkpt lat="43.80135" lon="5.27726">
        <ele>684.894</ele>
        <time>2016-05-07T14:21:23Z</time>
      </trkpt>
      <trkpt lat="43.8014" lon="5.27729">
        <ele>686.219</ele>
        <time>2016-05-07T14:21:28Z</time>
      </trkpt>
      <trkpt lat="43.80145" lon="5.27735">
        <ele>687.489</ele>
        <time>2016-05-07T14:21:34Z</time>
      </trkpt>
      <trkpt lat="43.80153" lon="5.27744">
        <ele>684.571</ele>
        <time>2016-05-07T14:21:42Z</time>
      </trkpt>
      <trkpt lat="43.80157" lon="5.27749">
        <ele>683.551</ele>
        <time>2016-05-07T14:21:45Z</time>
      </trkpt>
      <trkpt lat="43.80158" lon="5.27757">
        <ele>684.716</ele>
        <time>2016-05-07T14:21:49Z</time>
      </trkpt>
      <trkpt lat="43.80164" lon="5.27768">
        <ele>682.625</ele>
        <time>2016-05-07T14:21:56Z</time>
      </trkpt>
      <trkpt lat="43.80166" lon="5.27768">
        <ele>681.935</ele>
        <time>2016-05-07T14:21:59Z</time>
      </trkpt>
      <trkpt lat="43.80172" lon="5.27769">
        <ele>681.558</ele>
        <time>2016-05-07T14:22:05Z</time>
      </trkpt>
      <trkpt lat="43.80175" lon="5.27767">
        <ele>682.08</ele>
        <time>2016-05-07T14:22:08Z</time>
      </trkpt>
      <trkpt lat="43.80183" lon="5.27775">
        <ele>682.567</ele>
        <time>2016-05-07T14:22:15Z</time>
      </trkpt>
      <trkpt lat="43.8019" lon="5.27783">
        <ele>683.066</ele>
        <time>2016-05-07T14:22:21Z</time>
      </trkpt>
      <trkpt lat="43.80193" lon="5.27784">
        <ele>682.735</ele>
        <time>2016-05-07T14:22:23Z</time>
      </trkpt>
      <trkpt lat="43.80199" lon="5.27795">
        <ele>680.892</ele>
        <time>2016-05-07T14:22:30Z</time>
      </trkpt>
      <trkpt lat="43.80205" lon="5.27804">
        <ele>678.101</ele>
        <time>2016-05-07T14:22:37Z</time>
      </trkpt>
      <trkpt lat="43.8021" lon="5.27809">
        <ele>676.212</ele>
        <time>2016-05-07T14:22:42Z</time>
      </trkpt>
      <trkpt lat="43.80212" lon="5.27809">
        <ele>676.607</ele>
        <time>2016-05-07T14:22:49Z</time>
      </trkpt>
      <trkpt lat="43.80212" lon="5.2781">
        <ele>677.517</ele>
        <time>2016-05-07T14:22:55Z</time>
      </trkpt>
      <trkpt lat="43.80212" lon="5.27812">
        <ele>683.214</ele>
        <time>2016-05-07T14:23:07Z</time>
      </trkpt>
      <trkpt lat="43.80213" lon="5.27811">
        <ele>680.699</ele>
        <time>2016-05-07T14:23:14Z</time>
      </trkpt>
      <trkpt lat="43.80212" lon="5.27813">
        <ele>681.288</ele>
        <time>2016-05-07T14:23:29Z</time>
      </trkpt>
      <trkpt lat="43.80214" lon="5.27814">
        <ele>682.19</ele>
        <time>2016-05-07T14:23:37Z</time>
      </trkpt>
      <trkpt lat="43.8022" lon="5.27821">
        <ele>681.357</ele>
        <time>2016-05-07T14:23:44Z</time>
      </trkpt>
      <trkpt lat="43.80223" lon="5.27824">
        <ele>679.945</ele>
        <time>2016-05-07T14:23:50Z</time>
      </trkpt>
      <trkpt lat="43.80221" lon="5.27825">
        <ele>673.813</ele>
        <time>2016-05-07T14:24:08Z</time>
      </trkpt>
      <trkpt lat="43.80224" lon="5.27826">
        <ele>673.866</ele>
        <time>2016-05-07T14:24:18Z</time>
      </trkpt>
      <trkpt lat="43.80235" lon="5.27828">
        <ele>677.972</ele>
        <time>2016-05-07T14:24:25Z</time>
      </trkpt>
      <trkpt lat="43.80249" lon="5.27832">
        <ele>680.614</ele>
        <time>2016-05-07T14:24:34Z</time>
      </trkpt>
      <trkpt lat="43.80252" lon="5.27841">
        <ele>680.28</ele>
        <time>2016-05-07T14:24:39Z</time>
      </trkpt>
      <trkpt lat="43.80255" lon="5.27843">
        <ele>679.826</ele>
        <time>2016-05-07T14:24:42Z</time>
      </trkpt>
      <trkpt lat="43.8026" lon="5.27847">
        <ele>678.385</ele>
        <time>2016-05-07T14:24:47Z</time>
      </trkpt>
      <trkpt lat="43.80263" lon="5.2785">
        <ele>677.753</ele>
        <time>2016-05-07T14:24:50Z</time>
      </trkpt>
      <trkpt lat="43.80272" lon="5.27862">
        <ele>677.185</ele>
        <time>2016-05-07T14:24:57Z</time>
      </trkpt>
      <trkpt lat="43.80274" lon="5.27867">
        <ele>675.86</ele>
        <time>2016-05-07T14:25:00Z</time>
      </trkpt>
      <trkpt lat="43.80279" lon="5.27876">
        <ele>673.407</ele>
        <time>2016-05-07T14:25:06Z</time>
      </trkpt>
      <trkpt lat="43.8028" lon="5.27877">
        <ele>673.209</ele>
        <time>2016-05-07T14:25:07Z</time>
      </trkpt>
      <trkpt lat="43.80285" lon="5.27882">
        <ele>672.239</ele>
        <time>2016-05-07T14:25:12Z</time>
      </trkpt>
      <trkpt lat="43.80287" lon="5.27888">
        <ele>670.537</ele>
        <time>2016-05-07T14:25:15Z</time>
      </trkpt>
      <trkpt lat="43.80291" lon="5.27901">
        <ele>670.695</ele>
        <time>2016-05-07T14:25:22Z</time>
      </trkpt>
      <trkpt lat="43.80292" lon="5.27903">
        <ele>670.274</ele>
        <time>2016-05-07T14:25:23Z</time>
      </trkpt>
      <trkpt lat="43.80291" lon="5.27911">
        <ele>669.054</ele>
        <time>2016-05-07T14:25:28Z</time>
      </trkpt>
      <trkpt lat="43.8029" lon="5.27924">
        <ele>670.219</ele>
        <time>2016-05-07T14:25:34Z</time>
      </trkpt>
      <trkpt lat="43.80293" lon="5.27932">
        <ele>670.06</ele>
        <time>2016-05-07T14:25:39Z</time>
      </trkpt>
      <trkpt lat="43.80295" lon="5.27939">
        <ele>671.522</ele>
        <time>2016-05-07T14:25:43Z</time>
      </trkpt>
      <trkpt lat="43.80297" lon="5.27952">
        <ele>674.575</ele>
        <time>2016-05-07T14:25:51Z</time>
      </trkpt>
      <trkpt lat="43.80299" lon="5.27959">
        <ele>676.185</ele>
        <time>2016-05-07T14:25:55Z</time>
      </trkpt>
      <trkpt lat="43.80301" lon="5.27969">
        <ele>676.803</ele>
        <time>2016-05-07T14:26:01Z</time>
      </trkpt>
      <trkpt lat="43.80299" lon="5.27979">
        <ele>676.932</ele>
        <time>2016-05-07T14:26:07Z</time>
      </trkpt>
      <trkpt lat="43.80293" lon="5.27986">
        <ele>677.908</ele>
        <time>2016-05-07T14:26:12Z</time>
      </trkpt>
      <trkpt lat="43.80286" lon="5.27996">
        <ele>677.787</ele>
        <time>2016-05-07T14:26:22Z</time>
      </trkpt>
      <trkpt lat="43.80286" lon="5.28002">
        <ele>677.105</ele>
        <time>2016-05-07T14:26:28Z</time>
      </trkpt>
      <trkpt lat="43.8028" lon="5.28011">
        <ele>674.424</ele>
        <time>2016-05-07T14:26:36Z</time>
      </trkpt>
      <trkpt lat="43.80277" lon="5.28021">
        <ele>672.592</ele>
        <time>2016-05-07T14:26:44Z</time>
      </trkpt>
      <trkpt lat="43.80273" lon="5.28032">
        <ele>672.993</ele>
        <time>2016-05-07T14:26:52Z</time>
      </trkpt>
      <trkpt lat="43.80273" lon="5.28034">
        <ele>673.123</ele>
        <time>2016-05-07T14:26:53Z</time>
      </trkpt>
      <trkpt lat="43.80265" lon="5.28049">
        <ele>672.674</ele>
        <time>2016-05-07T14:27:02Z</time>
      </trkpt>
      <trkpt lat="43.80259" lon="5.2806">
        <ele>671.463</ele>
        <time>2016-05-07T14:27:10Z</time>
      </trkpt>
      <trkpt lat="43.80258" lon="5.28062">
        <ele>670.904</ele>
        <time>2016-05-07T14:27:16Z</time>
      </trkpt>
      <trkpt lat="43.80258" lon="5.28069">
        <ele>672.105</ele>
        <time>2016-05-07T14:27:22Z</time>
      </trkpt>
      <trkpt lat="43.80254" lon="5.28083">
        <ele>674.407</ele>
        <time>2016-05-07T14:27:30Z</time>
      </trkpt>
      <trkpt lat="43.80247" lon="5.28097">
        <ele>675.008</ele>
        <time>2016-05-07T14:27:38Z</time>
      </trkpt>
      <trkpt lat="43.80245" lon="5.28102">
        <ele>673.086</ele>
        <time>2016-05-07T14:27:41Z</time>
      </trkpt>
      <trkpt lat="43.80242" lon="5.28117">
        <ele>674.599</ele>
        <time>2016-05-07T14:27:50Z</time>
      </trkpt>
      <trkpt lat="43.80238" lon="5.28132">
        <ele>671.685</ele>
        <time>2016-05-07T14:27:59Z</time>
      </trkpt>
      <trkpt lat="43.80235" lon="5.28144">
        <ele>671.898</ele>
        <time>2016-05-07T14:28:05Z</time>
      </trkpt>
      <trkpt lat="43.80232" lon="5.28158">
        <ele>671.767</ele>
        <time>2016-05-07T14:28:12Z</time>
      </trkpt>
      <trkpt lat="43.80228" lon="5.2817">
        <ele>670.857</ele>
        <time>2016-05-07T14:28:20Z</time>
      </trkpt>
      <trkpt lat="43.80224" lon="5.28182">
        <ele>671.228</ele>
        <time>2016-05-07T14:28:28Z</time>
      </trkpt>
      <trkpt lat="43.80221" lon="5.28194">
        <ele>671.407</ele>
        <time>2016-05-07T14:28:36Z</time>
      </trkpt>
      <trkpt lat="43.80215" lon="5.28208">
        <ele>674.219</ele>
        <time>2016-05-07T14:28:44Z</time>
      </trkpt>
      <trkpt lat="43.80212" lon="5.28218">
        <ele>677.363</ele>
        <time>2016-05-07T14:28:50Z</time>
      </trkpt>
      <trkpt lat="43.80209" lon="5.28235">
        <ele>672.954</ele>
        <time>2016-05-07T14:28:59Z</time>
      </trkpt>
      <trkpt lat="43.80209" lon="5.28246">
        <ele>670.365</ele>
        <time>2016-05-07T14:29:05Z</time>
      </trkpt>
      <trkpt lat="43.80212" lon="5.2826">
        <ele>666.257</ele>
        <time>2016-05-07T14:29:14Z</time>
      </trkpt>
      <trkpt lat="43.80217" lon="5.28272">
        <ele>666.478</ele>
        <time>2016-05-07T14:29:20Z</time>
      </trkpt>
      <trkpt lat="43.80224" lon="5.28284">
        <ele>665.907</ele>
        <time>2016-05-07T14:29:28Z</time>
      </trkpt>
      <trkpt lat="43.8023" lon="5.28292">
        <ele>663.294</ele>
        <time>2016-05-07T14:29:35Z</time>
      </trkpt>
      <trkpt lat="43.80237" lon="5.28302">
        <ele>661.367</ele>
        <time>2016-05-07T14:29:43Z</time>
      </trkpt>
      <trkpt lat="43.8024" lon="5.28304">
        <ele>661.549</ele>
        <time>2016-05-07T14:29:46Z</time>
      </trkpt>
      <trkpt lat="43.80251" lon="5.28314">
        <ele>659.999</ele>
        <time>2016-05-07T14:29:54Z</time>
      </trkpt>
      <trkpt lat="43.80257" lon="5.28324">
        <ele>658.709</ele>
        <time>2016-05-07T14:30:03Z</time>
      </trkpt>
      <trkpt lat="43.80266" lon="5.28337">
        <ele>661.884</ele>
        <time>2016-05-07T14:30:12Z</time>
      </trkpt>
      <trkpt lat="43.80278" lon="5.28353">
        <ele>663.5</ele>
        <time>2016-05-07T14:30:23Z</time>
      </trkpt>
      <trkpt lat="43.80285" lon="5.28368">
        <ele>661.318</ele>
        <time>2016-05-07T14:30:31Z</time>
      </trkpt>
      <trkpt lat="43.8029" lon="5.28375">
        <ele>660.728</ele>
        <time>2016-05-07T14:30:36Z</time>
      </trkpt>
      <trkpt lat="43.80298" lon="5.28391">
        <ele>659.275</ele>
        <time>2016-05-07T14:30:46Z</time>
      </trkpt>
      <trkpt lat="43.80301" lon="5.28396">
        <ele>658.123</ele>
        <time>2016-05-07T14:30:50Z</time>
      </trkpt>
      <trkpt lat="43.80304" lon="5.28402">
        <ele>656.873</ele>
        <time>2016-05-07T14:30:54Z</time>
      </trkpt>
      <trkpt lat="43.80312" lon="5.28415">
        <ele>653.853</ele>
        <time>2016-05-07T14:31:04Z</time>
      </trkpt>
      <trkpt lat="43.80318" lon="5.28421">
        <ele>654.758</ele>
        <time>2016-05-07T14:31:11Z</time>
      </trkpt>
      <trkpt lat="43.8032" lon="5.28424">
        <ele>655.601</ele>
        <time>2016-05-07T14:31:17Z</time>
      </trkpt>
      <trkpt lat="43.80321" lon="5.28427">
        <ele>653.497</ele>
        <time>2016-05-07T14:31:22Z</time>
      </trkpt>
      <trkpt lat="43.80325" lon="5.28435">
        <ele>651.728</ele>
        <time>2016-05-07T14:31:30Z</time>
      </trkpt>
      <trkpt lat="43.80327" lon="5.28442">
        <ele>650.521</ele>
        <time>2016-05-07T14:31:41Z</time>
      </trkpt>
      <trkpt lat="43.8033" lon="5.28445">
        <ele>658.559</ele>
        <time>2016-05-07T14:31:54Z</time>
      </trkpt>
      <trkpt lat="43.80334" lon="5.28452">
        <ele>656.858</ele>
        <time>2016-05-07T14:32:00Z</time>
      </trkpt>
      <trkpt lat="43.8034" lon="5.28461">
        <ele>650.793</ele>
        <time>2016-05-07T14:32:07Z</time>
      </trkpt>
      <trkpt lat="43.80344" lon="5.28463">
        <ele>649.745</ele>
        <time>2016-05-07T14:32:13Z</time>
      </trkpt>
      <trkpt lat="43.80346" lon="5.28466">
        <ele>649.261</ele>
        <time>2016-05-07T14:32:38Z</time>
      </trkpt>
      <trkpt lat="43.8035" lon="5.28471">
        <ele>645.513</ele>
        <time>2016-05-07T14:32:44Z</time>
      </trkpt>
      <trkpt lat="43.80354" lon="5.28474">
        <ele>641.13</ele>
        <time>2016-05-07T14:32:51Z</time>
      </trkpt>
      <trkpt lat="43.80358" lon="5.28479">
        <ele>640.321</ele>
        <time>2016-05-07T14:32:57Z</time>
      </trkpt>
      <trkpt lat="43.80363" lon="5.28486">
        <ele>641.616</ele>
        <time>2016-05-07T14:33:03Z</time>
      </trkpt>
      <trkpt lat="43.80372" lon="5.2849">
        <ele>638.755</ele>
        <time>2016-05-07T14:33:10Z</time>
      </trkpt>
      <trkpt lat="43.80378" lon="5.28497">
        <ele>638.115</ele>
        <time>2016-05-07T14:33:18Z</time>
      </trkpt>
      <trkpt lat="43.80383" lon="5.28504">
        <ele>638.906</ele>
        <time>2016-05-07T14:33:24Z</time>
      </trkpt>
      <trkpt lat="43.80389" lon="5.28506">
        <ele>636.501</ele>
        <time>2016-05-07T14:33:31Z</time>
      </trkpt>
      <trkpt lat="43.80392" lon="5.28508">
        <ele>635.009</ele>
        <time>2016-05-07T14:33:35Z</time>
      </trkpt>
      <trkpt lat="43.804" lon="5.28514">
        <ele>631.76</ele>
        <time>2016-05-07T14:33:43Z</time>
      </trkpt>
      <trkpt lat="43.80408" lon="5.28518">
        <ele>629.018</ele>
        <time>2016-05-07T14:33:50Z</time>
      </trkpt>
      <trkpt lat="43.8042" lon="5.28524">
        <ele>626.562</ele>
        <time>2016-05-07T14:33:58Z</time>
      </trkpt>
      <trkpt lat="43.8043" lon="5.28528">
        <ele>628.068</ele>
        <time>2016-05-07T14:34:05Z</time>
      </trkpt>
      <trkpt lat="43.80441" lon="5.28532">
        <ele>629.018</ele>
        <time>2016-05-07T14:34:12Z</time>
      </trkpt>
      <trkpt lat="43.80447" lon="5.28537">
        <ele>629.872</ele>
        <time>2016-05-07T14:34:18Z</time>
      </trkpt>
      <trkpt lat="43.80451" lon="5.28542">
        <ele>632.013</ele>
        <time>2016-05-07T14:34:22Z</time>
      </trkpt>
      <trkpt lat="43.80452" lon="5.28543">
        <ele>632.834</ele>
        <time>2016-05-07T14:34:23Z</time>
      </trkpt>
      <trkpt lat="43.80459" lon="5.28553">
        <ele>632.691</ele>
        <time>2016-05-07T14:34:31Z</time>
      </trkpt>
      <trkpt lat="43.80467" lon="5.28559">
        <ele>630.116</ele>
        <time>2016-05-07T14:34:38Z</time>
      </trkpt>
      <trkpt lat="43.80471" lon="5.28564">
        <ele>627.173</ele>
        <time>2016-05-07T14:34:44Z</time>
      </trkpt>
      <trkpt lat="43.80476" lon="5.2857">
        <ele>627.165</ele>
        <time>2016-05-07T14:34:50Z</time>
      </trkpt>
      <trkpt lat="43.80482" lon="5.28578">
        <ele>622.104</ele>
        <time>2016-05-07T14:34:58Z</time>
      </trkpt>
      <trkpt lat="43.80485" lon="5.28583">
        <ele>620.095</ele>
        <time>2016-05-07T14:35:09Z</time>
      </trkpt>
      <trkpt lat="43.80489" lon="5.28591">
        <ele>616.153</ele>
        <time>2016-05-07T14:35:16Z</time>
      </trkpt>
      <trkpt lat="43.80495" lon="5.28594">
        <ele>617.682</ele>
        <time>2016-05-07T14:35:22Z</time>
      </trkpt>
      <trkpt lat="43.80498" lon="5.28601">
        <ele>615.355</ele>
        <time>2016-05-07T14:35:30Z</time>
      </trkpt>
      <trkpt lat="43.80504" lon="5.28606">
        <ele>615.236</ele>
        <time>2016-05-07T14:35:36Z</time>
      </trkpt>
      <trkpt lat="43.80506" lon="5.28608">
        <ele>613.854</ele>
        <time>2016-05-07T14:35:39Z</time>
      </trkpt>
      <trkpt lat="43.80514" lon="5.28615">
        <ele>613.315</ele>
        <time>2016-05-07T14:35:46Z</time>
      </trkpt>
      <trkpt lat="43.80519" lon="5.28621">
        <ele>610.166</ele>
        <time>2016-05-07T14:35:54Z</time>
      </trkpt>
      <trkpt lat="43.80525" lon="5.28627">
        <ele>606.212</ele>
        <time>2016-05-07T14:36:03Z</time>
      </trkpt>
      <trkpt lat="43.80531" lon="5.28631">
        <ele>607.49</ele>
        <time>2016-05-07T14:36:09Z</time>
      </trkpt>
      <trkpt lat="43.80534" lon="5.28634">
        <ele>604.525</ele>
        <time>2016-05-07T14:36:15Z</time>
      </trkpt>
      <trkpt lat="43.80541" lon="5.28642">
        <ele>601.592</ele>
        <time>2016-05-07T14:36:25Z</time>
      </trkpt>
      <trkpt lat="43.80545" lon="5.28645">
        <ele>596.02</ele>
        <time>2016-05-07T14:36:32Z</time>
      </trkpt>
      <trkpt lat="43.80549" lon="5.2865">
        <ele>600.1</ele>
        <time>2016-05-07T14:36:37Z</time>
      </trkpt>
      <trkpt lat="43.80553" lon="5.28654">
        <ele>600.607</ele>
        <time>2016-05-07T14:36:41Z</time>
      </trkpt>
      <trkpt lat="43.80553" lon="5.2866">
        <ele>599.065</ele>
        <time>2016-05-07T14:36:45Z</time>
      </trkpt>
      <trkpt lat="43.80556" lon="5.28663">
        <ele>598.464</ele>
        <time>2016-05-07T14:36:48Z</time>
      </trkpt>
      <trkpt lat="43.80557" lon="5.28671">
        <ele>593.788</ele>
        <time>2016-05-07T14:36:55Z</time>
      </trkpt>
      <trkpt lat="43.8056" lon="5.28676">
        <ele>592.569</ele>
        <time>2016-05-07T14:36:59Z</time>
      </trkpt>
      <trkpt lat="43.80563" lon="5.28681">
        <ele>591.23</ele>
        <time>2016-05-07T14:37:03Z</time>
      </trkpt>
      <trkpt lat="43.80574" lon="5.28689">
        <ele>595.84</ele>
        <time>2016-05-07T14:37:12Z</time>
      </trkpt>
      <trkpt lat="43.80579" lon="5.28692">
        <ele>595.017</ele>
        <time>2016-05-07T14:37:15Z</time>
      </trkpt>
      <trkpt lat="43.8058" lon="5.28699">
        <ele>591.42</ele>
        <time>2016-05-07T14:37:21Z</time>
      </trkpt>
      <trkpt lat="43.8058" lon="5.28705">
        <ele>588.378</ele>
        <time>2016-05-07T14:37:26Z</time>
      </trkpt>
      <trkpt lat="43.80583" lon="5.28707">
        <ele>589.543</ele>
        <time>2016-05-07T14:37:28Z</time>
      </trkpt>
      <trkpt lat="43.80589" lon="5.28715">
        <ele>589.065</ele>
        <time>2016-05-07T14:37:35Z</time>
      </trkpt>
      <trkpt lat="43.8059" lon="5.28724">
        <ele>579.784</ele>
        <time>2016-05-07T14:37:43Z</time>
      </trkpt>
      <trkpt lat="43.80591" lon="5.2873">
        <ele>578.006</ele>
        <time>2016-05-07T14:37:48Z</time>
      </trkpt>
      <trkpt lat="43.80594" lon="5.28737">
        <ele>580.155</ele>
        <time>2016-05-07T14:37:54Z</time>
      </trkpt>
      <trkpt lat="43.80596" lon="5.28744">
        <ele>576.27</ele>
        <time>2016-05-07T14:38:00Z</time>
      </trkpt>
      <trkpt lat="43.80605" lon="5.28755">
        <ele>575.573</ele>
        <time>2016-05-07T14:38:09Z</time>
      </trkpt>
      <trkpt lat="43.80612" lon="5.28763">
        <ele>575.995</ele>
        <time>2016-05-07T14:38:15Z</time>
      </trkpt>
      <trkpt lat="43.80617" lon="5.2877">
        <ele>576.762</ele>
        <time>2016-05-07T14:38:21Z</time>
      </trkpt>
      <trkpt lat="43.80622" lon="5.28772">
        <ele>567.034</ele>
        <time>2016-05-07T14:38:28Z</time>
      </trkpt>
      <trkpt lat="43.80629" lon="5.28776">
        <ele>564.229</ele>
        <time>2016-05-07T14:38:35Z</time>
      </trkpt>
      <trkpt lat="43.80633" lon="5.28779">
        <ele>562.892</ele>
        <time>2016-05-07T14:38:39Z</time>
      </trkpt>
      <trkpt lat="43.80651" lon="5.28788">
        <ele>575.179</ele>
        <time>2016-05-07T14:38:49Z</time>
      </trkpt>
      <trkpt lat="43.80662" lon="5.28795">
        <ele>577.375</ele>
        <time>2016-05-07T14:38:57Z</time>
      </trkpt>
      <trkpt lat="43.80668" lon="5.28801">
        <ele>578.043</ele>
        <time>2016-05-07T14:39:03Z</time>
      </trkpt>
      <trkpt lat="43.80678" lon="5.28807">
        <ele>578.19</ele>
        <time>2016-05-07T14:39:12Z</time>
      </trkpt>
      <trkpt lat="43.8068" lon="5.28814">
        <ele>573.304</ele>
        <time>2016-05-07T14:39:18Z</time>
      </trkpt>
      <trkpt lat="43.80685" lon="5.28817">
        <ele>571.636</ele>
        <time>2016-05-07T14:39:23Z</time>
      </trkpt>
      <trkpt lat="43.80691" lon="5.28819">
        <ele>569.259</ele>
        <time>2016-05-07T14:39:30Z</time>
      </trkpt>
      <trkpt lat="43.80702" lon="5.28824">
        <ele>565.001</ele>
        <time>2016-05-07T14:39:43Z</time>
      </trkpt>
      <trkpt lat="43.80712" lon="5.2883">
        <ele>562.969</ele>
        <time>2016-05-07T14:39:55Z</time>
      </trkpt>
      <trkpt lat="43.80718" lon="5.28835">
        <ele>563.41</ele>
        <time>2016-05-07T14:40:01Z</time>
      </trkpt>
      <trkpt lat="43.8072" lon="5.28843">
        <ele>554.88</ele>
        <time>2016-05-07T14:40:10Z</time>
      </trkpt>
      <trkpt lat="43.80727" lon="5.28851">
        <ele>549.871</ele>
        <time>2016-05-07T14:40:18Z</time>
      </trkpt>
      <trkpt lat="43.80737" lon="5.28857">
        <ele>555.181</ele>
        <time>2016-05-07T14:40:25Z</time>
      </trkpt>
      <trkpt lat="43.80742" lon="5.2886">
        <ele>556.603</ele>
        <time>2016-05-07T14:40:29Z</time>
      </trkpt>
      <trkpt lat="43.80745" lon="5.28864">
        <ele>556.211</ele>
        <time>2016-05-07T14:40:33Z</time>
      </trkpt>
      <trkpt lat="43.8075" lon="5.28872">
        <ele>552.095</ele>
        <time>2016-05-07T14:40:42Z</time>
      </trkpt>
      <trkpt lat="43.80759" lon="5.28877">
        <ele>537.157</ele>
        <time>2016-05-07T14:40:58Z</time>
      </trkpt>
      <trkpt lat="43.80766" lon="5.28886">
        <ele>536.955</ele>
        <time>2016-05-07T14:41:10Z</time>
      </trkpt>
      <trkpt lat="43.80768" lon="5.28887">
        <ele>535.431</ele>
        <time>2016-05-07T14:41:13Z</time>
      </trkpt>
      <trkpt lat="43.80778" lon="5.28892">
        <ele>536.875</ele>
        <time>2016-05-07T14:41:21Z</time>
      </trkpt>
      <trkpt lat="43.80786" lon="5.28895">
        <ele>537.408</ele>
        <time>2016-05-07T14:41:27Z</time>
      </trkpt>
      <trkpt lat="43.80792" lon="5.28899">
        <ele>535.765</ele>
        <time>2016-05-07T14:41:34Z</time>
      </trkpt>
      <trkpt lat="43.80795" lon="5.28899">
        <ele>535.156</ele>
        <time>2016-05-07T14:41:37Z</time>
      </trkpt>
      <trkpt lat="43.80801" lon="5.289">
        <ele>534.401</ele>
        <time>2016-05-07T14:41:43Z</time>
      </trkpt>
      <trkpt lat="43.80808" lon="5.28903">
        <ele>531.95</ele>
        <time>2016-05-07T14:41:51Z</time>
      </trkpt>
      <trkpt lat="43.80817" lon="5.28903">
        <ele>532.09</ele>
        <time>2016-05-07T14:41:56Z</time>
      </trkpt>
      <trkpt lat="43.8082" lon="5.28905">
        <ele>530.798</ele>
        <time>2016-05-07T14:41:58Z</time>
      </trkpt>
      <trkpt lat="43.80829" lon="5.28908">
        <ele>528.997</ele>
        <time>2016-05-07T14:42:05Z</time>
      </trkpt>
      <trkpt lat="43.80833" lon="5.28907">
        <ele>520.147</ele>
        <time>2016-05-07T14:42:12Z</time>
      </trkpt>
      <trkpt lat="43.80838" lon="5.28907">
        <ele>518.001</ele>
        <time>2016-05-07T14:42:19Z</time>
      </trkpt>
      <trkpt lat="43.80848" lon="5.28908">
        <ele>515.954</ele>
        <time>2016-05-07T14:42:25Z</time>
      </trkpt>
      <trkpt lat="43.80857" lon="5.28906">
        <ele>517.96</ele>
        <time>2016-05-07T14:42:32Z</time>
      </trkpt>
      <trkpt lat="43.80862" lon="5.28905">
        <ele>516.359</ele>
        <time>2016-05-07T14:42:35Z</time>
      </trkpt>
      <trkpt lat="43.80876" lon="5.28906">
        <ele>520.606</ele>
        <time>2016-05-07T14:42:43Z</time>
      </trkpt>
      <trkpt lat="43.80879" lon="5.28906">
        <ele>519.183</ele>
        <time>2016-05-07T14:42:45Z</time>
      </trkpt>
      <trkpt lat="43.80886" lon="5.28911">
        <ele>520.915</ele>
        <time>2016-05-07T14:42:51Z</time>
      </trkpt>
      <trkpt lat="43.80895" lon="5.28912">
        <ele>518.649</ele>
        <time>2016-05-07T14:42:59Z</time>
      </trkpt>
      <trkpt lat="43.80897" lon="5.28914">
        <ele>517.107</ele>
        <time>2016-05-07T14:43:02Z</time>
      </trkpt>
      <trkpt lat="43.80903" lon="5.28922">
        <ele>518.74</ele>
        <time>2016-05-07T14:43:09Z</time>
      </trkpt>
      <trkpt lat="43.80908" lon="5.28926">
        <ele>517.46</ele>
        <time>2016-05-07T14:43:14Z</time>
      </trkpt>
      <trkpt lat="43.80912" lon="5.28932">
        <ele>521.054</ele>
        <time>2016-05-07T14:43:20Z</time>
      </trkpt>
      <trkpt lat="43.80915" lon="5.28936">
        <ele>522.103</ele>
        <time>2016-05-07T14:43:24Z</time>
      </trkpt>
      <trkpt lat="43.80916" lon="5.28944">
        <ele>514.92</ele>
        <time>2016-05-07T14:43:32Z</time>
      </trkpt>
      <trkpt lat="43.80917" lon="5.28945">
        <ele>513.82</ele>
        <time>2016-05-07T14:43:33Z</time>
      </trkpt>
      <trkpt lat="43.80915" lon="5.28954">
        <ele>507.268</ele>
        <time>2016-05-07T14:43:40Z</time>
      </trkpt>
      <trkpt lat="43.80916" lon="5.28963">
        <ele>505.542</ele>
        <time>2016-05-07T14:43:47Z</time>
      </trkpt>
      <trkpt lat="43.80917" lon="5.28973">
        <ele>509.024</ele>
        <time>2016-05-07T14:43:54Z</time>
      </trkpt>
      <trkpt lat="43.80913" lon="5.28983">
        <ele>503.017</ele>
        <time>2016-05-07T14:44:00Z</time>
      </trkpt>
      <trkpt lat="43.80917" lon="5.28991">
        <ele>501.363</ele>
        <time>2016-05-07T14:44:07Z</time>
      </trkpt>
      <trkpt lat="43.80917" lon="5.29">
        <ele>502.211</ele>
        <time>2016-05-07T14:44:13Z</time>
      </trkpt>
      <trkpt lat="43.80916" lon="5.29006">
        <ele>500.591</ele>
        <time>2016-05-07T14:44:17Z</time>
      </trkpt>
      <trkpt lat="43.80915" lon="5.29014">
        <ele>498.612</ele>
        <time>2016-05-07T14:44:23Z</time>
      </trkpt>
      <trkpt lat="43.80918" lon="5.29021">
        <ele>497.851</ele>
        <time>2016-05-07T14:44:28Z</time>
      </trkpt>
      <trkpt lat="43.80917" lon="5.29032">
        <ele>497.172</ele>
        <time>2016-05-07T14:44:34Z</time>
      </trkpt>
      <trkpt lat="43.80932" lon="5.29051">
        <ele>509.684</ele>
        <time>2016-05-07T14:46:34Z</time>
      </trkpt>
      <trkpt lat="43.80925" lon="5.29059">
        <ele>503.258</ele>
        <time>2016-05-07T14:46:39Z</time>
      </trkpt>
      <trkpt lat="43.80933" lon="5.29078">
        <ele>502.314</ele>
        <time>2016-05-07T14:48:17Z</time>
      </trkpt>
      <trkpt lat="43.80935" lon="5.29081">
        <ele>504.288</ele>
        <time>2016-05-07T14:48:20Z</time>
      </trkpt>
      <trkpt lat="43.80935" lon="5.29084">
        <ele>504.226</ele>
        <time>2016-05-07T14:48:22Z</time>
      </trkpt>
      <trkpt lat="43.8094" lon="5.29087">
        <ele>505.255</ele>
        <time>2016-05-07T14:48:28Z</time>
      </trkpt>
      <trkpt lat="43.80944" lon="5.29091">
        <ele>505.742</ele>
        <time>2016-05-07T14:48:34Z</time>
      </trkpt>
      <trkpt lat="43.80946" lon="5.29095">
        <ele>504.642</ele>
        <time>2016-05-07T14:48:39Z</time>
      </trkpt>
      <trkpt lat="43.80947" lon="5.29097">
        <ele>504.491</ele>
        <time>2016-05-07T14:48:41Z</time>
      </trkpt>
      <trkpt lat="43.80951" lon="5.29109">
        <ele>503.64</ele>
        <time>2016-05-07T14:48:49Z</time>
      </trkpt>
      <trkpt lat="43.80953" lon="5.29114">
        <ele>503.228</ele>
        <time>2016-05-07T14:48:52Z</time>
      </trkpt>
      <trkpt lat="43.80957" lon="5.29122">
        <ele>503.208</ele>
        <time>2016-05-07T14:48:57Z</time>
      </trkpt>
      <trkpt lat="43.80958" lon="5.29134">
        <ele>503.368</ele>
        <time>2016-05-07T14:49:04Z</time>
      </trkpt>
      <trkpt lat="43.8096" lon="5.2914">
        <ele>505.162</ele>
        <time>2016-05-07T14:49:08Z</time>
      </trkpt>
      <trkpt lat="43.80965" lon="5.29147">
        <ele>507.093</ele>
        <time>2016-05-07T14:49:14Z</time>
      </trkpt>
      <trkpt lat="43.80967" lon="5.29156">
        <ele>510.318</ele>
        <time>2016-05-07T14:49:20Z</time>
      </trkpt>
      <trkpt lat="43.80966" lon="5.29168">
        <ele>508.478</ele>
        <time>2016-05-07T14:49:27Z</time>
      </trkpt>
      <trkpt lat="43.80966" lon="5.29176">
        <ele>502.951</ele>
        <time>2016-05-07T14:49:32Z</time>
      </trkpt>
      <trkpt lat="43.80968" lon="5.29187">
        <ele>497.627</ele>
        <time>2016-05-07T14:49:39Z</time>
      </trkpt>
      <trkpt lat="43.80969" lon="5.29189">
        <ele>496.966</ele>
        <time>2016-05-07T14:49:40Z</time>
      </trkpt>
      <trkpt lat="43.8097" lon="5.29194">
        <ele>493.306</ele>
        <time>2016-05-07T14:49:44Z</time>
      </trkpt>
      <trkpt lat="43.80971" lon="5.29202">
        <ele>491.098</ele>
        <time>2016-05-07T14:49:49Z</time>
      </trkpt>
      <trkpt lat="43.80974" lon="5.29211">
        <ele>492.765</ele>
        <time>2016-05-07T14:49:56Z</time>
      </trkpt>
      <trkpt lat="43.80974" lon="5.29218">
        <ele>486.978</ele>
        <time>2016-05-07T14:50:02Z</time>
      </trkpt>
      <trkpt lat="43.80976" lon="5.29226">
        <ele>484.558</ele>
        <time>2016-05-07T14:50:07Z</time>
      </trkpt>
      <trkpt lat="43.80975" lon="5.29228">
        <ele>483.3</ele>
        <time>2016-05-07T14:50:09Z</time>
      </trkpt>
      <trkpt lat="43.80975" lon="5.29242">
        <ele>476.773</ele>
        <time>2016-05-07T14:50:17Z</time>
      </trkpt>
      <trkpt lat="43.80975" lon="5.29248">
        <ele>475.475</ele>
        <time>2016-05-07T14:50:23Z</time>
      </trkpt>
      <trkpt lat="43.80978" lon="5.29263">
        <ele>473.976</ele>
        <time>2016-05-07T14:50:30Z</time>
      </trkpt>
      <trkpt lat="43.8098" lon="5.29273">
        <ele>468.351</ele>
        <time>2016-05-07T14:50:36Z</time>
      </trkpt>
      <trkpt lat="43.80983" lon="5.29279">
        <ele>465.154</ele>
        <time>2016-05-07T14:50:42Z</time>
      </trkpt>
      <trkpt lat="43.80984" lon="5.29282">
        <ele>466.187</ele>
        <time>2016-05-07T14:50:44Z</time>
      </trkpt>
      <trkpt lat="43.80987" lon="5.29289">
        <ele>468.343</ele>
        <time>2016-05-07T14:50:48Z</time>
      </trkpt>
      <trkpt lat="43.8099" lon="5.29296">
        <ele>470.576</ele>
        <time>2016-05-07T14:50:51Z</time>
      </trkpt>
      <trkpt lat="43.80994" lon="5.29304">
        <ele>473.559</ele>
        <time>2016-05-07T14:50:56Z</time>
      </trkpt>
      <trkpt lat="43.80996" lon="5.29313">
        <ele>474.719</ele>
        <time>2016-05-07T14:51:01Z</time>
      </trkpt>
      <trkpt lat="43.80998" lon="5.29323">
        <ele>471.795</ele>
        <time>2016-05-07T14:51:07Z</time>
      </trkpt>
      <trkpt lat="43.81" lon="5.2933">
        <ele>469.903</ele>
        <time>2016-05-07T14:51:12Z</time>
      </trkpt>
      <trkpt lat="43.81001" lon="5.29339">
        <ele>468.59</ele>
        <time>2016-05-07T14:51:17Z</time>
      </trkpt>
      <trkpt lat="43.81001" lon="5.29345">
        <ele>466.819</ele>
        <time>2016-05-07T14:51:21Z</time>
      </trkpt>
      <trkpt lat="43.81003" lon="5.29353">
        <ele>464.184</ele>
        <time>2016-05-07T14:51:26Z</time>
      </trkpt>
      <trkpt lat="43.81004" lon="5.29357">
        <ele>462.693</ele>
        <time>2016-05-07T14:51:44Z</time>
      </trkpt>
      <trkpt lat="43.81008" lon="5.29356">
        <ele>459.708</ele>
        <time>2016-05-07T14:51:52Z</time>
      </trkpt>
      <trkpt lat="43.81015" lon="5.29356">
        <ele>457.358</ele>
        <time>2016-05-07T14:51:59Z</time>
      </trkpt>
      <trkpt lat="43.81021" lon="5.29356">
        <ele>458.854</ele>
        <time>2016-05-07T14:52:05Z</time>
      </trkpt>
      <trkpt lat="43.81023" lon="5.29358">
        <ele>456.75</ele>
        <time>2016-05-07T14:52:10Z</time>
      </trkpt>
      <trkpt lat="43.81031" lon="5.29361">
        <ele>452.075</ele>
        <time>2016-05-07T14:52:16Z</time>
      </trkpt>
      <trkpt lat="43.81039" lon="5.29362">
        <ele>449.937</ele>
        <time>2016-05-07T14:52:22Z</time>
      </trkpt>
      <trkpt lat="43.81051" lon="5.29367">
        <ele>452.49</ele>
        <time>2016-05-07T14:52:30Z</time>
      </trkpt>
      <trkpt lat="43.81056" lon="5.29372">
        <ele>452.7</ele>
        <time>2016-05-07T14:52:36Z</time>
      </trkpt>
      <trkpt lat="43.81062" lon="5.29378">
        <ele>451.738</ele>
        <time>2016-05-07T14:52:42Z</time>
      </trkpt>
      <trkpt lat="43.81067" lon="5.29382">
        <ele>446.562</ele>
        <time>2016-05-07T14:52:49Z</time>
      </trkpt>
      <trkpt lat="43.81063" lon="5.29388">
        <ele>447.503</ele>
        <time>2016-05-07T14:52:59Z</time>
      </trkpt>
      <trkpt lat="43.81062" lon="5.29389">
        <ele>448.626</ele>
        <time>2016-05-07T14:53:09Z</time>
      </trkpt>
      <trkpt lat="43.81066" lon="5.29395">
        <ele>444.134</ele>
        <time>2016-05-07T14:53:24Z</time>
      </trkpt>
      <trkpt lat="43.81071" lon="5.294">
        <ele>442.986</ele>
        <time>2016-05-07T14:53:30Z</time>
      </trkpt>
      <trkpt lat="43.8107" lon="5.29408">
        <ele>440.131</ele>
        <time>2016-05-07T14:53:34Z</time>
      </trkpt>
      <trkpt lat="43.81073" lon="5.29414">
        <ele>442.248</ele>
        <time>2016-05-07T14:53:38Z</time>
      </trkpt>
      <trkpt lat="43.81075" lon="5.29417">
        <ele>442.991</ele>
        <time>2016-05-07T14:53:44Z</time>
      </trkpt>
      <trkpt lat="43.81079" lon="5.29424">
        <ele>448.95</ele>
        <time>2016-05-07T14:53:49Z</time>
      </trkpt>
      <trkpt lat="43.81082" lon="5.29428">
        <ele>443.717</ele>
        <time>2016-05-07T14:53:54Z</time>
      </trkpt>
      <trkpt lat="43.81083" lon="5.29429">
        <ele>443.377</ele>
        <time>2016-05-07T14:53:55Z</time>
      </trkpt>
      <trkpt lat="43.81091" lon="5.29434">
        <ele>441.309</ele>
        <time>2016-05-07T14:54:03Z</time>
      </trkpt>
      <trkpt lat="43.81094" lon="5.29437">
        <ele>439.008</ele>
        <time>2016-05-07T14:54:08Z</time>
      </trkpt>
      <trkpt lat="43.811" lon="5.29441">
        <ele>438.831</ele>
        <time>2016-05-07T14:54:14Z</time>
      </trkpt>
      <trkpt lat="43.81105" lon="5.29445">
        <ele>437.43</ele>
        <time>2016-05-07T14:54:19Z</time>
      </trkpt>
      <trkpt lat="43.81109" lon="5.29447">
        <ele>430.331</ele>
        <time>2016-05-07T14:54:24Z</time>
      </trkpt>
      <trkpt lat="43.81111" lon="5.2945">
        <ele>429.674</ele>
        <time>2016-05-07T14:54:29Z</time>
      </trkpt>
      <trkpt lat="43.81111" lon="5.29455">
        <ele>431.86</ele>
        <time>2016-05-07T14:54:32Z</time>
      </trkpt>
      <trkpt lat="43.81114" lon="5.29463">
        <ele>432.142</ele>
        <time>2016-05-07T14:54:40Z</time>
      </trkpt>
      <trkpt lat="43.81115" lon="5.29464">
        <ele>431.592</ele>
        <time>2016-05-07T14:54:41Z</time>
      </trkpt>
      <trkpt lat="43.81117" lon="5.2947">
        <ele>435.538</ele>
        <time>2016-05-07T14:54:45Z</time>
      </trkpt>
      <trkpt lat="43.81122" lon="5.29478">
        <ele>433.398</ele>
        <time>2016-05-07T14:54:52Z</time>
      </trkpt>
      <trkpt lat="43.8112" lon="5.29487">
        <ele>431.846</ele>
        <time>2016-05-07T14:54:58Z</time>
      </trkpt>
      <trkpt lat="43.81122" lon="5.29499">
        <ele>422.553</ele>
        <time>2016-05-07T14:55:07Z</time>
      </trkpt>
      <trkpt lat="43.81121" lon="5.29509">
        <ele>412.687</ele>
        <time>2016-05-07T14:55:13Z</time>
      </trkpt>
      <trkpt lat="43.81124" lon="5.29518">
        <ele>404.457</ele>
        <time>2016-05-07T14:55:20Z</time>
      </trkpt>
      <trkpt lat="43.81127" lon="5.29525">
        <ele>407.861</ele>
        <time>2016-05-07T14:55:25Z</time>
      </trkpt>
      <trkpt lat="43.81128" lon="5.29532">
        <ele>406.88</ele>
        <time>2016-05-07T14:55:30Z</time>
      </trkpt>
      <trkpt lat="43.81125" lon="5.29538">
        <ele>404.479</ele>
        <time>2016-05-07T14:55:34Z</time>
      </trkpt>
      <trkpt lat="43.8113" lon="5.29549">
        <ele>405.631</ele>
        <time>2016-05-07T14:55:40Z</time>
      </trkpt>
      <trkpt lat="43.81135" lon="5.29557">
        <ele>405.987</ele>
        <time>2016-05-07T14:55:46Z</time>
      </trkpt>
      <trkpt lat="43.81139" lon="5.29561">
        <ele>404.113</ele>
        <time>2016-05-07T14:55:51Z</time>
      </trkpt>
      <trkpt lat="43.8114" lon="5.29568">
        <ele>401.253</ele>
        <time>2016-05-07T14:55:56Z</time>
      </trkpt>
      <trkpt lat="43.8114" lon="5.29572">
        <ele>402.708</ele>
        <time>2016-05-07T14:56:01Z</time>
      </trkpt>
      <trkpt lat="43.81142" lon="5.29569">
        <ele>400.776</ele>
        <time>2016-05-07T14:56:08Z</time>
      </trkpt>
      <trkpt lat="43.81144" lon="5.29563">
        <ele>410.463</ele>
        <time>2016-05-07T14:56:14Z</time>
      </trkpt>
      <trkpt lat="43.8115" lon="5.29559">
        <ele>407.032</ele>
        <time>2016-05-07T14:56:20Z</time>
      </trkpt>
      <trkpt lat="43.81156" lon="5.29563">
        <ele>404.014</ele>
        <time>2016-05-07T14:56:26Z</time>
      </trkpt>
      <trkpt lat="43.81155" lon="5.29564">
        <ele>404.477</ele>
        <time>2016-05-07T14:56:27Z</time>
      </trkpt>
      <trkpt lat="43.81157" lon="5.29572">
        <ele>397.936</ele>
        <time>2016-05-07T14:56:34Z</time>
      </trkpt>
      <trkpt lat="43.81155" lon="5.29578">
        <ele>396.673</ele>
        <time>2016-05-07T14:56:38Z</time>
      </trkpt>
      <trkpt lat="43.81158" lon="5.29586">
        <ele>392.238</ele>
        <time>2016-05-07T14:56:43Z</time>
      </trkpt>
      <trkpt lat="43.81158" lon="5.29592">
        <ele>389.223</ele>
        <time>2016-05-07T14:56:47Z</time>
      </trkpt>
      <trkpt lat="43.81156" lon="5.29601">
        <ele>387.637</ele>
        <time>2016-05-07T14:56:53Z</time>
      </trkpt>
      <trkpt lat="43.81157" lon="5.29606">
        <ele>386.997</ele>
        <time>2016-05-07T14:56:56Z</time>
      </trkpt>
      <trkpt lat="43.81159" lon="5.29613">
        <ele>382.844</ele>
        <time>2016-05-07T14:57:02Z</time>
      </trkpt>
      <trkpt lat="43.81162" lon="5.29619">
        <ele>377.663</ele>
        <time>2016-05-07T14:57:07Z</time>
      </trkpt>
      <trkpt lat="43.81162" lon="5.29628">
        <ele>375.476</ele>
        <time>2016-05-07T14:57:11Z</time>
      </trkpt>
      <trkpt lat="43.81162" lon="5.29635">
        <ele>373.196</ele>
        <time>2016-05-07T14:57:16Z</time>
      </trkpt>
      <trkpt lat="43.81163" lon="5.29643">
        <ele>373.329</ele>
        <time>2016-05-07T14:57:20Z</time>
      </trkpt>
      <trkpt lat="43.81166" lon="5.29651">
        <ele>374.107</ele>
        <time>2016-05-07T14:57:26Z</time>
      </trkpt>
      <trkpt lat="43.81166" lon="5.29657">
        <ele>368.432</ele>
        <time>2016-05-07T14:57:29Z</time>
      </trkpt>
      <trkpt lat="43.81163" lon="5.29666">
        <ele>366.054</ele>
        <time>2016-05-07T14:57:33Z</time>
      </trkpt>
      <trkpt lat="43.8116" lon="5.29681">
        <ele>356.466</ele>
        <time>2016-05-07T14:57:41Z</time>
      </trkpt>
      <trkpt lat="43.8116" lon="5.29689">
        <ele>351.646</ele>
        <time>2016-05-07T14:57:46Z</time>
      </trkpt>
      <trkpt lat="43.8116" lon="5.29697">
        <ele>356.122</ele>
        <time>2016-05-07T14:57:52Z</time>
      </trkpt>
      <trkpt lat="43.81159" lon="5.29704">
        <ele>357.584</ele>
        <time>2016-05-07T14:57:57Z</time>
      </trkpt>
      <trkpt lat="43.81163" lon="5.29733">
        <ele>355.358</ele>
        <time>2016-05-07T14:58:16Z</time>
      </trkpt>
      <trkpt lat="43.81164" lon="5.29745">
        <ele>349.383</ele>
        <time>2016-05-07T14:58:24Z</time>
      </trkpt>
      <trkpt lat="43.81164" lon="5.29752">
        <ele>350.085</ele>
        <time>2016-05-07T14:58:28Z</time>
      </trkpt>
      <trkpt lat="43.81169" lon="5.29757">
        <ele>345.52</ele>
        <time>2016-05-07T14:58:34Z</time>
      </trkpt>
      <trkpt lat="43.81199" lon="5.29799">
        <ele>328.425</ele>
        <time>2016-05-07T14:59:14Z</time>
      </trkpt>
      <trkpt lat="43.81208" lon="5.29813">
        <ele>327.088</ele>
        <time>2016-05-07T14:59:27Z</time>
      </trkpt>
      <trkpt lat="43.81214" lon="5.29821">
        <ele>326.045</ele>
        <time>2016-05-07T14:59:33Z</time>
      </trkpt>
      <trkpt lat="43.81222" lon="5.2983">
        <ele>322.066</ele>
        <time>2016-05-07T14:59:42Z</time>
      </trkpt>
      <trkpt lat="43.81236" lon="5.29833">
        <ele>327.006</ele>
        <time>2016-05-07T14:59:49Z</time>
      </trkpt>
      <trkpt lat="43.81256" lon="5.29841">
        <ele>342.476</ele>
        <time>2016-05-07T14:59:55Z</time>
      </trkpt>
      <trkpt lat="43.81263" lon="5.29842">
        <ele>344.174</ele>
        <time>2016-05-07T14:59:59Z</time>
      </trkpt>
      <trkpt lat="43.81267" lon="5.29845">
        <ele>343.311</ele>
        <time>2016-05-07T15:00:02Z</time>
      </trkpt>
      <trkpt lat="43.81275" lon="5.29849">
        <ele>346.276</ele>
        <time>2016-05-07T15:00:08Z</time>
      </trkpt>
      <trkpt lat="43.81281" lon="5.29849">
        <ele>348.278</ele>
        <time>2016-05-07T15:00:13Z</time>
      </trkpt>
      <trkpt lat="43.81285" lon="5.2985">
        <ele>348.877</ele>
        <time>2016-05-07T15:00:17Z</time>
      </trkpt>
      <trkpt lat="43.8129" lon="5.29851">
        <ele>347.705</ele>
        <time>2016-05-07T15:00:25Z</time>
      </trkpt>
      <trkpt lat="43.81297" lon="5.2985">
        <ele>341.966</ele>
        <time>2016-05-07T15:00:30Z</time>
      </trkpt>
      <trkpt lat="43.81299" lon="5.29849">
        <ele>339.223</ele>
        <time>2016-05-07T15:00:32Z</time>
      </trkpt>
      <trkpt lat="43.81307" lon="5.29847">
        <ele>342.835</ele>
        <time>2016-05-07T15:00:38Z</time>
      </trkpt>
      <trkpt lat="43.81307" lon="5.2985">
        <ele>343.267</ele>
        <time>2016-05-07T15:00:42Z</time>
      </trkpt>
      <trkpt lat="43.81313" lon="5.29853">
        <ele>343.368</ele>
        <time>2016-05-07T15:00:47Z</time>
      </trkpt>
      <trkpt lat="43.81325" lon="5.29856">
        <ele>340.555</ele>
        <time>2016-05-07T15:00:55Z</time>
      </trkpt>
      <trkpt lat="43.81335" lon="5.29855">
        <ele>341.567</ele>
        <time>2016-05-07T15:01:00Z</time>
      </trkpt>
      <trkpt lat="43.81341" lon="5.2986">
        <ele>341.225</ele>
        <time>2016-05-07T15:01:06Z</time>
      </trkpt>
      <trkpt lat="43.8135" lon="5.29865">
        <ele>338.213</ele>
        <time>2016-05-07T15:01:14Z</time>
      </trkpt>
      <trkpt lat="43.81353" lon="5.29867">
        <ele>338.752</ele>
        <time>2016-05-07T15:01:17Z</time>
      </trkpt>
      <trkpt lat="43.81362" lon="5.2987">
        <ele>338.34</ele>
        <time>2016-05-07T15:01:25Z</time>
      </trkpt>
      <trkpt lat="43.81375" lon="5.29869">
        <ele>338.536</ele>
        <time>2016-05-07T15:01:32Z</time>
      </trkpt>
      <trkpt lat="43.81392" lon="5.2987">
        <ele>342.771</ele>
        <time>2016-05-07T15:01:41Z</time>
      </trkpt>
      <trkpt lat="43.81398" lon="5.2987">
        <ele>344.842</ele>
        <time>2016-05-07T15:01:46Z</time>
      </trkpt>
      <trkpt lat="43.81403" lon="5.29872">
        <ele>346.359</ele>
        <time>2016-05-07T15:01:50Z</time>
      </trkpt>
      <trkpt lat="43.81407" lon="5.29872">
        <ele>347.78</ele>
        <time>2016-05-07T15:01:53Z</time>
      </trkpt>
      <trkpt lat="43.81416" lon="5.29871">
        <ele>344.011</ele>
        <time>2016-05-07T15:02:01Z</time>
      </trkpt>
      <trkpt lat="43.81424" lon="5.29875">
        <ele>341.25</ele>
        <time>2016-05-07T15:02:08Z</time>
      </trkpt>
      <trkpt lat="43.81432" lon="5.29876">
        <ele>341.361</ele>
        <time>2016-05-07T15:02:14Z</time>
      </trkpt>
      <trkpt lat="43.81443" lon="5.29879">
        <ele>339.382</ele>
        <time>2016-05-07T15:02:22Z</time>
      </trkpt>
      <trkpt lat="43.81449" lon="5.29879">
        <ele>339.093</ele>
        <time>2016-05-07T15:02:27Z</time>
      </trkpt>
      <trkpt lat="43.81458" lon="5.29879">
        <ele>343.23</ele>
        <time>2016-05-07T15:02:33Z</time>
      </trkpt>
      <trkpt lat="43.81458" lon="5.2988">
        <ele>343.53</ele>
        <time>2016-05-07T15:02:34Z</time>
      </trkpt>
      <trkpt lat="43.81463" lon="5.29881">
        <ele>345.376</ele>
        <time>2016-05-07T15:02:39Z</time>
      </trkpt>
      <trkpt lat="43.8147" lon="5.29881">
        <ele>347.379</ele>
        <time>2016-05-07T15:02:42Z</time>
      </trkpt>
      <trkpt lat="43.8148" lon="5.29886">
        <ele>345.891</ele>
        <time>2016-05-07T15:02:50Z</time>
      </trkpt>
      <trkpt lat="43.81491" lon="5.29891">
        <ele>343.286</ele>
        <time>2016-05-07T15:02:58Z</time>
      </trkpt>
      <trkpt lat="43.81509" lon="5.29905">
        <ele>346.068</ele>
        <time>2016-05-07T15:03:15Z</time>
      </trkpt>
      <trkpt lat="43.81515" lon="5.29908">
        <ele>344.193</ele>
        <time>2016-05-07T15:03:20Z</time>
      </trkpt>
      <trkpt lat="43.81522" lon="5.29919">
        <ele>351.173</ele>
        <time>2016-05-07T15:03:32Z</time>
      </trkpt>
      <trkpt lat="43.81524" lon="5.29921">
        <ele>352.07</ele>
        <time>2016-05-07T15:03:35Z</time>
      </trkpt>
      <trkpt lat="43.81534" lon="5.29924">
        <ele>349.368</ele>
        <time>2016-05-07T15:03:40Z</time>
      </trkpt>
      <trkpt lat="43.8154" lon="5.29926">
        <ele>344.719</ele>
        <time>2016-05-07T15:03:44Z</time>
      </trkpt>
      <trkpt lat="43.81548" lon="5.29929">
        <ele>343.701</ele>
        <time>2016-05-07T15:03:49Z</time>
      </trkpt>
      <trkpt lat="43.81551" lon="5.29934">
        <ele>344.644</ele>
        <time>2016-05-07T15:03:54Z</time>
      </trkpt>
      <trkpt lat="43.81549" lon="5.29934">
        <ele>347.32</ele>
        <time>2016-05-07T15:03:59Z</time>
      </trkpt>
      <trkpt lat="43.81553" lon="5.29936">
        <ele>345.472</ele>
        <time>2016-05-07T15:04:09Z</time>
      </trkpt>
      <trkpt lat="43.81559" lon="5.29946">
        <ele>343.831</ele>
        <time>2016-05-07T15:04:16Z</time>
      </trkpt>
      <trkpt lat="43.81563" lon="5.29951">
        <ele>342.79</ele>
        <time>2016-05-07T15:04:22Z</time>
      </trkpt>
      <trkpt lat="43.81572" lon="5.29956">
        <ele>342.359</ele>
        <time>2016-05-07T15:04:29Z</time>
      </trkpt>
      <trkpt lat="43.81576" lon="5.29959">
        <ele>344.253</ele>
        <time>2016-05-07T15:04:33Z</time>
      </trkpt>
      <trkpt lat="43.81585" lon="5.29962">
        <ele>340.44</ele>
        <time>2016-05-07T15:04:39Z</time>
      </trkpt>
      <trkpt lat="43.81587" lon="5.29963">
        <ele>338.238</ele>
        <time>2016-05-07T15:04:41Z</time>
      </trkpt>
      <trkpt lat="43.81596" lon="5.29965">
        <ele>333.133</ele>
        <time>2016-05-07T15:04:47Z</time>
      </trkpt>
      <trkpt lat="43.81604" lon="5.29973">
        <ele>331.58</ele>
        <time>2016-05-07T15:04:54Z</time>
      </trkpt>
      <trkpt lat="43.81608" lon="5.29977">
        <ele>331.774</ele>
        <time>2016-05-07T15:04:58Z</time>
      </trkpt>
      <trkpt lat="43.81615" lon="5.29983">
        <ele>331.326</ele>
        <time>2016-05-07T15:05:04Z</time>
      </trkpt>
      <trkpt lat="43.81624" lon="5.29989">
        <ele>333.481</ele>
        <time>2016-05-07T15:05:12Z</time>
      </trkpt>
      <trkpt lat="43.81631" lon="5.2999">
        <ele>332.611</ele>
        <time>2016-05-07T15:05:17Z</time>
      </trkpt>
      <trkpt lat="43.81644" lon="5.29991">
        <ele>336.326</ele>
        <time>2016-05-07T15:05:25Z</time>
      </trkpt>
      <trkpt lat="43.81647" lon="5.29992">
        <ele>335.474</ele>
        <time>2016-05-07T15:05:27Z</time>
      </trkpt>
      <trkpt lat="43.81657" lon="5.29993">
        <ele>334.093</ele>
        <time>2016-05-07T15:05:35Z</time>
      </trkpt>
      <trkpt lat="43.81662" lon="5.29993">
        <ele>334.202</ele>
        <time>2016-05-07T15:05:39Z</time>
      </trkpt>
      <trkpt lat="43.81667" lon="5.29992">
        <ele>333.483</ele>
        <time>2016-05-07T15:05:44Z</time>
      </trkpt>
      <trkpt lat="43.81672" lon="5.29993">
        <ele>330.151</ele>
        <time>2016-05-07T15:05:53Z</time>
      </trkpt>
      <trkpt lat="43.81683" lon="5.29989">
        <ele>326.875</ele>
        <time>2016-05-07T15:06:00Z</time>
      </trkpt>
      <trkpt lat="43.81697" lon="5.29987">
        <ele>325.901</ele>
        <time>2016-05-07T15:06:09Z</time>
      </trkpt>
      <trkpt lat="43.81711" lon="5.29989">
        <ele>324.618</ele>
        <time>2016-05-07T15:06:17Z</time>
      </trkpt>
      <trkpt lat="43.81717" lon="5.29994">
        <ele>326.34</ele>
        <time>2016-05-07T15:06:24Z</time>
      </trkpt>
      <trkpt lat="43.81724" lon="5.30004">
        <ele>332.106</ele>
        <time>2016-05-07T15:06:32Z</time>
      </trkpt>
      <trkpt lat="43.81725" lon="5.30005">
        <ele>331.423</ele>
        <time>2016-05-07T15:06:35Z</time>
      </trkpt>
      <trkpt lat="43.81729" lon="5.30005">
        <ele>326.285</ele>
        <time>2016-05-07T15:06:40Z</time>
      </trkpt>
      <trkpt lat="43.81735" lon="5.30008">
        <ele>321.067</ele>
        <time>2016-05-07T15:06:47Z</time>
      </trkpt>
      <trkpt lat="43.81734" lon="5.30011">
        <ele>321.182</ele>
        <time>2016-05-07T15:06:49Z</time>
      </trkpt>
      <trkpt lat="43.81739" lon="5.30022">
        <ele>315.128</ele>
        <time>2016-05-07T15:06:56Z</time>
      </trkpt>
      <trkpt lat="43.81745" lon="5.30028">
        <ele>316.306</ele>
        <time>2016-05-07T15:07:01Z</time>
      </trkpt>
      <trkpt lat="43.81748" lon="5.30037">
        <ele>317.282</ele>
        <time>2016-05-07T15:07:07Z</time>
      </trkpt>
      <trkpt lat="43.81756" lon="5.30044">
        <ele>315.127</ele>
        <time>2016-05-07T15:07:13Z</time>
      </trkpt>
      <trkpt lat="43.81757" lon="5.3005">
        <ele>317.049</ele>
        <time>2016-05-07T15:07:18Z</time>
      </trkpt>
      <trkpt lat="43.8176" lon="5.30055">
        <ele>314.631</ele>
        <time>2016-05-07T15:07:23Z</time>
      </trkpt>
      <trkpt lat="43.81774" lon="5.30066">
        <ele>317.218</ele>
        <time>2016-05-07T15:07:31Z</time>
      </trkpt>
      <trkpt lat="43.81785" lon="5.30072">
        <ele>314.459</ele>
        <time>2016-05-07T15:07:39Z</time>
      </trkpt>
      <trkpt lat="43.81793" lon="5.30073">
        <ele>313.684</ele>
        <time>2016-05-07T15:07:45Z</time>
      </trkpt>
      <trkpt lat="43.81799" lon="5.30075">
        <ele>310.489</ele>
        <time>2016-05-07T15:07:51Z</time>
      </trkpt>
      <trkpt lat="43.81809" lon="5.3008">
        <ele>310.979</ele>
        <time>2016-05-07T15:07:58Z</time>
      </trkpt>
      <trkpt lat="43.81811" lon="5.30081">
        <ele>313.629</ele>
        <time>2016-05-07T15:08:00Z</time>
      </trkpt>
      <trkpt lat="43.81815" lon="5.30082">
        <ele>313.824</ele>
        <time>2016-05-07T15:08:03Z</time>
      </trkpt>
      <trkpt lat="43.81825" lon="5.30086">
        <ele>312.77</ele>
        <time>2016-05-07T15:08:11Z</time>
      </trkpt>
      <trkpt lat="43.81831" lon="5.30093">
        <ele>310.616</ele>
        <time>2016-05-07T15:08:17Z</time>
      </trkpt>
      <trkpt lat="43.81832" lon="5.30094">
        <ele>310.784</ele>
        <time>2016-05-07T15:08:18Z</time>
      </trkpt>
      <trkpt lat="43.81848" lon="5.30097">
        <ele>311.661</ele>
        <time>2016-05-07T15:08:28Z</time>
      </trkpt>
      <trkpt lat="43.81851" lon="5.30101">
        <ele>310.348</ele>
        <time>2016-05-07T15:08:33Z</time>
      </trkpt>
      <trkpt lat="43.81859" lon="5.30106">
        <ele>310.551</ele>
        <time>2016-05-07T15:08:39Z</time>
      </trkpt>
      <trkpt lat="43.81872" lon="5.30112">
        <ele>310.397</ele>
        <time>2016-05-07T15:08:47Z</time>
      </trkpt>
      <trkpt lat="43.8188" lon="5.3012">
        <ele>313.542</ele>
        <time>2016-05-07T15:08:54Z</time>
      </trkpt>
      <trkpt lat="43.81885" lon="5.30124">
        <ele>313.168</ele>
        <time>2016-05-07T15:08:58Z</time>
      </trkpt>
      <trkpt lat="43.819" lon="5.30135">
        <ele>307.576</ele>
        <time>2016-05-07T15:09:08Z</time>
      </trkpt>
      <trkpt lat="43.81904" lon="5.30137">
        <ele>306.639</ele>
        <time>2016-05-07T15:09:11Z</time>
      </trkpt>
      <trkpt lat="43.81911" lon="5.30143">
        <ele>306.705</ele>
        <time>2016-05-07T15:09:18Z</time>
      </trkpt>
      <trkpt lat="43.81921" lon="5.30147">
        <ele>303.045</ele>
        <time>2016-05-07T15:09:24Z</time>
      </trkpt>
      <trkpt lat="43.81923" lon="5.30147">
        <ele>301.634</ele>
        <time>2016-05-07T15:09:25Z</time>
      </trkpt>
      <trkpt lat="43.81926" lon="5.30148">
        <ele>301.093</ele>
        <time>2016-05-07T15:09:29Z</time>
      </trkpt>
      <trkpt lat="43.81933" lon="5.30153">
        <ele>300.187</ele>
        <time>2016-05-07T15:09:34Z</time>
      </trkpt>
      <trkpt lat="43.81935" lon="5.30154">
        <ele>300.117</ele>
        <time>2016-05-07T15:09:36Z</time>
      </trkpt>
      <trkpt lat="43.81945" lon="5.30159">
        <ele>303.298</ele>
        <time>2016-05-07T15:09:44Z</time>
      </trkpt>
      <trkpt lat="43.81951" lon="5.30163">
        <ele>305.17</ele>
        <time>2016-05-07T15:09:50Z</time>
      </trkpt>
      <trkpt lat="43.81958" lon="5.30168">
        <ele>308.708</ele>
        <time>2016-05-07T15:09:56Z</time>
      </trkpt>
      <trkpt lat="43.81963" lon="5.30169">
        <ele>309.667</ele>
        <time>2016-05-07T15:10:00Z</time>
      </trkpt>
      <trkpt lat="43.81974" lon="5.30173">
        <ele>306.096</ele>
        <time>2016-05-07T15:10:09Z</time>
      </trkpt>
      <trkpt lat="43.8198" lon="5.30178">
        <ele>305.064</ele>
        <time>2016-05-07T15:10:16Z</time>
      </trkpt>
      <trkpt lat="43.81981" lon="5.30179">
        <ele>305.064</ele>
        <time>2016-05-07T15:10:17Z</time>
      </trkpt>
      <trkpt lat="43.81989" lon="5.3018">
        <ele>303.781</ele>
        <time>2016-05-07T15:10:21Z</time>
      </trkpt>
      <trkpt lat="43.81997" lon="5.30182">
        <ele>314.06</ele>
        <time>2016-05-07T15:10:28Z</time>
      </trkpt>
      <trkpt lat="43.8201" lon="5.30182">
        <ele>316.129</ele>
        <time>2016-05-07T15:10:34Z</time>
      </trkpt>
      <trkpt lat="43.82018" lon="5.30193">
        <ele>313.68</ele>
        <time>2016-05-07T15:10:45Z</time>
      </trkpt>
      <trkpt lat="43.82018" lon="5.30198">
        <ele>312.632</ele>
        <time>2016-05-07T15:10:48Z</time>
      </trkpt>
      <trkpt lat="43.82028" lon="5.30203">
        <ele>309.975</ele>
        <time>2016-05-07T15:10:55Z</time>
      </trkpt>
      <trkpt lat="43.82035" lon="5.30208">
        <ele>310.649</ele>
        <time>2016-05-07T15:11:01Z</time>
      </trkpt>
      <trkpt lat="43.82043" lon="5.30215">
        <ele>309.403</ele>
        <time>2016-05-07T15:11:08Z</time>
      </trkpt>
      <trkpt lat="43.82044" lon="5.30217">
        <ele>309.477</ele>
        <time>2016-05-07T15:11:09Z</time>
      </trkpt>
      <trkpt lat="43.82056" lon="5.30231">
        <ele>311.207</ele>
        <time>2016-05-07T15:11:20Z</time>
      </trkpt>
      <trkpt lat="43.82064" lon="5.30237">
        <ele>309.705</ele>
        <time>2016-05-07T15:11:27Z</time>
      </trkpt>
      <trkpt lat="43.8207" lon="5.30244">
        <ele>308.775</ele>
        <time>2016-05-07T15:11:33Z</time>
      </trkpt>
      <trkpt lat="43.82074" lon="5.30249">
        <ele>305.732</ele>
        <time>2016-05-07T15:11:38Z</time>
      </trkpt>
      <trkpt lat="43.82073" lon="5.30263">
        <ele>305.282</ele>
        <time>2016-05-07T15:11:45Z</time>
      </trkpt>
      <trkpt lat="43.82068" lon="5.30279">
        <ele>310.257</ele>
        <time>2016-05-07T15:11:52Z</time>
      </trkpt>
      <trkpt lat="43.82068" lon="5.30284">
        <ele>311.314</ele>
        <time>2016-05-07T15:11:55Z</time>
      </trkpt>
      <trkpt lat="43.82071" lon="5.3029">
        <ele>311.627</ele>
        <time>2016-05-07T15:11:59Z</time>
      </trkpt>
      <trkpt lat="43.82071" lon="5.30296">
        <ele>313.574</ele>
        <time>2016-05-07T15:12:02Z</time>
      </trkpt>
      <trkpt lat="43.8207" lon="5.3031">
        <ele>312.136</ele>
        <time>2016-05-07T15:12:09Z</time>
      </trkpt>
      <trkpt lat="43.82066" lon="5.30324">
        <ele>312.045</ele>
        <time>2016-05-07T15:12:16Z</time>
      </trkpt>
      <trkpt lat="43.82064" lon="5.3033">
        <ele>311.135</ele>
        <time>2016-05-07T15:12:19Z</time>
      </trkpt>
      <trkpt lat="43.82057" lon="5.30341">
        <ele>312.765</ele>
        <time>2016-05-07T15:12:24Z</time>
      </trkpt>
      <trkpt lat="43.82058" lon="5.30348">
        <ele>312.507</ele>
        <time>2016-05-07T15:12:28Z</time>
      </trkpt>
      <trkpt lat="43.82056" lon="5.30363">
        <ele>314.436</ele>
        <time>2016-05-07T15:12:35Z</time>
      </trkpt>
      <trkpt lat="43.82064" lon="5.30369">
        <ele>306.457</ele>
        <time>2016-05-07T15:12:40Z</time>
      </trkpt>
      <trkpt lat="43.82064" lon="5.30374">
        <ele>305.4</ele>
        <time>2016-05-07T15:12:43Z</time>
      </trkpt>
      <trkpt lat="43.82067" lon="5.3038">
        <ele>306.488</ele>
        <time>2016-05-07T15:12:47Z</time>
      </trkpt>
      <trkpt lat="43.82073" lon="5.30389">
        <ele>307.876</ele>
        <time>2016-05-07T15:12:53Z</time>
      </trkpt>
      <trkpt lat="43.82071" lon="5.30396">
        <ele>311.091</ele>
        <time>2016-05-07T15:12:57Z</time>
      </trkpt>
      <trkpt lat="43.82076" lon="5.30402">
        <ele>307.715</ele>
        <time>2016-05-07T15:13:02Z</time>
      </trkpt>
      <trkpt lat="43.8208" lon="5.30413">
        <ele>308.387</ele>
        <time>2016-05-07T15:13:08Z</time>
      </trkpt>
      <trkpt lat="43.82083" lon="5.3043">
        <ele>310.936</ele>
        <time>2016-05-07T15:13:17Z</time>
      </trkpt>
      <trkpt lat="43.82084" lon="5.30439">
        <ele>310.364</ele>
        <time>2016-05-07T15:13:23Z</time>
      </trkpt>
      <trkpt lat="43.82083" lon="5.30444">
        <ele>311.468</ele>
        <time>2016-05-07T15:13:26Z</time>
      </trkpt>
      <trkpt lat="43.8208" lon="5.30451">
        <ele>312.451</ele>
        <time>2016-05-07T15:13:32Z</time>
      </trkpt>
      <trkpt lat="43.82076" lon="5.3046">
        <ele>311.23</ele>
        <time>2016-05-07T15:13:38Z</time>
      </trkpt>
      <trkpt lat="43.82071" lon="5.3047">
        <ele>313.789</ele>
        <time>2016-05-07T15:13:43Z</time>
      </trkpt>
      <trkpt lat="43.82073" lon="5.30487">
        <ele>313.161</ele>
        <time>2016-05-07T15:13:53Z</time>
      </trkpt>
      <trkpt lat="43.82072" lon="5.30499">
        <ele>313.154</ele>
        <time>2016-05-07T15:13:59Z</time>
      </trkpt>
      <trkpt lat="43.82071" lon="5.30506">
        <ele>312.742</ele>
        <time>2016-05-07T15:14:03Z</time>
      </trkpt>
      <trkpt lat="43.82076" lon="5.30517">
        <ele>315.384</ele>
        <time>2016-05-07T15:14:07Z</time>
      </trkpt>
      <trkpt lat="43.82075" lon="5.30525">
        <ele>315.249</ele>
        <time>2016-05-07T15:14:12Z</time>
      </trkpt>
      <trkpt lat="43.82074" lon="5.30535">
        <ele>314.795</ele>
        <time>2016-05-07T15:14:20Z</time>
      </trkpt>
      <trkpt lat="43.82064" lon="5.30565">
        <ele>301.491</ele>
        <time>2016-05-07T15:14:40Z</time>
      </trkpt>
      <trkpt lat="43.82056" lon="5.30572">
        <ele>298.258</ele>
        <time>2016-05-07T15:14:45Z</time>
      </trkpt>
      <trkpt lat="43.82061" lon="5.30604">
        <ele>290.749</ele>
        <time>2016-05-07T15:15:05Z</time>
      </trkpt>
      <trkpt lat="43.82065" lon="5.30618">
        <ele>293.564</ele>
        <time>2016-05-07T15:15:11Z</time>
      </trkpt>
      <trkpt lat="43.82065" lon="5.30621">
        <ele>294.46</ele>
        <time>2016-05-07T15:15:12Z</time>
      </trkpt>
      <trkpt lat="43.82066" lon="5.30627">
        <ele>297.623</ele>
        <time>2016-05-07T15:15:15Z</time>
      </trkpt>
      <trkpt lat="43.82075" lon="5.30647">
        <ele>313.851</ele>
        <time>2016-05-07T15:15:21Z</time>
      </trkpt>
      <trkpt lat="43.8208" lon="5.30654">
        <ele>320.068</ele>
        <time>2016-05-07T15:15:24Z</time>
      </trkpt>
      <trkpt lat="43.82074" lon="5.30668">
        <ele>327.623</ele>
        <time>2016-05-07T15:15:30Z</time>
      </trkpt>
      <trkpt lat="43.82074" lon="5.3067">
        <ele>323.248</ele>
        <time>2016-05-07T15:15:34Z</time>
      </trkpt>
      <trkpt lat="43.82076" lon="5.30677">
        <ele>321.35</ele>
        <time>2016-05-07T15:15:39Z</time>
      </trkpt>
      <trkpt lat="43.82071" lon="5.30685">
        <ele>316.027</ele>
        <time>2016-05-07T15:15:45Z</time>
      </trkpt>
      <trkpt lat="43.8207" lon="5.30695">
        <ele>310.725</ele>
        <time>2016-05-07T15:15:51Z</time>
      </trkpt>
      <trkpt lat="43.82068" lon="5.30713">
        <ele>311.537</ele>
        <time>2016-05-07T15:15:58Z</time>
      </trkpt>
      <trkpt lat="43.82068" lon="5.30719">
        <ele>311.818</ele>
        <time>2016-05-07T15:16:03Z</time>
      </trkpt>
      <trkpt lat="43.82073" lon="5.30724">
        <ele>310.329</ele>
        <time>2016-05-07T15:16:07Z</time>
      </trkpt>
      <trkpt lat="43.82069" lon="5.3074">
        <ele>308.474</ele>
        <time>2016-05-07T15:16:14Z</time>
      </trkpt>
      <trkpt lat="43.82069" lon="5.30744">
        <ele>306.871</ele>
        <time>2016-05-07T15:16:19Z</time>
      </trkpt>
      <trkpt lat="43.82068" lon="5.3075">
        <ele>302.152</ele>
        <time>2016-05-07T15:16:24Z</time>
      </trkpt>
      <trkpt lat="43.82064" lon="5.30756">
        <ele>304.839</ele>
        <time>2016-05-07T15:16:29Z</time>
      </trkpt>
      <trkpt lat="43.82058" lon="5.30765">
        <ele>305.081</ele>
        <time>2016-05-07T15:16:35Z</time>
      </trkpt>
      <trkpt lat="43.82058" lon="5.30766">
        <ele>305.605</ele>
        <time>2016-05-07T15:16:36Z</time>
      </trkpt>
      <trkpt lat="43.82054" lon="5.30774">
        <ele>304.564</ele>
        <time>2016-05-07T15:16:42Z</time>
      </trkpt>
      <trkpt lat="43.82052" lon="5.30788">
        <ele>314.231</ele>
        <time>2016-05-07T15:16:51Z</time>
      </trkpt>
      <trkpt lat="43.82051" lon="5.3079">
        <ele>315.393</ele>
        <time>2016-05-07T15:16:52Z</time>
      </trkpt>
      <trkpt lat="43.82049" lon="5.30799">
        <ele>318.247</ele>
        <time>2016-05-07T15:17:00Z</time>
      </trkpt>
      <trkpt lat="43.82048" lon="5.30803">
        <ele>318.084</ele>
        <time>2016-05-07T15:17:02Z</time>
      </trkpt>
      <trkpt lat="43.82037" lon="5.30821">
        <ele>319.471</ele>
        <time>2016-05-07T15:17:12Z</time>
      </trkpt>
      <trkpt lat="43.82037" lon="5.30834">
        <ele>322.661</ele>
        <time>2016-05-07T15:17:20Z</time>
      </trkpt>
      <trkpt lat="43.82034" lon="5.3084">
        <ele>323.375</ele>
        <time>2016-05-07T15:17:26Z</time>
      </trkpt>
      <trkpt lat="43.82029" lon="5.30849">
        <ele>321.868</ele>
        <time>2016-05-07T15:17:32Z</time>
      </trkpt>
      <trkpt lat="43.8203" lon="5.30852">
        <ele>321.304</ele>
        <time>2016-05-07T15:17:35Z</time>
      </trkpt>
      <trkpt lat="43.82032" lon="5.30857">
        <ele>321.071</ele>
        <time>2016-05-07T15:17:40Z</time>
      </trkpt>
      <trkpt lat="43.82035" lon="5.30863">
        <ele>316.894</ele>
        <time>2016-05-07T15:17:46Z</time>
      </trkpt>
      <trkpt lat="43.82037" lon="5.30864">
        <ele>313.415</ele>
        <time>2016-05-07T15:17:48Z</time>
      </trkpt>
      <trkpt lat="43.82048" lon="5.30872">
        <ele>316.112</ele>
        <time>2016-05-07T15:17:57Z</time>
      </trkpt>
      <trkpt lat="43.82055" lon="5.30876">
        <ele>315.543</ele>
        <time>2016-05-07T15:18:04Z</time>
      </trkpt>
      <trkpt lat="43.82062" lon="5.30878">
        <ele>318.001</ele>
        <time>2016-05-07T15:18:10Z</time>
      </trkpt>
      <trkpt lat="43.82073" lon="5.30878">
        <ele>322.035</ele>
        <time>2016-05-07T15:18:17Z</time>
      </trkpt>
      <trkpt lat="43.82089" lon="5.30877">
        <ele>324.424</ele>
        <time>2016-05-07T15:18:32Z</time>
      </trkpt>
      <trkpt lat="43.82092" lon="5.30881">
        <ele>319.569</ele>
        <time>2016-05-07T15:18:37Z</time>
      </trkpt>
      <trkpt lat="43.82106" lon="5.30882">
        <ele>322.789</ele>
        <time>2016-05-07T15:18:53Z</time>
      </trkpt>
      <trkpt lat="43.82121" lon="5.30876">
        <ele>319.662</ele>
        <time>2016-05-07T15:19:05Z</time>
      </trkpt>
      <trkpt lat="43.82126" lon="5.30871">
        <ele>319.222</ele>
        <time>2016-05-07T15:19:08Z</time>
      </trkpt>
      <trkpt lat="43.82129" lon="5.30866">
        <ele>323.406</ele>
        <time>2016-05-07T15:19:12Z</time>
      </trkpt>
      <trkpt lat="43.82131" lon="5.30858">
        <ele>327.039</ele>
        <time>2016-05-07T15:19:18Z</time>
      </trkpt>
      <trkpt lat="43.82136" lon="5.3085">
        <ele>330.041</ele>
        <time>2016-05-07T15:19:24Z</time>
      </trkpt>
      <trkpt lat="43.82141" lon="5.30835">
        <ele>332.96</ele>
        <time>2016-05-07T15:19:31Z</time>
      </trkpt>
      <trkpt lat="43.82144" lon="5.30827">
        <ele>335.023</ele>
        <time>2016-05-07T15:19:38Z</time>
      </trkpt>
      <trkpt lat="43.8215" lon="5.30822">
        <ele>334.112</ele>
        <time>2016-05-07T15:19:43Z</time>
      </trkpt>
      <trkpt lat="43.82155" lon="5.30815">
        <ele>333.723</ele>
        <time>2016-05-07T15:19:49Z</time>
      </trkpt>
      <trkpt lat="43.8216" lon="5.30806">
        <ele>332.029</ele>
        <time>2016-05-07T15:19:56Z</time>
      </trkpt>
      <trkpt lat="43.82164" lon="5.30797">
        <ele>332</ele>
        <time>2016-05-07T15:20:02Z</time>
      </trkpt>
      <trkpt lat="43.82165" lon="5.30791">
        <ele>332.184</ele>
        <time>2016-05-07T15:20:07Z</time>
      </trkpt>
      <trkpt lat="43.82167" lon="5.30779">
        <ele>333.618</ele>
        <time>2016-05-07T15:20:15Z</time>
      </trkpt>
      <trkpt lat="43.82169" lon="5.30771">
        <ele>336.42</ele>
        <time>2016-05-07T15:20:20Z</time>
      </trkpt>
      <trkpt lat="43.82169" lon="5.30763">
        <ele>338.435</ele>
        <time>2016-05-07T15:20:25Z</time>
      </trkpt>
      <trkpt lat="43.82172" lon="5.30749">
        <ele>340.111</ele>
        <time>2016-05-07T15:20:32Z</time>
      </trkpt>
      <trkpt lat="43.82173" lon="5.30745">
        <ele>338.361</ele>
        <time>2016-05-07T15:20:36Z</time>
      </trkpt>
      <trkpt lat="43.82175" lon="5.30738">
        <ele>337.454</ele>
        <time>2016-05-07T15:20:41Z</time>
      </trkpt>
      <trkpt lat="43.82177" lon="5.30729">
        <ele>337.268</ele>
        <time>2016-05-07T15:20:47Z</time>
      </trkpt>
      <trkpt lat="43.82179" lon="5.30719">
        <ele>335.236</ele>
        <time>2016-05-07T15:20:52Z</time>
      </trkpt>
      <trkpt lat="43.82179" lon="5.30712">
        <ele>335.703</ele>
        <time>2016-05-07T15:20:56Z</time>
      </trkpt>
      <trkpt lat="43.8218" lon="5.3071">
        <ele>335.803</ele>
        <time>2016-05-07T15:20:57Z</time>
      </trkpt>
      <trkpt lat="43.82185" lon="5.30693">
        <ele>334.817</ele>
        <time>2016-05-07T15:21:06Z</time>
      </trkpt>
      <trkpt lat="43.82188" lon="5.30684">
        <ele>332.749</ele>
        <time>2016-05-07T15:21:11Z</time>
      </trkpt>
      <trkpt lat="43.82188" lon="5.3067">
        <ele>337.563</ele>
        <time>2016-05-07T15:21:18Z</time>
      </trkpt>
      <trkpt lat="43.82188" lon="5.3067">
        <ele>337.562</ele>
        <time>2016-05-07T15:21:19Z</time>
      </trkpt>
      <trkpt lat="43.82189" lon="5.30658">
        <ele>335.003</ele>
        <time>2016-05-07T15:21:25Z</time>
      </trkpt>
      <trkpt lat="43.82189" lon="5.30656">
        <ele>335.797</ele>
        <time>2016-05-07T15:21:26Z</time>
      </trkpt>
      <trkpt lat="43.82191" lon="5.30649">
        <ele>339.406</ele>
        <time>2016-05-07T15:21:31Z</time>
      </trkpt>
      <trkpt lat="43.82193" lon="5.30641">
        <ele>340.256</ele>
        <time>2016-05-07T15:21:40Z</time>
      </trkpt>
      <trkpt lat="43.82197" lon="5.30633">
        <ele>336.885</ele>
        <time>2016-05-07T15:21:46Z</time>
      </trkpt>
      <trkpt lat="43.82201" lon="5.30625">
        <ele>338.758</ele>
        <time>2016-05-07T15:21:53Z</time>
      </trkpt>
      <trkpt lat="43.8221" lon="5.30611">
        <ele>342.261</ele>
        <time>2016-05-07T15:22:08Z</time>
      </trkpt>
      <trkpt lat="43.82215" lon="5.30605">
        <ele>343.953</ele>
        <time>2016-05-07T15:22:13Z</time>
      </trkpt>
      <trkpt lat="43.82215" lon="5.30604">
        <ele>345.958</ele>
        <time>2016-05-07T15:22:17Z</time>
      </trkpt>
      <trkpt lat="43.82227" lon="5.30596">
        <ele>338</ele>
        <time>2016-05-07T15:22:26Z</time>
      </trkpt>
      <trkpt lat="43.82235" lon="5.30585">
        <ele>347.458</ele>
        <time>2016-05-07T15:22:42Z</time>
      </trkpt>
      <trkpt lat="43.82242" lon="5.30583">
        <ele>346.119</ele>
        <time>2016-05-07T15:22:47Z</time>
      </trkpt>
      <trkpt lat="43.82246" lon="5.30586">
        <ele>344.979</ele>
        <time>2016-05-07T15:22:54Z</time>
      </trkpt>
      <trkpt lat="43.82251" lon="5.30583">
        <ele>344.178</ele>
        <time>2016-05-07T15:22:57Z</time>
      </trkpt>
      <trkpt lat="43.82259" lon="5.30579">
        <ele>343.16</ele>
        <time>2016-05-07T15:23:04Z</time>
      </trkpt>
      <trkpt lat="43.82263" lon="5.30577">
        <ele>346.064</ele>
        <time>2016-05-07T15:23:09Z</time>
      </trkpt>
      <trkpt lat="43.82264" lon="5.30578">
        <ele>346.353</ele>
        <time>2016-05-07T15:23:10Z</time>
      </trkpt>
      <trkpt lat="43.82271" lon="5.30585">
        <ele>348.859</ele>
        <time>2016-05-07T15:23:18Z</time>
      </trkpt>
      <trkpt lat="43.82275" lon="5.30593">
        <ele>350.716</ele>
        <time>2016-05-07T15:23:23Z</time>
      </trkpt>
      <trkpt lat="43.82282" lon="5.30607">
        <ele>346.779</ele>
        <time>2016-05-07T15:23:35Z</time>
      </trkpt>
      <trkpt lat="43.82294" lon="5.30612">
        <ele>339.827</ele>
        <time>2016-05-07T15:23:45Z</time>
      </trkpt>
      <trkpt lat="43.82293" lon="5.30617">
        <ele>337.88</ele>
        <time>2016-05-07T15:23:48Z</time>
      </trkpt>
      <trkpt lat="43.823" lon="5.30622">
        <ele>329.95</ele>
        <time>2016-05-07T15:23:55Z</time>
      </trkpt>
      <trkpt lat="43.82309" lon="5.30626">
        <ele>342.638</ele>
        <time>2016-05-07T15:25:22Z</time>
      </trkpt>
      <trkpt lat="43.82312" lon="5.30629">
        <ele>344.001</ele>
        <time>2016-05-07T15:25:25Z</time>
      </trkpt>
      <trkpt lat="43.82319" lon="5.30636">
        <ele>343.865</ele>
        <time>2016-05-07T15:25:32Z</time>
      </trkpt>
      <trkpt lat="43.82315" lon="5.30645">
        <ele>339.121</ele>
        <time>2016-05-07T15:25:36Z</time>
      </trkpt>
      <trkpt lat="43.82318" lon="5.30647">
        <ele>336.688</ele>
        <time>2016-05-07T15:25:38Z</time>
      </trkpt>
      <trkpt lat="43.82327" lon="5.30651">
        <ele>334.822</ele>
        <time>2016-05-07T15:25:45Z</time>
      </trkpt>
      <trkpt lat="43.82329" lon="5.30651">
        <ele>333.679</ele>
        <time>2016-05-07T15:25:47Z</time>
      </trkpt>
      <trkpt lat="43.82335" lon="5.30652">
        <ele>329.226</ele>
        <time>2016-05-07T15:25:53Z</time>
      </trkpt>
      <trkpt lat="43.82338" lon="5.30662">
        <ele>337.9</ele>
        <time>2016-05-07T15:26:01Z</time>
      </trkpt>
      <trkpt lat="43.82341" lon="5.30667">
        <ele>338.478</ele>
        <time>2016-05-07T15:26:05Z</time>
      </trkpt>
      <trkpt lat="43.82348" lon="5.30671">
        <ele>339.57</ele>
        <time>2016-05-07T15:26:09Z</time>
      </trkpt>
      <trkpt lat="43.82349" lon="5.3068">
        <ele>340.233</ele>
        <time>2016-05-07T15:26:12Z</time>
      </trkpt>
      <trkpt lat="43.82354" lon="5.30691">
        <ele>343.138</ele>
        <time>2016-05-07T15:26:18Z</time>
      </trkpt>
      <trkpt lat="43.8236" lon="5.307">
        <ele>346.837</ele>
        <time>2016-05-07T15:26:25Z</time>
      </trkpt>
      <trkpt lat="43.82362" lon="5.3071">
        <ele>347.221</ele>
        <time>2016-05-07T15:26:35Z</time>
      </trkpt>
      <trkpt lat="43.82362" lon="5.30711">
        <ele>347.845</ele>
        <time>2016-05-07T15:26:38Z</time>
      </trkpt>
      <trkpt lat="43.82364" lon="5.30712">
        <ele>348.854</ele>
        <time>2016-05-07T15:26:40Z</time>
      </trkpt>
      <trkpt lat="43.82368" lon="5.30723">
        <ele>354.255</ele>
        <time>2016-05-07T15:26:47Z</time>
      </trkpt>
      <trkpt lat="43.82366" lon="5.30726">
        <ele>353.625</ele>
        <time>2016-05-07T15:26:49Z</time>
      </trkpt>
      <trkpt lat="43.82363" lon="5.30734">
        <ele>350.928</ele>
        <time>2016-05-07T15:26:55Z</time>
      </trkpt>
      <trkpt lat="43.82362" lon="5.30735">
        <ele>350.568</ele>
        <time>2016-05-07T15:26:56Z</time>
      </trkpt>
      <trkpt lat="43.82357" lon="5.30739">
        <ele>348.033</ele>
        <time>2016-05-07T15:27:00Z</time>
      </trkpt>
      <trkpt lat="43.82355" lon="5.30745">
        <ele>346.501</ele>
        <time>2016-05-07T15:27:05Z</time>
      </trkpt>
      <trkpt lat="43.82363" lon="5.30759">
        <ele>350.958</ele>
        <time>2016-05-07T15:27:12Z</time>
      </trkpt>
      <trkpt lat="43.82365" lon="5.30764">
        <ele>356.863</ele>
        <time>2016-05-07T15:27:17Z</time>
      </trkpt>
      <trkpt lat="43.82365" lon="5.30768">
        <ele>365.131</ele>
        <time>2016-05-07T15:27:33Z</time>
      </trkpt>
      <trkpt lat="43.82367" lon="5.30769">
        <ele>375.492</ele>
        <time>2016-05-07T15:27:43Z</time>
      </trkpt>
      <trkpt lat="43.82368" lon="5.30769">
        <ele>377.511</ele>
        <time>2016-05-07T15:27:46Z</time>
      </trkpt>
      <trkpt lat="43.82371" lon="5.30768">
        <ele>379.041</ele>
        <time>2016-05-07T15:27:50Z</time>
      </trkpt>
      <trkpt lat="43.82375" lon="5.3077">
        <ele>384.963</ele>
        <time>2016-05-07T15:27:57Z</time>
      </trkpt>
      <trkpt lat="43.82374" lon="5.3077">
        <ele>385.416</ele>
        <time>2016-05-07T15:28:13Z</time>
      </trkpt>
      <trkpt lat="43.82374" lon="5.3077">
        <ele>387.05</ele>
        <time>2016-05-07T15:28:19Z</time>
      </trkpt>
    </trkseg>
  </trk>
</gpx>